Wetterdaten: aktuell Montag, 04.03.2024 10:30
Datum Zeit Temp. 2m Temp +5cm LF A. 2m Luftdruck Regen Wind Richtung Richtung Sonnenschein UV Solar Taupunkt Windben
04.03.2024 10:30 6,2 C 7,0 C 93 % 1011,7 hPa 0,0 l/m 0,0 km/h (0 Bft) O-NO 70 0 min 0,0 UV-I 37 W/m 5,2 C 3,0 km/h (1 Bft)
04.03.2024 10:29 6,2 C 7,0 C 93 % 1011,7 hPa 0,0 l/m 1,0 km/h (0 Bft) O 92 0 min 0,0 UV-I 36 W/m 5,2 C 4,0 km/h (1 Bft)
04.03.2024 10:28 6,2 C 7,0 C 93 % 1011,6 hPa 0,0 l/m 0,0 km/h (0 Bft) O 89 0 min 0,0 UV-I 36 W/m 5,2 C 4,0 km/h (1 Bft)
04.03.2024 10:27 6,2 C 7,0 C 93 % 1011,3 hPa 0,0 l/m 3,1 km/h (1 Bft) O-NO 66 0 min 0,0 UV-I 37 W/m 5,2 C 7,0 km/h (2 Bft)
04.03.2024 10:26 6,2 C 6,9 C 93 % 1011,5 hPa 0,0 l/m 3,1 km/h (1 Bft) O-SO 106 0 min 0,0 UV-I 36 W/m 5,2 C 7,0 km/h (2 Bft)
04.03.2024 10:25 6,2 C 7,0 C 93 % 1011,5 hPa 0,0 l/m 5,0 km/h (1 Bft) O-SO 121 0 min 0,0 UV-I 35 W/m 5,2 C 7,0 km/h (2 Bft)
04.03.2024 10:24 6,2 C 7,0 C 93 % 1011,8 hPa 0,0 l/m 4,8 km/h (1 Bft) SO 127 0 min 0,0 UV-I 36 W/m 5,2 C 7,0 km/h (2 Bft)
04.03.2024 10:23 6,2 C 7,0 C 93 % 1011,7 hPa 0,0 l/m 3,8 km/h (1 Bft) SO 129 0 min 0,0 UV-I 37 W/m 5,2 C 7,0 km/h (2 Bft)
04.03.2024 10:22 6,2 C 6,8 C 93 % 1011,5 hPa 0,0 l/m 0,0 km/h (0 Bft) O 94 0 min 0,0 UV-I 39 W/m 5,2 C 4,0 km/h (1 Bft)
04.03.2024 10:21 6,2 C 6,9 C 93 % 1011,5 hPa 0,0 l/m 1,3 km/h (1 Bft) O 79 0 min 0,0 UV-I 40 W/m 5,2 C 4,0 km/h (1 Bft)
04.03.2024 10:20 6,2 C 6,9 C 93 % 1011,6 hPa 0,0 l/m 2,3 km/h (1 Bft) O 85 0 min 0,0 UV-I 41 W/m 5,2 C 4,0 km/h (1 Bft)
04.03.2024 10:19 6,1 C 6,8 C 93 % 1011,6 hPa 0,0 l/m 1,0 km/h (0 Bft) O 84 0 min 0,0 UV-I 41 W/m 5,1 C 4,0 km/h (1 Bft)
04.03.2024 10:18 6,1 C 6,8 C 93 % 1011,5 hPa 0,0 l/m 1,4 km/h (1 Bft) O 100 0 min 0,0 UV-I 37 W/m 5,1 C 5,0 km/h (1 Bft)
04.03.2024 10:17 6,1 C 6,7 C 93 % 1011,5 hPa 0,0 l/m 2,9 km/h (1 Bft) O 99 0 min 0,0 UV-I 36 W/m 5,1 C 5,0 km/h (1 Bft)
04.03.2024 10:16 6,1 C 6,8 C 93 % 1011,5 hPa 0,0 l/m 4,0 km/h (1 Bft) O-NO 77 0 min 0,0 UV-I 36 W/m 5,1 C 7,0 km/h (2 Bft)
04.03.2024 10:15 6,1 C 6,8 C 93 % 1011,6 hPa 0,0 l/m 3,9 km/h (1 Bft) O 98 0 min 0,0 UV-I 37 W/m 5,1 C 7,0 km/h (2 Bft)
04.03.2024 10:14 6,1 C 6,9 C 93 % 1011,6 hPa 0,0 l/m 4,5 km/h (1 Bft) O-SO 115 0 min 0,0 UV-I 39 W/m 5,1 C 7,0 km/h (2 Bft)
04.03.2024 10:13 6,1 C 6,7 C 94 % 1011,8 hPa 0,0 l/m 1,0 km/h (0 Bft) O-SO 121 0 min 0,0 UV-I 37 W/m 5,2 C 4,0 km/h (1 Bft)
04.03.2024 10:12 6,1 C 6,8 C 94 % 1011,6 hPa 0,0 l/m 0,0 km/h (0 Bft) O 91 0 min 0,0 UV-I 37 W/m 5,2 C 5,0 km/h (1 Bft)
04.03.2024 10:11 6,1 C 6,9 C 94 % 1011,6 hPa 0,0 l/m 1,6 km/h (1 Bft) O 82 0 min 0,0 UV-I 36 W/m 5,2 C 5,0 km/h (1 Bft)
04.03.2024 10:10 6,1 C 7,0 C 94 % 1011,5 hPa 0,0 l/m 3,2 km/h (1 Bft) O-SO 107 0 min 0,0 UV-I 37 W/m 5,2 C 5,0 km/h (1 Bft)
04.03.2024 10:09 6,1 C 6,9 C 94 % 1011,6 hPa 0,0 l/m 3,6 km/h (1 Bft) O-SO 108 0 min 0,0 UV-I 37 W/m 5,2 C 5,0 km/h (1 Bft)
04.03.2024 10:08 6,1 C 6,8 C 94 % 1011,6 hPa 0,0 l/m 3,6 km/h (1 Bft) O-SO 103 0 min 0,0 UV-I 37 W/m 5,2 C 5,0 km/h (1 Bft)
04.03.2024 10:07 6,1 C 7,0 C 94 % 1011,5 hPa 0,0 l/m 3,8 km/h (1 Bft) O 88 0 min 0,0 UV-I 39 W/m 5,2 C 5,0 km/h (1 Bft)
04.03.2024 10:06 6,0 C 7,0 C 94 % 1011,7 hPa 0,0 l/m 3,1 km/h (1 Bft) O 95 0 min 0,0 UV-I 40 W/m 5,1 C 5,0 km/h (1 Bft)
04.03.2024 10:05 6,0 C 6,9 C 94 % 1011,6 hPa 0,0 l/m 2,7 km/h (1 Bft) O 86 0 min 0,0 UV-I 39 W/m 5,1 C 5,0 km/h (1 Bft)
04.03.2024 10:04 6,0 C 6,8 C 94 % 1011,5 hPa 0,0 l/m 2,3 km/h (1 Bft) O-SO 108 0 min 0,0 UV-I 42 W/m 5,1 C 5,0 km/h (1 Bft)
04.03.2024 10:03 6,0 C 6,8 C 94 % 1011,4 hPa 0,0 l/m 2,5 km/h (1 Bft) O-SO 109 0 min 0,0 UV-I 44 W/m 5,1 C 5,0 km/h (1 Bft)
04.03.2024 10:02 6,0 C 6,7 C 94 % 1011,5 hPa 0,0 l/m 2,3 km/h (1 Bft) S-SO 150 0 min 0,0 UV-I 45 W/m 5,1 C 5,0 km/h (1 Bft)
04.03.2024 10:01 6,0 C 6,7 C 94 % 1011,5 hPa 0,0 l/m 3,6 km/h (1 Bft) O 92 0 min 0,0 UV-I 42 W/m 5,1 C 5,0 km/h (1 Bft)
04.03.2024 10:00 6,0 C 6,5 C 94 % 1011,3 hPa 0,0 l/m 3,1 km/h (1 Bft) O 94 0 min 0,0 UV-I 39 W/m 5,1 C 5,0 km/h (1 Bft)
04.03.2024 09:59 6,0 C 6,6 C 94 % 1011,4 hPa 0,0 l/m 2,6 km/h (1 Bft) O 84 0 min 0,0 UV-I 39 W/m 5,1 C 9,0 km/h (2 Bft)
04.03.2024 09:58 5,9 C 6,4 C 94 % 1011,4 hPa 0,0 l/m 4,2 km/h (1 Bft) O-NO 75 0 min 0,0 UV-I 37 W/m 5,0 C 9,0 km/h (2 Bft)
04.03.2024 09:57 5,9 C 6,5 C 94 % 1011,5 hPa 0,0 l/m 6,2 km/h (2 Bft) O-NO 64 0 min 0,0 UV-I 39 W/m 5,0 C 9,0 km/h (2 Bft)
04.03.2024 09:56 5,9 C 6,7 C 94 % 1011,5 hPa 0,0 l/m 4,3 km/h (1 Bft) O 84 0 min 0,0 UV-I 41 W/m 5,0 C 8,0 km/h (2 Bft)
04.03.2024 09:55 5,9 C 6,8 C 94 % 1011,2 hPa 0,0 l/m 3,1 km/h (1 Bft) O 92 0 min 0,0 UV-I 41 W/m 5,0 C 5,0 km/h (1 Bft)
04.03.2024 09:54 5,9 C 6,6 C 94 % 1011,4 hPa 0,0 l/m 2,7 km/h (1 Bft) O 95 0 min 0,0 UV-I 41 W/m 5,0 C 5,0 km/h (1 Bft)
04.03.2024 09:53 5,9 C 6,6 C 94 % 1011,4 hPa 0,0 l/m 3,6 km/h (1 Bft) O 92 0 min 0,0 UV-I 41 W/m 5,0 C 5,0 km/h (1 Bft)
04.03.2024 09:52 5,9 C 6,5 C 94 % 1011,5 hPa 0,0 l/m 2,3 km/h (1 Bft) O-NO 59 0 min 0,0 UV-I 42 W/m 5,0 C 5,0 km/h (1 Bft)
04.03.2024 09:51 5,8 C 6,6 C 94 % 1011,3 hPa 0,0 l/m 3,3 km/h (1 Bft) SO 129 0 min 0,0 UV-I 45 W/m 4,9 C 6,0 km/h (2 Bft)
04.03.2024 09:50 5,8 C 6,6 C 94 % 1011,6 hPa 0,0 l/m 3,5 km/h (1 Bft) O-SO 116 0 min 0,0 UV-I 46 W/m 4,9 C 6,0 km/h (2 Bft)
04.03.2024 09:49 5,8 C 6,7 C 94 % 1011,4 hPa 0,0 l/m 4,1 km/h (1 Bft) O-NO 75 0 min 0,0 UV-I 47 W/m 4,9 C 6,0 km/h (2 Bft)
04.03.2024 09:48 5,8 C 6,7 C 94 % 1011,5 hPa 0,0 l/m 4,2 km/h (1 Bft) O 98 0 min 0,0 UV-I 50 W/m 4,9 C 6,0 km/h (2 Bft)
04.03.2024 09:47 5,8 C 6,7 C 94 % 1011,3 hPa 0,0 l/m 2,0 km/h (1 Bft) O 95 0 min 0,0 UV-I 48 W/m 4,9 C 6,0 km/h (2 Bft)
04.03.2024 09:46 5,8 C 6,8 C 94 % 1011,4 hPa 0,0 l/m 2,0 km/h (1 Bft) O-SO 113 0 min 0,0 UV-I 48 W/m 4,9 C 6,0 km/h (2 Bft)
04.03.2024 09:45 5,7 C 6,7 C 94 % 1011,5 hPa 0,0 l/m 1,0 km/h (0 Bft) O 93 0 min 0,0 UV-I 50 W/m 4,8 C 3,0 km/h (1 Bft)
04.03.2024 09:44 5,7 C 6,7 C 94 % 1011,3 hPa 0,0 l/m 0,0 km/h (0 Bft) O 101 0 min 0,0 UV-I 50 W/m 4,8 C 5,0 km/h (1 Bft)
04.03.2024 09:43 5,7 C 6,7 C 94 % 1011,3 hPa 0,0 l/m 0,0 km/h (0 Bft) O 80 0 min 0,0 UV-I 48 W/m 4,8 C 6,0 km/h (2 Bft)
04.03.2024 09:42 5,7 C 6,7 C 94 % 1011,5 hPa 0,0 l/m 3,8 km/h (1 Bft) O 84 0 min 0,0 UV-I 55 W/m 4,8 C 6,0 km/h (2 Bft)
04.03.2024 09:41 5,6 C 6,7 C 94 % 1011,4 hPa 0,0 l/m 3,5 km/h (1 Bft) O-SO 109 0 min 0,0 UV-I 58 W/m 4,7 C 5,0 km/h (1 Bft)
04.03.2024 09:40 5,6 C 6,6 C 94 % 1011,5 hPa 0,0 l/m 2,3 km/h (1 Bft) O-NO 77 0 min 0,0 UV-I 55 W/m 4,7 C 5,0 km/h (1 Bft)
04.03.2024 09:39 5,6 C 6,6 C 95 % 1011,0 hPa 0,0 l/m 2,7 km/h (1 Bft) O 83 0 min 0,0 UV-I 51 W/m 4,9 C 5,0 km/h (1 Bft)
04.03.2024 09:38 5,6 C 6,5 C 95 % 1011,3 hPa 0,0 l/m 3,5 km/h (1 Bft) O-SO 114 0 min 0,0 UV-I 50 W/m 4,9 C 5,0 km/h (1 Bft)
04.03.2024 09:37 5,5 C 6,4 C 95 % 1011,5 hPa 0,0 l/m 3,1 km/h (1 Bft) O-SO 106 0 min 0,0 UV-I 48 W/m 4,8 C 6,0 km/h (2 Bft)
04.03.2024 09:36 5,5 C 6,3 C 95 % 1011,4 hPa 0,0 l/m 2,9 km/h (1 Bft) O-SO 106 0 min 0,0 UV-I 48 W/m 4,8 C 6,0 km/h (2 Bft)
04.03.2024 09:35 5,5 C 6,2 C 95 % 1011,3 hPa 0,0 l/m 3,8 km/h (1 Bft) O-SO 107 0 min 0,0 UV-I 51 W/m 4,8 C 5,0 km/h (1 Bft)
04.03.2024 09:34 5,5 C 6,2 C 95 % 1011,4 hPa 0,0 l/m 4,0 km/h (1 Bft) O-SO 110 0 min 0,0 UV-I 51 W/m 4,8 C 5,0 km/h (1 Bft)
04.03.2024 09:33 5,4 C 6,3 C 95 % 1011,4 hPa 0,0 l/m 2,7 km/h (1 Bft) O 89 0 min 0,0 UV-I 47 W/m 4,7 C 4,0 km/h (1 Bft)
04.03.2024 09:32 5,4 C 6,3 C 95 % 1011,2 hPa 0,0 l/m 0,0 km/h (0 Bft) O-NO 69 0 min 0,0 UV-I 37 W/m 4,7 C 5,0 km/h (1 Bft)
04.03.2024 09:31 5,4 C 6,3 C 95 % 1011,1 hPa 0,0 l/m 1,3 km/h (1 Bft) O-SO 103 0 min 0,0 UV-I 35 W/m 4,7 C 5,0 km/h (1 Bft)
04.03.2024 09:30 5,4 C 6,3 C 95 % 1011,5 hPa 0,0 l/m 3,5 km/h (1 Bft) SO 133 0 min 0,0 UV-I 37 W/m 4,7 C 5,0 km/h (1 Bft)
04.03.2024 09:29 5,4 C 6,2 C 95 % 1011,4 hPa 0,0 l/m 2,5 km/h (1 Bft) S-SO 152 0 min 0,0 UV-I 40 W/m 4,7 C 5,0 km/h (1 Bft)
04.03.2024 09:28 5,3 C 6,2 C 95 % 1011,3 hPa 0,0 l/m 1,3 km/h (1 Bft) O-SO 117 0 min 0,0 UV-I 42 W/m 4,6 C 5,0 km/h (1 Bft)
04.03.2024 09:27 5,3 C 6,2 C 95 % 1011,3 hPa 0,0 l/m 3,2 km/h (1 Bft) SO 125 0 min 0,0 UV-I 37 W/m 4,6 C 5,0 km/h (1 Bft)
04.03.2024 09:26 5,3 C 6,1 C 95 % 1011,4 hPa 0,0 l/m 3,1 km/h (1 Bft) O-SO 117 0 min 0,0 UV-I 36 W/m 4,6 C 4,0 km/h (1 Bft)
04.03.2024 09:25 5,3 C 6,1 C 95 % 1011,2 hPa 0,0 l/m 2,7 km/h (1 Bft) O-NO 68 0 min 0,0 UV-I 37 W/m 4,6 C 4,0 km/h (1 Bft)
04.03.2024 09:24 5,3 C 6,1 C 95 % 1011,3 hPa 0,0 l/m 1,0 km/h (0 Bft) O 93 0 min 0,0 UV-I 36 W/m 4,6 C 4,0 km/h (1 Bft)
04.03.2024 09:23 5,3 C 6,1 C 95 % 1011,3 hPa 0,0 l/m 0,0 km/h (0 Bft) O-SO 121 0 min 0,0 UV-I 39 W/m 4,6 C 4,0 km/h (1 Bft)
04.03.2024 09:22 5,2 C 6,0 C 95 % 1011,2 hPa 0,0 l/m 0,0 km/h (0 Bft) S 182 0 min 0,0 UV-I 40 W/m 4,5 C 5,0 km/h (1 Bft)
04.03.2024 09:21 5,2 C 5,9 C 95 % 1011,2 hPa 0,0 l/m 2,3 km/h (1 Bft) O-SO 120 0 min 0,0 UV-I 39 W/m 4,5 C 5,0 km/h (1 Bft)
04.03.2024 09:20 5,2 C 5,9 C 95 % 1011,2 hPa 0,0 l/m 1,6 km/h (1 Bft) SO 131 0 min 0,0 UV-I 40 W/m 4,5 C 5,0 km/h (1 Bft)
04.03.2024 09:19 5,2 C 5,9 C 95 % 1011,3 hPa 0,0 l/m 2,6 km/h (1 Bft) SO 137 0 min 0,0 UV-I 40 W/m 4,5 C 5,0 km/h (1 Bft)
04.03.2024 09:18 5,2 C 6,0 C 95 % 1011,1 hPa 0,0 l/m 2,5 km/h (1 Bft) O-SO 122 0 min 0,0 UV-I 39 W/m 4,5 C 5,0 km/h (1 Bft)
04.03.2024 09:17 5,1 C 6,0 C 95 % 1011,1 hPa 0,0 l/m 3,6 km/h (1 Bft) SO 142 0 min 0,0 UV-I 42 W/m 4,4 C 5,0 km/h (1 Bft)
04.03.2024 09:16 5,1 C 6,0 C 95 % 1011,3 hPa 0,0 l/m 2,3 km/h (1 Bft) O 96 0 min 0,0 UV-I 45 W/m 4,4 C 5,0 km/h (1 Bft)
04.03.2024 09:15 5,1 C 5,9 C 95 % 1011,2 hPa 0,0 l/m 3,3 km/h (1 Bft) O-SO 105 0 min 0,0 UV-I 44 W/m 4,4 C 6,0 km/h (2 Bft)
04.03.2024 09:14 5,1 C 6,0 C 95 % 1011,2 hPa 0,0 l/m 1,6 km/h (1 Bft) O-SO 105 0 min 0,0 UV-I 40 W/m 4,4 C 6,0 km/h (2 Bft)
04.03.2024 09:13 5,1 C 5,9 C 95 % 1011,1 hPa 0,0 l/m 3,5 km/h (1 Bft) O 101 0 min 0,0 UV-I 37 W/m 4,4 C 6,0 km/h (2 Bft)
04.03.2024 09:12 5,0 C 6,0 C 95 % 1011,2 hPa 0,0 l/m 2,9 km/h (1 Bft) O 94 0 min 0,0 UV-I 36 W/m 4,3 C 6,0 km/h (2 Bft)
04.03.2024 09:11 5,0 C 6,0 C 95 % 1011,2 hPa 0,0 l/m 4,3 km/h (1 Bft) O-SO 108 0 min 0,0 UV-I 37 W/m 4,3 C 6,0 km/h (2 Bft)
04.03.2024 09:10 5,0 C 5,8 C 95 % 1011,4 hPa 0,0 l/m 3,6 km/h (1 Bft) O-SO 122 0 min 0,0 UV-I 36 W/m 4,3 C 5,0 km/h (1 Bft)
04.03.2024 09:09 5,0 C 5,7 C 95 % 1011,3 hPa 0,0 l/m 2,9 km/h (1 Bft) O-SO 109 0 min 0,0 UV-I 34 W/m 4,3 C 5,0 km/h (1 Bft)
04.03.2024 09:08 5,0 C 5,8 C 95 % 1011,3 hPa 0,0 l/m 2,1 km/h (1 Bft) O-SO 123 0 min 0,0 UV-I 32 W/m 4,3 C 5,0 km/h (1 Bft)
04.03.2024 09:07 5,0 C 5,9 C 95 % 1011,0 hPa 0,0 l/m 2,5 km/h (1 Bft) O-SO 118 0 min 0,0 UV-I 30 W/m 4,3 C 5,0 km/h (1 Bft)
04.03.2024 09:06 5,0 C 5,8 C 95 % 1011,2 hPa 0,0 l/m 2,6 km/h (1 Bft) O 91 0 min 0,0 UV-I 30 W/m 4,3 C 5,0 km/h (1 Bft)
04.03.2024 09:05 4,9 C 5,8 C 95 % 1011,0 hPa 0,0 l/m 3,1 km/h (1 Bft) O 100 0 min 0,0 UV-I 31 W/m 4,2 C 4,0 km/h (1 Bft)
04.03.2024 09:04 4,9 C 5,7 C 95 % 1011,2 hPa 0,0 l/m 2,3 km/h (1 Bft) O 100 0 min 0,0 UV-I 30 W/m 4,2 C 4,0 km/h (1 Bft)
04.03.2024 09:03 4,9 C 5,8 C 95 % 1011,3 hPa 0,0 l/m 2,6 km/h (1 Bft) O 93 0 min 0,0 UV-I 29 W/m 4,2 C 4,0 km/h (1 Bft)
04.03.2024 09:02 4,9 C 5,8 C 95 % 1011,1 hPa 0,0 l/m 1,4 km/h (1 Bft) O 82 0 min 0,0 UV-I 31 W/m 4,2 C 4,0 km/h (1 Bft)
04.03.2024 09:01 4,9 C 5,7 C 95 % 1011,1 hPa 0,0 l/m 1,0 km/h (0 Bft) O 79 0 min 0,0 UV-I 35 W/m 4,2 C 4,0 km/h (1 Bft)
04.03.2024 09:00 4,9 C 5,6 C 95 % 1011,4 hPa 0,0 l/m 1,0 km/h (0 Bft) O-SO 104 0 min 0,0 UV-I 37 W/m 4,2 C 4,0 km/h (1 Bft)
04.03.2024 08:59 4,9 C 5,6 C 95 % 1011,1 hPa 0,0 l/m 0,0 km/h (0 Bft) O-SO 119 0 min 0,0 UV-I 37 W/m 4,2 C 4,0 km/h (1 Bft)
04.03.2024 08:58 4,8 C 5,5 C 96 % 1011,1 hPa 0,0 l/m 2,6 km/h (1 Bft) NO 46 0 min 0,0 UV-I 32 W/m 4,2 C 4,0 km/h (1 Bft)
04.03.2024 08:57 4,8 C 5,6 C 96 % 1011,2 hPa 0,0 l/m 2,3 km/h (1 Bft) NO 48 0 min 0,0 UV-I 29 W/m 4,2 C 5,0 km/h (1 Bft)
04.03.2024 08:56 4,8 C 5,6 C 96 % 1011,2 hPa 0,0 l/m 2,3 km/h (1 Bft) SO 125 0 min 0,0 UV-I 29 W/m 4,2 C 5,0 km/h (1 Bft)
04.03.2024 08:55 4,8 C 5,6 C 96 % 1011,2 hPa 0,0 l/m 0,0 km/h (0 Bft) NO 46 0 min 0,0 UV-I 29 W/m 4,2 C 3,0 km/h (1 Bft)
04.03.2024 08:54 4,7 C 5,7 C 96 % 1011,0 hPa 0,0 l/m 2,6 km/h (1 Bft) O-NO 74 0 min 0,0 UV-I 28 W/m 4,1 C 4,0 km/h (1 Bft)
04.03.2024 08:53 4,7 C 5,6 C 96 % 1011,2 hPa 0,0 l/m 2,6 km/h (1 Bft) O 88 0 min 0,0 UV-I 28 W/m 4,1 C 4,0 km/h (1 Bft)
04.03.2024 08:52 4,7 C 5,7 C 96 % 1011,0 hPa 0,0 l/m 2,7 km/h (1 Bft) O-NO 76 0 min 0,0 UV-I 28 W/m 4,1 C 4,0 km/h (1 Bft)
04.03.2024 08:51 4,7 C 5,6 C 96 % 1011,1 hPa 0,0 l/m 1,4 km/h (1 Bft) O 81 0 min 0,0 UV-I 29 W/m 4,1 C 4,0 km/h (1 Bft)
04.03.2024 08:50 4,7 C 5,5 C 96 % 1011,2 hPa 0,0 l/m 2,3 km/h (1 Bft) NO 53 0 min 0,0 UV-I 29 W/m 4,1 C 4,0 km/h (1 Bft)
04.03.2024 08:49 4,7 C 5,3 C 96 % 1011,1 hPa 0,0 l/m 1,0 km/h (0 Bft) NO 49 0 min 0,0 UV-I 29 W/m 4,1 C 3,0 km/h (1 Bft)
04.03.2024 08:48 4,7 C 5,5 C 96 % 1011,1 hPa 0,0 l/m 0,0 km/h (0 Bft) N-NO 26 0 min 0,0 UV-I 30 W/m 4,1 C 4,0 km/h (1 Bft)
04.03.2024 08:47 4,6 C 5,5 C 96 % 1010,9 hPa 0,0 l/m 0,0 km/h (0 Bft) NO 51 0 min 0,0 UV-I 30 W/m 4,0 C 4,0 km/h (1 Bft)
04.03.2024 08:46 4,6 C 5,5 C 96 % 1011,1 hPa 0,0 l/m 1,3 km/h (1 Bft) O-NO 60 0 min 0,0 UV-I 28 W/m 4,0 C 4,0 km/h (1 Bft)
04.03.2024 08:45 4,6 C 5,4 C 96 % 1010,9 hPa 0,0 l/m 1,3 km/h (1 Bft) NO 44 0 min 0,0 UV-I 25 W/m 4,0 C 4,0 km/h (1 Bft)
04.03.2024 08:44 4,6 C 5,5 C 96 % 1011,0 hPa 0,0 l/m 1,0 km/h (0 Bft) N-NO 16 0 min 0,0 UV-I 24 W/m 4,0 C 4,0 km/h (1 Bft)
04.03.2024 08:43 4,6 C 5,5 C 96 % 1010,9 hPa 0,0 l/m 1,4 km/h (1 Bft) N-NO 25 0 min 0,0 UV-I 23 W/m 4,0 C 4,0 km/h (1 Bft)
04.03.2024 08:42 4,6 C 5,4 C 96 % 1011,1 hPa 0,0 l/m 1,0 km/h (0 Bft) O-NO 58 0 min 0,0 UV-I 23 W/m 4,0 C 4,0 km/h (1 Bft)
04.03.2024 08:41 4,5 C 5,4 C 96 % 1011,0 hPa 0,0 l/m 0,0 km/h (0 Bft) NO 51 0 min 0,0 UV-I 23 W/m 3,9 C 3,0 km/h (1 Bft)
04.03.2024 08:40 4,5 C 5,4 C 96 % 1011,0 hPa 0,0 l/m 0,0 km/h (0 Bft) O 80 0 min 0,0 UV-I 23 W/m 3,9 C 5,0 km/h (1 Bft)
04.03.2024 08:39 4,5 C 5,4 C 96 % 1011,0 hPa 0,0 l/m 0,0 km/h (0 Bft) O-NO 69 0 min 0,0 UV-I 23 W/m 3,9 C 5,0 km/h (1 Bft)
04.03.2024 08:38 4,5 C 5,3 C 96 % 1010,9 hPa 0,0 l/m 1,0 km/h (0 Bft) O-NO 74 0 min 0,0 UV-I 24 W/m 3,9 C 5,0 km/h (1 Bft)
04.03.2024 08:37 4,4 C 5,3 C 96 % 1011,1 hPa 0,0 l/m 0,0 km/h (0 Bft) O-NO 58 0 min 0,0 UV-I 24 W/m 3,8 C 3,0 km/h (1 Bft)
04.03.2024 08:36 4,4 C 5,3 C 96 % 1010,7 hPa 0,0 l/m 0,0 km/h (0 Bft) NO 56 0 min 0,0 UV-I 24 W/m 3,8 C 3,0 km/h (1 Bft)
04.03.2024 08:35 4,4 C 5,3 C 96 % 1010,9 hPa 0,0 l/m 0,0 km/h (0 Bft) NO 53 0 min 0,0 UV-I 24 W/m 3,8 C 3,0 km/h (1 Bft)
04.03.2024 08:34 4,4 C 5,3 C 96 % 1010,8 hPa 0,0 l/m 0,0 km/h (0 Bft) O 98 0 min 0,0 UV-I 26 W/m 3,8 C 2,0 km/h (1 Bft)
04.03.2024 08:33 4,4 C 5,2 C 96 % 1010,9 hPa 0,0 l/m 0,0 km/h (0 Bft) SO 124 0 min 0,0 UV-I 25 W/m 3,8 C 2,0 km/h (1 Bft)
04.03.2024 08:32 4,4 C 5,2 C 96 % 1010,8 hPa 0,0 l/m 0,0 km/h (0 Bft) S 180 0 min 0,0 UV-I 24 W/m 3,8 C 3,0 km/h (1 Bft)
04.03.2024 08:31 4,4 C 5,2 C 96 % 1010,9 hPa 0,0 l/m 0,0 km/h (0 Bft) S-SO 165 0 min 0,0 UV-I 24 W/m 3,8 C 4,0 km/h (1 Bft)
04.03.2024 08:30 4,3 C 5,3 C 96 % 1010,7 hPa 0,0 l/m 1,3 km/h (1 Bft) SO 133 0 min 0,0 UV-I 23 W/m 3,7 C 4,0 km/h (1 Bft)
04.03.2024 08:29 4,3 C 5,2 C 96 % 1010,9 hPa 0,0 l/m 0,0 km/h (0 Bft) SO 124 0 min 0,0 UV-I 23 W/m 3,7 C 4,0 km/h (1 Bft)
04.03.2024 08:28 4,3 C 5,2 C 96 % 1010,8 hPa 0,0 l/m 2,1 km/h (1 Bft) O-SO 123 0 min 0,0 UV-I 23 W/m 3,7 C 4,0 km/h (1 Bft)
04.03.2024 08:27 4,3 C 5,3 C 96 % 1011,0 hPa 0,0 l/m 2,5 km/h (1 Bft) O-SO 117 0 min 0,0 UV-I 23 W/m 3,7 C 4,0 km/h (1 Bft)
04.03.2024 08:26 4,3 C 5,2 C 96 % 1011,1 hPa 0,0 l/m 2,9 km/h (1 Bft) O-SO 119 0 min 0,0 UV-I 23 W/m 3,7 C 4,0 km/h (1 Bft)
04.03.2024 08:25 4,3 C 5,2 C 96 % 1011,0 hPa 0,0 l/m 1,4 km/h (1 Bft) O 96 0 min 0,0 UV-I 20 W/m 3,7 C 4,0 km/h (1 Bft)
04.03.2024 08:24 4,2 C 5,2 C 96 % 1010,9 hPa 0,0 l/m 2,1 km/h (1 Bft) O 80 0 min 0,0 UV-I 19 W/m 3,6 C 4,0 km/h (1 Bft)
04.03.2024 08:23 4,2 C 5,1 C 96 % 1010,6 hPa 0,0 l/m 2,3 km/h (1 Bft) O 90 0 min 0,0 UV-I 17 W/m 3,6 C 4,0 km/h (1 Bft)
04.03.2024 08:22 4,2 C 5,2 C 96 % 1011,0 hPa 0,0 l/m 3,3 km/h (1 Bft) O 98 0 min 0,0 UV-I 17 W/m 3,6 C 4,0 km/h (1 Bft)
04.03.2024 08:21 4,2 C 5,2 C 96 % 1010,9 hPa 0,0 l/m 3,3 km/h (1 Bft) O-SO 103 0 min 0,0 UV-I 17 W/m 3,6 C 4,0 km/h (1 Bft)
04.03.2024 08:20 4,2 C 5,2 C 96 % 1010,9 hPa 0,0 l/m 2,7 km/h (1 Bft) O-SO 104 0 min 0,0 UV-I 18 W/m 3,6 C 4,0 km/h (1 Bft)
04.03.2024 08:19 4,1 C 5,2 C 96 % 1010,8 hPa 0,0 l/m 1,3 km/h (1 Bft) O-SO 114 0 min 0,0 UV-I 18 W/m 3,5 C 4,0 km/h (1 Bft)
04.03.2024 08:18 4,1 C 5,1 C 96 % 1010,8 hPa 0,0 l/m 1,4 km/h (1 Bft) SO 130 0 min 0,0 UV-I 18 W/m 3,5 C 3,0 km/h (1 Bft)
04.03.2024 08:17 4,1 C 5,1 C 96 % 1010,9 hPa 0,0 l/m 2,3 km/h (1 Bft) O 99 0 min 0,0 UV-I 17 W/m 3,5 C 4,0 km/h (1 Bft)
04.03.2024 08:16 4,1 C 5,0 C 96 % 1010,9 hPa 0,0 l/m 2,3 km/h (1 Bft) O-SO 113 0 min 0,0 UV-I 15 W/m 3,5 C 4,0 km/h (1 Bft)
04.03.2024 08:15 4,0 C 5,0 C 96 % 1010,8 hPa 0,0 l/m 0,0 km/h (0 Bft) O 101 0 min 0,0 UV-I 15 W/m 3,4 C 4,0 km/h (1 Bft)
04.03.2024 08:14 4,0 C 5,1 C 96 % 1010,7 hPa 0,0 l/m 1,0 km/h (0 Bft) O-SO 108 0 min 0,0 UV-I 17 W/m 3,4 C 4,0 km/h (1 Bft)
04.03.2024 08:13 4,0 C 5,0 C 96 % 1010,6 hPa 0,0 l/m 2,3 km/h (1 Bft) O-SO 113 0 min 0,0 UV-I 15 W/m 3,4 C 4,0 km/h (1 Bft)
04.03.2024 08:12 4,0 C 5,0 C 96 % 1010,9 hPa 0,0 l/m 1,3 km/h (1 Bft) O-SO 122 0 min 0,0 UV-I 15 W/m 3,4 C 3,0 km/h (1 Bft)
04.03.2024 08:11 4,0 C 5,0 C 96 % 1010,7 hPa 0,0 l/m 0,0 km/h (0 Bft) O-SO 116 0 min 0,0 UV-I 14 W/m 3,4 C 3,0 km/h (1 Bft)
04.03.2024 08:10 4,0 C 4,8 C 96 % 1010,7 hPa 0,0 l/m 0,0 km/h (0 Bft) O-SO 106 0 min 0,0 UV-I 12 W/m 3,4 C 4,0 km/h (1 Bft)
04.03.2024 08:09 3,9 C 4,8 C 96 % 1011,0 hPa 0,0 l/m 1,4 km/h (1 Bft) O 95 0 min 0,0 UV-I 12 W/m 3,3 C 4,0 km/h (1 Bft)
04.03.2024 08:08 3,9 C 4,9 C 96 % 1010,8 hPa 0,0 l/m 2,9 km/h (1 Bft) O-SO 102 0 min 0,0 UV-I 12 W/m 3,3 C 4,0 km/h (1 Bft)
04.03.2024 08:07 3,9 C 4,8 C 96 % 1010,6 hPa 0,0 l/m 2,3 km/h (1 Bft) O 90 0 min 0,0 UV-I 12 W/m 3,3 C 5,0 km/h (1 Bft)
04.03.2024 08:06 3,9 C 4,8 C 96 % 1010,6 hPa 0,0 l/m 1,4 km/h (1 Bft) O-SO 123 0 min 0,0 UV-I 12 W/m 3,3 C 5,0 km/h (1 Bft)
04.03.2024 08:05 3,8 C 4,8 C 96 % 1010,9 hPa 0,0 l/m 2,7 km/h (1 Bft) SO 125 0 min 0,0 UV-I 14 W/m 3,2 C 5,0 km/h (1 Bft)
04.03.2024 08:04 3,8 C 4,7 C 96 % 1010,6 hPa 0,0 l/m 2,3 km/h (1 Bft) SO 127 0 min 0,0 UV-I 13 W/m 3,2 C 3,0 km/h (1 Bft)
04.03.2024 08:03 3,8 C 4,7 C 96 % 1010,8 hPa 0,0 l/m 1,0 km/h (0 Bft) SO 124 0 min 0,0 UV-I 12 W/m 3,2 C 4,0 km/h (1 Bft)
04.03.2024 08:02 3,8 C 4,7 C 96 % 1010,7 hPa 0,0 l/m 0,0 km/h (0 Bft) O 90 0 min 0,0 UV-I 10 W/m 3,2 C 5,0 km/h (1 Bft)
04.03.2024 08:01 3,7 C 4,7 C 96 % 1010,7 hPa 0,0 l/m 3,5 km/h (1 Bft) O-SO 115 0 min 0,0 UV-I 12 W/m 3,1 C 5,0 km/h (1 Bft)
04.03.2024 08:00 3,7 C 4,7 C 96 % 1010,8 hPa 0,0 l/m 2,7 km/h (1 Bft) O-SO 120 0 min 0,0 UV-I 12 W/m 3,1 C 4,0 km/h (1 Bft)
04.03.2024 07:59 3,7 C 4,7 C 96 % 1010,7 hPa 0,0 l/m 0,0 km/h (0 Bft) O-SO 102 0 min 0,0 UV-I 9 W/m 3,1 C 4,0 km/h (1 Bft)
04.03.2024 07:58 3,7 C 4,7 C 96 % 1010,7 hPa 0,0 l/m 1,3 km/h (1 Bft) O-SO 123 0 min 0,0 UV-I 10 W/m 3,1 C 4,0 km/h (1 Bft)
04.03.2024 07:57 3,7 C 4,6 C 96 % 1010,7 hPa 0,0 l/m 0,0 km/h (0 Bft) SO 127 0 min 0,0 UV-I 9 W/m 3,1 C 3,0 km/h (1 Bft)
04.03.2024 07:56 3,6 C 4,6 C 96 % 1010,5 hPa 0,0 l/m 0,0 km/h (0 Bft) S 183 0 min 0,0 UV-I 8 W/m 3,0 C 6,0 km/h (2 Bft)
04.03.2024 07:55 3,6 C 4,6 C 96 % 1010,8 hPa 0,0 l/m 0,0 km/h (0 Bft) S-SO 160 0 min 0,0 UV-I 10 W/m 3,0 C 6,0 km/h (2 Bft)
04.03.2024 07:54 3,6 C 4,6 C 96 % 1010,6 hPa 0,0 l/m 3,6 km/h (1 Bft) SO 134 0 min 0,0 UV-I 9 W/m 3,0 C 6,0 km/h (2 Bft)
04.03.2024 07:53 3,6 C 4,5 C 96 % 1010,8 hPa 0,0 l/m 3,8 km/h (1 Bft) SO 130 0 min 0,0 UV-I 9 W/m 3,0 C 6,0 km/h (2 Bft)
04.03.2024 07:52 3,6 C 4,5 C 96 % 1010,6 hPa 0,0 l/m 2,5 km/h (1 Bft) SO 128 0 min 0,0 UV-I 8 W/m 3,0 C 4,0 km/h (1 Bft)
04.03.2024 07:51 3,6 C 4,5 C 96 % 1010,7 hPa 0,0 l/m 0,0 km/h (0 Bft) SO 124 0 min 0,0 UV-I 7 W/m 3,0 C 3,0 km/h (1 Bft)
04.03.2024 07:50 3,5 C 4,4 C 96 % 1010,5 hPa 0,0 l/m 0,0 km/h (0 Bft) O-SO 108 0 min 0,0 UV-I 7 W/m 2,9 C 3,0 km/h (1 Bft)
04.03.2024 07:49 3,5 C 4,4 C 96 % 1010,5 hPa 0,0 l/m 0,0 km/h (0 Bft) O-NO 65 0 min 0,0 UV-I 7 W/m 2,9 C 5,0 km/h (1 Bft)
04.03.2024 07:48 3,5 C 4,4 C 96 % 1010,7 hPa 0,0 l/m 0,0 km/h (0 Bft) O 98 0 min 0,0 UV-I 7 W/m 2,9 C 5,0 km/h (1 Bft)
04.03.2024 07:47 3,5 C 4,4 C 96 % 1010,6 hPa 0,0 l/m 1,3 km/h (1 Bft) O-SO 117 0 min 0,0 UV-I 7 W/m 2,9 C 5,0 km/h (1 Bft)
04.03.2024 07:46 3,5 C 4,4 C 96 % 1010,5 hPa 0,0 l/m 3,8 km/h (1 Bft) O-SO 114 0 min 0,0 UV-I 7 W/m 2,9 C 6,0 km/h (2 Bft)
04.03.2024 07:45 3,4 C 4,3 C 96 % 1010,6 hPa 0,0 l/m 2,9 km/h (1 Bft) S-SO 150 0 min 0,0 UV-I 7 W/m 2,8 C 6,0 km/h (2 Bft)
04.03.2024 07:44 3,4 C 4,3 C 96 % 1010,4 hPa 0,0 l/m 1,4 km/h (1 Bft) SO 143 0 min 0,0 UV-I 6 W/m 2,8 C 5,0 km/h (1 Bft)
04.03.2024 07:43 3,4 C 4,3 C 96 % 1010,4 hPa 0,0 l/m 2,5 km/h (1 Bft) S-SO 156 0 min 0,0 UV-I 7 W/m 2,8 C 5,0 km/h (1 Bft)
04.03.2024 07:42 3,3 C 4,2 C 96 % 1010,6 hPa 0,0 l/m 2,5 km/h (1 Bft) S-SO 158 0 min 0,0 UV-I 7 W/m 2,7 C 5,0 km/h (1 Bft)
04.03.2024 07:41 3,3 C 4,3 C 96 % 1010,4 hPa 0,0 l/m 3,5 km/h (1 Bft) SO 127 0 min 0,0 UV-I 7 W/m 2,7 C 5,0 km/h (1 Bft)
04.03.2024 07:40 3,3 C 4,2 C 95 % 1010,5 hPa 0,0 l/m 3,1 km/h (1 Bft) SO 127 0 min 0,0 UV-I 7 W/m 2,6 C 5,0 km/h (1 Bft)
04.03.2024 07:39 3,3 C 4,2 C 95 % 1010,4 hPa 0,0 l/m 3,1 km/h (1 Bft) SO 138 0 min 0,0 UV-I 7 W/m 2,6 C 5,0 km/h (1 Bft)
04.03.2024 07:38 3,3 C 4,1 C 95 % 1010,4 hPa 0,0 l/m 1,0 km/h (0 Bft) S-SO 165 0 min 0,0 UV-I 6 W/m 2,6 C 4,0 km/h (1 Bft)
04.03.2024 07:37 3,3 C 4,1 C 95 % 1010,6 hPa 0,0 l/m 1,0 km/h (0 Bft) SO 142 0 min 0,0 UV-I 6 W/m 2,6 C 4,0 km/h (1 Bft)
04.03.2024 07:36 3,3 C 4,1 C 95 % 1010,6 hPa 0,0 l/m 1,4 km/h (1 Bft) S 184 0 min 0,0 UV-I 6 W/m 2,6 C 5,0 km/h (1 Bft)
04.03.2024 07:35 3,2 C 4,0 C 95 % 1010,4 hPa 0,0 l/m 2,7 km/h (1 Bft) S 183 0 min 0,0 UV-I 6 W/m 2,5 C 5,0 km/h (1 Bft)
04.03.2024 07:34 3,2 C 4,1 C 95 % 1010,6 hPa 0,0 l/m 2,7 km/h (1 Bft) S 172 0 min 0,0 UV-I 4 W/m 2,5 C 5,0 km/h (1 Bft)
04.03.2024 07:33 3,2 C 3,9 C 95 % 1010,5 hPa 0,0 l/m 0,0 km/h (0 Bft) S-SW 210 0 min 0,0 UV-I 4 W/m 2,5 C 3,0 km/h (1 Bft)
04.03.2024 07:32 3,2 C 3,9 C 95 % 1010,4 hPa 0,0 l/m 0,0 km/h (0 Bft) O-SO 102 0 min 0,0 UV-I 4 W/m 2,5 C 6,0 km/h (2 Bft)
04.03.2024 07:31 3,2 C 3,9 C 95 % 1010,6 hPa 0,0 l/m 0,0 km/h (0 Bft) SO 136 0 min 0,0 UV-I 3 W/m 2,5 C 6,0 km/h (2 Bft)
04.03.2024 07:30 3,2 C 3,9 C 95 % 1010,5 hPa 0,0 l/m 2,9 km/h (1 Bft) O-SO 108 0 min 0,0 UV-I 3 W/m 2,5 C 7,0 km/h (2 Bft)
04.03.2024 07:29 3,2 C 3,9 C 95 % 1010,4 hPa 0,0 l/m 2,3 km/h (1 Bft) O 95 0 min 0,0 UV-I 3 W/m 2,5 C 7,0 km/h (2 Bft)
04.03.2024 07:28 3,1 C 3,8 C 95 % 1010,6 hPa 0,0 l/m 4,8 km/h (1 Bft) SO 127 0 min 0,0 UV-I 3 W/m 2,4 C 7,0 km/h (2 Bft)
04.03.2024 07:27 3,1 C 3,9 C 95 % 1010,5 hPa 0,0 l/m 2,7 km/h (1 Bft) SO 131 0 min 0,0 UV-I 3 W/m 2,4 C 5,0 km/h (1 Bft)
04.03.2024 07:26 3,1 C 3,9 C 95 % 1010,4 hPa 0,0 l/m 1,0 km/h (0 Bft) S-SO 162 0 min 0,0 UV-I 2 W/m 2,4 C 5,0 km/h (1 Bft)
04.03.2024 07:25 3,1 C 3,8 C 95 % 1010,2 hPa 0,0 l/m 1,4 km/h (1 Bft) SO 130 0 min 0,0 UV-I 2 W/m 2,4 C 5,0 km/h (1 Bft)
04.03.2024 07:24 3,1 C 3,8 C 95 % 1010,3 hPa 0,0 l/m 2,7 km/h (1 Bft) O-SO 123 0 min 0,0 UV-I 2 W/m 2,4 C 5,0 km/h (1 Bft)
04.03.2024 07:23 3,1 C 3,8 C 95 % 1010,3 hPa 0,0 l/m 2,5 km/h (1 Bft) O 97 0 min 0,0 UV-I 2 W/m 2,4 C 5,0 km/h (1 Bft)
04.03.2024 07:22 3,1 C 3,8 C 95 % 1010,4 hPa 0,0 l/m 3,6 km/h (1 Bft) O-SO 121 0 min 0,0 UV-I 2 W/m 2,4 C 5,0 km/h (1 Bft)
04.03.2024 07:21 3,0 C 3,8 C 95 % 1010,4 hPa 0,0 l/m 2,9 km/h (1 Bft) O-SO 123 0 min 0,0 UV-I 2 W/m 2,3 C 5,0 km/h (1 Bft)
04.03.2024 07:20 3,1 C 3,8 C 95 % 1010,2 hPa 0,0 l/m 2,5 km/h (1 Bft) SO 127 0 min 0,0 UV-I 2 W/m 2,4 C 8,0 km/h (2 Bft)
04.03.2024 07:19 3,0 C 3,7 C 95 % 1010,1 hPa 0,0 l/m 3,6 km/h (1 Bft) SO 138 0 min 0,0 UV-I 2 W/m 2,3 C 8,0 km/h (2 Bft)
04.03.2024 07:18 3,0 C 3,7 C 95 % 1010,3 hPa 0,0 l/m 4,3 km/h (1 Bft) SO 143 0 min 0,0 UV-I 1 W/m 2,3 C 8,0 km/h (2 Bft)
04.03.2024 07:17 3,0 C 3,6 C 95 % 1010,0 hPa 0,0 l/m 3,5 km/h (1 Bft) SO 127 0 min 0,0 UV-I 1 W/m 2,3 C 6,0 km/h (2 Bft)
04.03.2024 07:16 3,0 C 3,6 C 95 % 1010,1 hPa 0,0 l/m 3,9 km/h (1 Bft) SO 131 0 min 0,0 UV-I 1 W/m 2,3 C 6,0 km/h (2 Bft)
04.03.2024 07:15 3,0 C 3,6 C 95 % 1010,1 hPa 0,0 l/m 3,8 km/h (1 Bft) SO 131 0 min 0,0 UV-I 2 W/m 2,3 C 6,0 km/h (2 Bft)
04.03.2024 07:14 3,0 C 3,6 C 95 % 1010,1 hPa 0,0 l/m 3,1 km/h (1 Bft) SO 138 0 min 0,0 UV-I 1 W/m 2,3 C 6,0 km/h (2 Bft)
04.03.2024 07:13 3,0 C 3,6 C 95 % 1010,3 hPa 0,0 l/m 3,2 km/h (1 Bft) S 172 0 min 0,0 UV-I 1 W/m 2,3 C 6,0 km/h (2 Bft)
04.03.2024 07:12 3,0 C 3,6 C 95 % 1010,2 hPa 0,0 l/m 3,8 km/h (1 Bft) S 173 0 min 0,0 UV-I 0 W/m 2,3 C 6,0 km/h (2 Bft)
04.03.2024 07:11 3,0 C 3,7 C 95 % 1010,2 hPa 0,0 l/m 2,7 km/h (1 Bft) S-SO 158 0 min 0,0 UV-I 0 W/m 2,3 C 5,0 km/h (1 Bft)
04.03.2024 07:10 3,0 C 3,6 C 95 % 1010,2 hPa 0,0 l/m 1,0 km/h (0 Bft) SO 131 0 min 0,0 UV-I 1 W/m 2,3 C 6,0 km/h (2 Bft)
04.03.2024 07:09 3,0 C 3,6 C 95 % 1010,1 hPa 0,0 l/m 2,9 km/h (1 Bft) S-SO 148 0 min 0,0 UV-I 0 W/m 2,3 C 6,0 km/h (2 Bft)
04.03.2024 07:08 3,0 C 3,6 C 95 % 1010,2 hPa 0,0 l/m 3,1 km/h (1 Bft) O-SO 110 0 min 0,0 UV-I 0 W/m 2,3 C 9,0 km/h (2 Bft)
04.03.2024 07:07 3,0 C 3,6 C 95 % 1010,1 hPa 0,0 l/m 3,6 km/h (1 Bft) O-SO 103 0 min 0,0 UV-I 0 W/m 2,3 C 9,0 km/h (2 Bft)
04.03.2024 07:06 3,0 C 3,7 C 95 % 1010,0 hPa 0,0 l/m 4,1 km/h (1 Bft) O-SO 115 0 min 0,0 UV-I 0 W/m 2,3 C 9,0 km/h (2 Bft)
04.03.2024 07:05 3,0 C 3,6 C 95 % 1010,2 hPa 0,0 l/m 5,1 km/h (1 Bft) O-SO 122 0 min 0,0 UV-I 0 W/m 2,3 C 9,0 km/h (2 Bft)
04.03.2024 07:04 3,0 C 3,7 C 95 % 1010,1 hPa 0,0 l/m 4,3 km/h (1 Bft) SO 125 0 min 0,0 UV-I 0 W/m 2,3 C 8,0 km/h (2 Bft)
04.03.2024 07:03 3,0 C 3,7 C 95 % 1009,9 hPa 0,0 l/m 5,4 km/h (1 Bft) SO 126 0 min 0,0 UV-I 0 W/m 2,3 C 7,0 km/h (2 Bft)
04.03.2024 07:02 3,0 C 3,6 C 95 % 1010,0 hPa 0,0 l/m 4,7 km/h (1 Bft) SO 132 0 min 0,0 UV-I 0 W/m 2,3 C 6,0 km/h (2 Bft)
04.03.2024 07:01 3,0 C 3,7 C 95 % 1010,0 hPa 0,0 l/m 3,2 km/h (1 Bft) SO 133 0 min 0,0 UV-I 0 W/m 2,3 C 6,0 km/h (2 Bft)
04.03.2024 07:00 3,0 C 3,7 C 95 % 1010,0 hPa 0,0 l/m 1,6 km/h (1 Bft) SO 133 0 min 0,0 UV-I 0 W/m 2,3 C 9,0 km/h (2 Bft)
04.03.2024 06:59 3,0 C 3,7 C 95 % 1010,0 hPa 0,0 l/m 3,8 km/h (1 Bft) SO 132 0 min 0,0 UV-I 0 W/m 2,3 C 9,0 km/h (2 Bft)
04.03.2024 06:58 3,0 C 3,7 C 95 % 1009,8 hPa 0,0 l/m 5,2 km/h (1 Bft) SO 124 0 min 0,0 UV-I 0 W/m 2,3 C 9,0 km/h (2 Bft)
04.03.2024 06:57 3,0 C 3,7 C 95 % 1010,0 hPa 0,0 l/m 5,4 km/h (1 Bft) O-SO 122 0 min 0,0 UV-I 0 W/m 2,3 C 9,0 km/h (2 Bft)
04.03.2024 06:56 3,0 C 3,7 C 95 % 1010,1 hPa 0,0 l/m 3,8 km/h (1 Bft) SO 128 0 min 0,0 UV-I 0 W/m 2,3 C 7,0 km/h (2 Bft)
04.03.2024 06:55 3,0 C 3,8 C 95 % 1010,0 hPa 0,0 l/m 2,7 km/h (1 Bft) SO 127 0 min 0,0 UV-I 0 W/m 2,3 C 4,0 km/h (1 Bft)
04.03.2024 06:54 2,9 C 3,8 C 95 % 1010,0 hPa 0,0 l/m 2,0 km/h (1 Bft) SO 131 0 min 0,0 UV-I 0 W/m 2,2 C 4,0 km/h (1 Bft)
04.03.2024 06:53 2,9 C 3,7 C 95 % 1009,9 hPa 0,0 l/m 0,0 km/h (0 Bft) O 100 0 min 0,0 UV-I 0 W/m 2,2 C 5,0 km/h (1 Bft)
04.03.2024 06:52 2,9 C 3,8 C 95 % 1009,9 hPa 0,0 l/m 1,6 km/h (1 Bft) O 89 0 min 0,0 UV-I 0 W/m 2,2 C 5,0 km/h (1 Bft)
04.03.2024 06:51 2,9 C 3,8 C 95 % 1009,8 hPa 0,0 l/m 2,0 km/h (1 Bft) O 94 0 min 0,0 UV-I 0 W/m 2,2 C 5,0 km/h (1 Bft)
04.03.2024 06:50 2,9 C 3,8 C 95 % 1009,8 hPa 0,0 l/m 4,3 km/h (1 Bft) O-SO 106 0 min 0,0 UV-I 0 W/m 2,2 C 6,0 km/h (2 Bft)
04.03.2024 06:49 2,9 C 3,8 C 95 % 1009,9 hPa 0,0 l/m 3,8 km/h (1 Bft) O-SO 105 0 min 0,0 UV-I 0 W/m 2,2 C 6,0 km/h (2 Bft)
04.03.2024 06:48 2,8 C 3,7 C 95 % 1010,0 hPa 0,0 l/m 4,5 km/h (1 Bft) O-SO 103 0 min 0,0 UV-I 0 W/m 2,1 C 6,0 km/h (2 Bft)
04.03.2024 06:47 2,8 C 3,8 C 95 % 1009,9 hPa 0,0 l/m 4,7 km/h (1 Bft) O-SO 105 0 min 0,0 UV-I 0 W/m 2,1 C 6,0 km/h (2 Bft)
04.03.2024 06:46 2,8 C 3,8 C 95 % 1009,7 hPa 0,0 l/m 4,3 km/h (1 Bft) O 92 0 min 0,0 UV-I 0 W/m 2,1 C 8,0 km/h (2 Bft)
04.03.2024 06:45 2,8 C 3,8 C 95 % 1010,0 hPa 0,0 l/m 5,4 km/h (1 Bft) O 89 0 min 0,0 UV-I 0 W/m 2,1 C 8,0 km/h (2 Bft)
04.03.2024 06:44 2,7 C 3,7 C 95 % 1009,7 hPa 0,0 l/m 6,9 km/h (2 Bft) O 100 0 min 0,0 UV-I 0 W/m 2,0 C 8,0 km/h (2 Bft)
04.03.2024 06:43 2,7 C 3,7 C 95 % 1009,8 hPa 0,0 l/m 5,5 km/h (1 Bft) O 97 0 min 0,0 UV-I 0 W/m 2,0 C 8,0 km/h (2 Bft)
04.03.2024 06:42 2,6 C 3,7 C 95 % 1009,7 hPa 0,0 l/m 4,5 km/h (1 Bft) O-SO 105 0 min 0,0 UV-I 0 W/m 1,9 C 9,0 km/h (2 Bft)
04.03.2024 06:41 2,6 C 3,7 C 95 % 1009,4 hPa 0,0 l/m 6,0 km/h (2 Bft) O 94 0 min 0,0 UV-I 0 W/m 1,9 C 9,0 km/h (2 Bft)
04.03.2024 06:40 2,5 C 3,7 C 95 % 1009,5 hPa 0,0 l/m 5,8 km/h (2 Bft) O 96 0 min 0,0 UV-I 0 W/m 1,8 C 9,0 km/h (2 Bft)
04.03.2024 06:39 2,5 C 3,8 C 95 % 1009,7 hPa 0,0 l/m 5,1 km/h (1 Bft) O 91 0 min 0,0 UV-I 0 W/m 1,8 C 7,0 km/h (2 Bft)
04.03.2024 06:38 2,4 C 3,7 C 95 % 1009,5 hPa 0,0 l/m 4,2 km/h (1 Bft) O 92 0 min 0,0 UV-I 0 W/m 1,7 C 7,0 km/h (2 Bft)
04.03.2024 06:37 2,4 C 3,7 C 95 % 1009,4 hPa 0,0 l/m 5,8 km/h (2 Bft) O-SO 105 0 min 0,0 UV-I 0 W/m 1,7 C 7,0 km/h (2 Bft)
04.03.2024 06:36 2,3 C 3,7 C 95 % 1009,3 hPa 0,0 l/m 4,7 km/h (1 Bft) O 99 0 min 0,0 UV-I 0 W/m 1,6 C 9,0 km/h (2 Bft)
04.03.2024 06:35 2,3 C 3,7 C 95 % 1009,6 hPa 0,0 l/m 4,7 km/h (1 Bft) O-SO 103 0 min 0,0 UV-I 0 W/m 1,6 C 9,0 km/h (2 Bft)
04.03.2024 06:34 2,2 C 3,6 C 95 % 1009,5 hPa 0,0 l/m 5,8 km/h (2 Bft) O 86 0 min 0,0 UV-I 0 W/m 1,5 C 9,0 km/h (2 Bft)
04.03.2024 06:33 2,2 C 3,5 C 95 % 1009,6 hPa 0,0 l/m 6,3 km/h (2 Bft) O 88 0 min 0,0 UV-I 0 W/m 1,5 C 9,0 km/h (2 Bft)
04.03.2024 06:32 2,1 C 3,4 C 95 % 1009,3 hPa 0,0 l/m 5,5 km/h (1 Bft) O 87 0 min 0,0 UV-I 0 W/m 1,4 C 9,0 km/h (2 Bft)
04.03.2024 06:31 2,0 C 3,3 C 95 % 1009,4 hPa 0,0 l/m 3,6 km/h (1 Bft) O 100 0 min 0,0 UV-I 0 W/m 1,3 C 7,0 km/h (2 Bft)
04.03.2024 06:30 2,0 C 3,2 C 95 % 1009,4 hPa 0,0 l/m 1,4 km/h (1 Bft) O-NO 74 0 min 0,0 UV-I 0 W/m 1,3 C 5,0 km/h (1 Bft)
04.03.2024 06:29 1,9 C 3,1 C 95 % 1009,5 hPa 0,0 l/m 1,0 km/h (0 Bft) O-NO 78 0 min 0,0 UV-I 0 W/m 1,2 C 3,0 km/h (1 Bft)
04.03.2024 06:28 1,9 C 3,0 C 95 % 1009,5 hPa 0,0 l/m 0,0 km/h (0 Bft) O 90 0 min 0,0 UV-I 0 W/m 1,2 C 3,0 km/h (1 Bft)
04.03.2024 06:27 1,8 C 3,0 C 95 % 1009,5 hPa 0,0 l/m 1,0 km/h (0 Bft) O 93 0 min 0,0 UV-I 0 W/m 1,1 C 3,0 km/h (1 Bft)
04.03.2024 06:26 1,8 C 2,8 C 95 % 1009,3 hPa 0,0 l/m 0,0 km/h (0 Bft) W-SW 237 0 min 0,0 UV-I 0 W/m 1,1 C 5,0 km/h (1 Bft)
04.03.2024 06:25 1,7 C 2,7 C 95 % 1009,2 hPa 0,0 l/m 0,0 km/h (0 Bft) O-NO 73 0 min 0,0 UV-I 0 W/m 1,0 C 5,0 km/h (1 Bft)
04.03.2024 06:24 1,7 C 2,5 C 95 % 1009,0 hPa 0,0 l/m 3,8 km/h (1 Bft) O-SO 103 0 min 0,0 UV-I 0 W/m 1,0 C 7,0 km/h (2 Bft)
04.03.2024 06:23 1,7 C 2,5 C 95 % 1009,0 hPa 0,0 l/m 2,7 km/h (1 Bft) O-NO 74 0 min 0,0 UV-I 0 W/m 1,0 C 7,0 km/h (2 Bft)
04.03.2024 06:22 1,6 C 2,5 C 95 % 1009,3 hPa 0,0 l/m 2,9 km/h (1 Bft) N-NO 32 0 min 0,0 UV-I 0 W/m 0,9 C 7,0 km/h (2 Bft)
04.03.2024 06:21 1,6 C 2,4 C 95 % 1009,1 hPa 0,0 l/m 4,2 km/h (1 Bft) O 98 0 min 0,0 UV-I 0 W/m 0,9 C 5,0 km/h (1 Bft)
04.03.2024 06:20 1,6 C 2,3 C 95 % 1009,0 hPa 0,0 l/m 2,1 km/h (1 Bft) O-NO 63 0 min 0,0 UV-I 0 W/m 0,9 C 5,0 km/h (1 Bft)
04.03.2024 06:19 1,6 C 2,3 C 95 % 1009,1 hPa 0,0 l/m 2,1 km/h (1 Bft) NO 49 0 min 0,0 UV-I 0 W/m 0,9 C 5,0 km/h (1 Bft)
04.03.2024 06:18 1,6 C 2,2 C 95 % 1009,3 hPa 0,0 l/m 3,1 km/h (1 Bft) O 92 0 min 0,0 UV-I 0 W/m 0,9 C 5,0 km/h (1 Bft)
04.03.2024 06:17 1,6 C 2,2 C 94 % 1009,1 hPa 0,0 l/m 3,1 km/h (1 Bft) O 101 0 min 0,0 UV-I 0 W/m 0,7 C 7,0 km/h (2 Bft)
04.03.2024 06:16 1,5 C 2,1 C 94 % 1008,8 hPa 0,0 l/m 4,2 km/h (1 Bft) O 90 0 min 0,0 UV-I 0 W/m 0,6 C 7,0 km/h (2 Bft)
04.03.2024 06:15 1,5 C 2,0 C 94 % 1009,1 hPa 0,0 l/m 5,0 km/h (1 Bft) O-SO 111 0 min 0,0 UV-I 0 W/m 0,6 C 6,0 km/h (2 Bft)
04.03.2024 06:14 1,5 C 2,1 C 94 % 1009,2 hPa 0,0 l/m 3,5 km/h (1 Bft) O 87 0 min 0,0 UV-I 0 W/m 0,6 C 5,0 km/h (1 Bft)
04.03.2024 06:13 1,4 C 2,0 C 94 % 1009,1 hPa 0,0 l/m 0,0 km/h (0 Bft) O 86 0 min 0,0 UV-I 0 W/m 0,5 C 7,0 km/h (2 Bft)
04.03.2024 06:12 1,4 C 2,0 C 94 % 1008,9 hPa 0,0 l/m 2,9 km/h (1 Bft) O-NO 61 0 min 0,0 UV-I 0 W/m 0,5 C 7,0 km/h (2 Bft)
04.03.2024 06:11 1,3 C 2,0 C 94 % 1009,1 hPa 0,0 l/m 3,6 km/h (1 Bft) O-NO 59 0 min 0,0 UV-I 0 W/m 0,4 C 7,0 km/h (2 Bft)
04.03.2024 06:10 1,3 C 1,8 C 94 % 1009,1 hPa 0,0 l/m 1,0 km/h (0 Bft) O 91 0 min 0,0 UV-I 0 W/m 0,4 C 4,0 km/h (1 Bft)
04.03.2024 06:09 1,3 C 1,6 C 94 % 1009,1 hPa 0,0 l/m 0,0 km/h (0 Bft) O 88 0 min 0,0 UV-I 0 W/m 0,4 C 4,0 km/h (1 Bft)
04.03.2024 06:08 1,3 C 1,6 C 94 % 1009,2 hPa 0,0 l/m 0,0 km/h (0 Bft) O-SO 119 0 min 0,0 UV-I 0 W/m 0,4 C 5,0 km/h (1 Bft)
04.03.2024 06:07 1,2 C 1,6 C 94 % 1009,2 hPa 0,0 l/m 1,3 km/h (1 Bft) S-SO 150 0 min 0,0 UV-I 0 W/m 0,3 C 5,0 km/h (1 Bft)
04.03.2024 06:06 1,2 C 1,6 C 94 % 1009,2 hPa 0,0 l/m 1,8 km/h (1 Bft) O-SO 109 0 min 0,0 UV-I 0 W/m 0,3 C 4,0 km/h (1 Bft)
04.03.2024 06:05 1,2 C 1,7 C 94 % 1009,0 hPa 0,0 l/m 1,3 km/h (1 Bft) O 96 0 min 0,0 UV-I 0 W/m 0,3 C 5,0 km/h (1 Bft)
04.03.2024 06:04 1,1 C 1,5 C 94 % 1009,2 hPa 0,0 l/m 0,0 km/h (0 Bft) S-SO 156 0 min 0,0 UV-I 0 W/m 0,2 C 5,0 km/h (1 Bft)
04.03.2024 06:03 1,1 C 1,5 C 94 % 1009,1 hPa 0,0 l/m 1,6 km/h (1 Bft) SO 145 0 min 0,0 UV-I 0 W/m 0,2 C 5,0 km/h (1 Bft)
04.03.2024 06:02 1,1 C 1,3 C 94 % 1009,3 hPa 0,0 l/m 3,1 km/h (1 Bft) O 84 0 min 0,0 UV-I 0 W/m 0,2 C 4,0 km/h (1 Bft)
04.03.2024 06:01 1,1 C 1,3 C 94 % 1009,1 hPa 0,0 l/m 0,0 km/h (0 Bft) O 92 0 min 0,0 UV-I 0 W/m 0,2 C 4,0 km/h (1 Bft)
04.03.2024 06:00 1,1 C 1,2 C 94 % 1009,4 hPa 0,0 l/m 1,6 km/h (1 Bft) S-SO 148 0 min 0,0 UV-I 0 W/m 0,2 C 7,0 km/h (2 Bft)
04.03.2024 05:59 1,1 C 1,2 C 94 % 1009,2 hPa 0,0 l/m 2,2 km/h (1 Bft) NO 35 0 min 0,0 UV-I 0 W/m 0,2 C 7,0 km/h (2 Bft)
04.03.2024 05:58 1,1 C 1,2 C 94 % 1009,2 hPa 0,0 l/m 2,7 km/h (1 Bft) O-SO 111 0 min 0,0 UV-I 0 W/m 0,2 C 5,0 km/h (1 Bft)
04.03.2024 05:57 1,1 C 1,0 C 94 % 1008,9 hPa 0,0 l/m 1,0 km/h (0 Bft) NO 46 0 min 0,0 UV-I 0 W/m 0,2 C 5,0 km/h (1 Bft)
04.03.2024 05:56 1,1 C 0,7 C 94 % 1009,2 hPa 0,0 l/m 3,2 km/h (1 Bft) NO 41 0 min 0,0 UV-I 0 W/m 0,2 C 5,0 km/h (1 Bft)
04.03.2024 05:55 1,1 C 0,7 C 94 % 1009,0 hPa 0,0 l/m 3,8 km/h (1 Bft) O-NO 65 0 min 0,0 UV-I 0 W/m 0,2 C 5,0 km/h (1 Bft)
04.03.2024 05:54 1,1 C 0,7 C 94 % 1008,8 hPa 0,0 l/m 0,0 km/h (0 Bft) O 98 0 min 0,0 UV-I 0 W/m 0,2 C 5,0 km/h (1 Bft)
04.03.2024 05:53 1,1 C 0,7 C 94 % 1009,2 hPa 0,0 l/m 2,5 km/h (1 Bft) O 96 0 min 0,0 UV-I 0 W/m 0,2 C 5,0 km/h (1 Bft)
04.03.2024 05:52 1,1 C 0,7 C 94 % 1009,1 hPa 0,0 l/m 1,3 km/h (1 Bft) O-SO 121 0 min 0,0 UV-I 0 W/m 0,2 C 5,0 km/h (1 Bft)
04.03.2024 05:51 1,1 C 0,4 C 94 % 1009,0 hPa 0,0 l/m 3,6 km/h (1 Bft) O-SO 102 0 min 0,0 UV-I 0 W/m 0,2 C 5,0 km/h (1 Bft)
04.03.2024 05:50 1,1 C 0,2 C 94 % 1009,0 hPa 0,0 l/m 2,9 km/h (1 Bft) O-SO 104 0 min 0,0 UV-I 0 W/m 0,2 C 5,0 km/h (1 Bft)
04.03.2024 05:49 1,1 C -0,1 C 94 % 1009,2 hPa 0,0 l/m 2,6 km/h (1 Bft) O 98 0 min 0,0 UV-I 0 W/m 0,2 C 5,0 km/h (1 Bft)
04.03.2024 05:48 1,2 C -0,1 C 94 % 1008,9 hPa 0,0 l/m 3,1 km/h (1 Bft) O-NO 75 0 min 0,0 UV-I 0 W/m 0,3 C 5,0 km/h (1 Bft)
04.03.2024 05:47 1,2 C -0,1 C 94 % 1008,8 hPa 0,0 l/m 1,4 km/h (1 Bft) O-SO 103 0 min 0,0 UV-I 0 W/m 0,3 C 3,0 km/h (1 Bft)
04.03.2024 05:46 1,2 C 0,2 C 94 % 1008,9 hPa 0,0 l/m 1,0 km/h (0 Bft) O 99 0 min 0,0 UV-I 0 W/m 0,3 C 4,0 km/h (1 Bft)
04.03.2024 05:45 1,2 C 0,2 C 94 % 1009,0 hPa 0,0 l/m 2,7 km/h (1 Bft) SO 125 0 min 0,0 UV-I 0 W/m 0,3 C 6,0 km/h (2 Bft)
04.03.2024 05:44 1,2 C 0,1 C 94 % 1009,1 hPa 0,0 l/m 2,9 km/h (1 Bft) O-SO 110 0 min 0,0 UV-I 0 W/m 0,3 C 6,0 km/h (2 Bft)
04.03.2024 05:43 1,2 C 0,1 C 94 % 1008,9 hPa 0,0 l/m 3,5 km/h (1 Bft) O 101 0 min 0,0 UV-I 0 W/m 0,3 C 5,0 km/h (1 Bft)
04.03.2024 05:42 1,2 C 0,0 C 94 % 1008,9 hPa 0,0 l/m 2,9 km/h (1 Bft) O-SO 109 0 min 0,0 UV-I 0 W/m 0,3 C 4,0 km/h (1 Bft)
04.03.2024 05:41 1,2 C 0,1 C 94 % 1008,9 hPa 0,0 l/m 0,0 km/h (0 Bft) S-SO 147 0 min 0,0 UV-I 0 W/m 0,3 C 3,0 km/h (1 Bft)
04.03.2024 05:40 1,2 C 0,2 C 94 % 1009,0 hPa 0,0 l/m 1,0 km/h (0 Bft) SO 137 0 min 0,0 UV-I 0 W/m 0,3 C 5,0 km/h (1 Bft)
04.03.2024 05:39 1,1 C 0,6 C 94 % 1008,8 hPa 0,0 l/m 1,0 km/h (0 Bft) SO 124 0 min 0,0 UV-I 0 W/m 0,2 C 5,0 km/h (1 Bft)
04.03.2024 05:38 1,2 C 0,6 C 94 % 1008,7 hPa 0,0 l/m 0,0 km/h (0 Bft) O 89 0 min 0,0 UV-I 0 W/m 0,3 C 5,0 km/h (1 Bft)
04.03.2024 05:37 1,1 C 0,7 C 94 % 1008,9 hPa 0,0 l/m 3,6 km/h (1 Bft) O 93 0 min 0,0 UV-I 0 W/m 0,2 C 5,0 km/h (1 Bft)
04.03.2024 05:36 1,1 C 0,6 C 93 % 1009,0 hPa 0,0 l/m 2,1 km/h (1 Bft) O-NO 75 0 min 0,0 UV-I 0 W/m 0,1 C 6,0 km/h (2 Bft)
04.03.2024 05:35 1,1 C 0,3 C 94 % 1008,8 hPa 0,0 l/m 3,1 km/h (1 Bft) N-NO 27 0 min 0,0 UV-I 0 W/m 0,2 C 6,0 km/h (2 Bft)
04.03.2024 05:34 1,1 C -0,2 C 94 % 1008,7 hPa 0,0 l/m 4,5 km/h (1 Bft) O 95 0 min 0,0 UV-I 0 W/m 0,2 C 6,0 km/h (2 Bft)
04.03.2024 05:33 1,1 C 0,1 C 93 % 1008,9 hPa 0,0 l/m 1,0 km/h (0 Bft) SO 133 0 min 0,0 UV-I 0 W/m 0,1 C 4,0 km/h (1 Bft)
04.03.2024 05:32 1,2 C -0,1 C 93 % 1008,9 hPa 0,0 l/m 0,0 km/h (0 Bft) S 188 0 min 0,0 UV-I 0 W/m 0,2 C 4,0 km/h (1 Bft)
04.03.2024 05:31 1,2 C -0,1 C 93 % 1008,5 hPa 0,0 l/m 1,0 km/h (0 Bft) SO 125 0 min 0,0 UV-I 0 W/m 0,2 C 4,0 km/h (1 Bft)
04.03.2024 05:30 1,1 C -0,3 C 93 % 1008,8 hPa 0,0 l/m 2,5 km/h (1 Bft) O 86 0 min 0,0 UV-I 0 W/m 0,1 C 4,0 km/h (1 Bft)
04.03.2024 05:29 1,2 C 0,0 C 94 % 1008,9 hPa 0,0 l/m 2,5 km/h (1 Bft) O 101 0 min 0,0 UV-I 0 W/m 0,3 C 5,0 km/h (1 Bft)
04.03.2024 05:28 1,2 C -0,2 C 93 % 1008,8 hPa 0,0 l/m 2,1 km/h (1 Bft) O 95 0 min 0,0 UV-I 0 W/m 0,2 C 5,0 km/h (1 Bft)
04.03.2024 05:27 1,2 C -0,5 C 93 % 1008,8 hPa 0,0 l/m 2,6 km/h (1 Bft) O 101 0 min 0,0 UV-I 0 W/m 0,2 C 5,0 km/h (1 Bft)
04.03.2024 05:26 1,2 C -0,1 C 93 % 1008,9 hPa 0,0 l/m 1,0 km/h (0 Bft) O 87 0 min 0,0 UV-I 0 W/m 0,2 C 4,0 km/h (1 Bft)
04.03.2024 05:25 1,2 C -0,2 C 93 % 1008,7 hPa 0,0 l/m 1,3 km/h (1 Bft) O-NO 74 0 min 0,0 UV-I 0 W/m 0,2 C 4,0 km/h (1 Bft)
04.03.2024 05:24 1,2 C 0,2 C 93 % 1009,0 hPa 0,0 l/m 2,1 km/h (1 Bft) O-NO 64 0 min 0,0 UV-I 0 W/m 0,2 C 4,0 km/h (1 Bft)
04.03.2024 05:23 1,2 C -0,5 C 93 % 1008,8 hPa 0,0 l/m 2,1 km/h (1 Bft) O-NO 65 0 min 0,0 UV-I 0 W/m 0,2 C 4,0 km/h (1 Bft)
04.03.2024 05:22 1,2 C -0,7 C 93 % 1008,8 hPa 0,0 l/m 2,9 km/h (1 Bft) O-NO 77 0 min 0,0 UV-I 0 W/m 0,2 C 4,0 km/h (1 Bft)
04.03.2024 05:21 1,2 C -0,6 C 93 % 1008,5 hPa 0,0 l/m 0,0 km/h (0 Bft) O 83 0 min 0,0 UV-I 0 W/m 0,2 C 3,0 km/h (1 Bft)
04.03.2024 05:20 1,2 C -0,4 C 93 % 1008,7 hPa 0,0 l/m 0,0 km/h (0 Bft) O 97 0 min 0,0 UV-I 0 W/m 0,2 C 4,0 km/h (1 Bft)
04.03.2024 05:19 1,2 C -0,3 C 93 % 1008,7 hPa 0,0 l/m 0,0 km/h (0 Bft) O 96 0 min 0,0 UV-I 0 W/m 0,2 C 4,0 km/h (1 Bft)
04.03.2024 05:18 1,3 C -0,3 C 93 % 1008,6 hPa 0,0 l/m 0,0 km/h (0 Bft) O-NO 74 0 min 0,0 UV-I 0 W/m 0,3 C 3,0 km/h (1 Bft)
04.03.2024 05:17 1,2 C -0,4 C 93 % 1008,7 hPa 0,0 l/m 1,0 km/h (0 Bft) O-NO 66 0 min 0,0 UV-I 0 W/m 0,2 C 3,0 km/h (1 Bft)
04.03.2024 05:16 1,3 C -0,2 C 93 % 1008,4 hPa 0,0 l/m 1,0 km/h (0 Bft) O 81 0 min 0,0 UV-I 0 W/m 0,3 C 3,0 km/h (1 Bft)
04.03.2024 05:15 1,3 C -0,4 C 93 % 1008,7 hPa 0,0 l/m 2,1 km/h (1 Bft) O 88 0 min 0,0 UV-I 0 W/m 0,3 C 3,0 km/h (1 Bft)
04.03.2024 05:14 1,3 C -0,3 C 93 % 1008,6 hPa 0,0 l/m 0,0 km/h (0 Bft) O 81 0 min 0,0 UV-I 0 W/m 0,3 C 3,0 km/h (1 Bft)
04.03.2024 05:13 1,3 C 0,1 C 93 % 1008,5 hPa 0,0 l/m 1,3 km/h (1 Bft) O 80 0 min 0,0 UV-I 0 W/m 0,3 C 3,0 km/h (1 Bft)
04.03.2024 05:12 1,3 C 0,1 C 93 % 1008,6 hPa 0,0 l/m 0,0 km/h (0 Bft) O 94 0 min 0,0 UV-I 0 W/m 0,3 C 3,0 km/h (1 Bft)
04.03.2024 05:11 1,3 C -0,2 C 93 % 1008,4 hPa 0,0 l/m 0,0 km/h (0 Bft) O-NO 57 0 min 0,0 UV-I 0 W/m 0,3 C 4,0 km/h (1 Bft)
04.03.2024 05:10 1,3 C -0,1 C 93 % 1008,5 hPa 0,0 l/m 1,0 km/h (0 Bft) O 85 0 min 0,0 UV-I 0 W/m 0,3 C 4,0 km/h (1 Bft)
04.03.2024 05:09 1,3 C 0,4 C 93 % 1008,3 hPa 0,0 l/m 2,3 km/h (1 Bft) O-NO 66 0 min 0,0 UV-I 0 W/m 0,3 C 4,0 km/h (1 Bft)
04.03.2024 05:08 1,3 C 0,0 C 93 % 1008,3 hPa 0,0 l/m 0,0 km/h (0 Bft) O 99 0 min 0,0 UV-I 0 W/m 0,3 C 3,0 km/h (1 Bft)
04.03.2024 05:07 1,3 C 0,0 C 93 % 1008,2 hPa 0,0 l/m 1,0 km/h (0 Bft) O 87 0 min 0,0 UV-I 0 W/m 0,3 C 3,0 km/h (1 Bft)
04.03.2024 05:06 1,3 C -0,3 C 93 % 1008,4 hPa 0,0 l/m 1,0 km/h (0 Bft) O-SO 105 0 min 0,0 UV-I 0 W/m 0,3 C 3,0 km/h (1 Bft)
04.03.2024 05:05 1,3 C -0,4 C 93 % 1008,3 hPa 0,0 l/m 0,0 km/h (0 Bft) O-SO 115 0 min 0,0 UV-I 0 W/m 0,3 C 3,0 km/h (1 Bft)
04.03.2024 05:04 1,3 C -0,4 C 93 % 1008,4 hPa 0,0 l/m 0,0 km/h (0 Bft) O-SO 110 0 min 0,0 UV-I 0 W/m 0,3 C 3,0 km/h (1 Bft)
04.03.2024 05:03 1,3 C -0,1 C 93 % 1008,4 hPa 0,0 l/m 1,0 km/h (0 Bft) O-SO 123 0 min 0,0 UV-I 0 W/m 0,3 C 3,0 km/h (1 Bft)
04.03.2024 05:02 1,3 C 0,2 C 93 % 1008,3 hPa 0,0 l/m 0,0 km/h (0 Bft) O 88 0 min 0,0 UV-I 0 W/m 0,3 C 3,0 km/h (1 Bft)
04.03.2024 05:01 1,3 C 0,1 C 93 % 1008,3 hPa 0,0 l/m 0,0 km/h (0 Bft) O-SO 103 0 min 0,0 UV-I 0 W/m 0,3 C 3,0 km/h (1 Bft)
04.03.2024 05:00 1,3 C 0,3 C 93 % 1008,2 hPa 0,0 l/m 0,0 km/h (0 Bft) O-NO 67 0 min 0,0 UV-I 0 W/m 0,3 C 3,0 km/h (1 Bft)
04.03.2024 04:59 1,3 C 0,3 C 93 % 1008,2 hPa 0,0 l/m 0,0 km/h (0 Bft) N-NO 22 0 min 0,0 UV-I 0 W/m 0,3 C 3,0 km/h (1 Bft)
04.03.2024 04:58 1,3 C -0,1 C 93 % 1008,3 hPa 0,0 l/m 0,7 km/h (0 Bft) O 81 0 min 0,0 UV-I 0 W/m 0,3 C 3,0 km/h (1 Bft)
04.03.2024 04:57 1,3 C -0,1 C 93 % 1008,2 hPa 0,0 l/m 1,0 km/h (0 Bft) N 359 0 min 0,0 UV-I 0 W/m 0,3 C 4,0 km/h (1 Bft)
04.03.2024 04:56 1,3 C -0,1 C 93 % 1008,1 hPa 0,0 l/m 1,0 km/h (0 Bft) N 6 0 min 0,0 UV-I 0 W/m 0,3 C 4,0 km/h (1 Bft)
04.03.2024 04:55 1,3 C 0,3 C 93 % 1008,3 hPa 0,0 l/m 2,3 km/h (1 Bft) NO 47 0 min 0,0 UV-I 0 W/m 0,3 C 4,0 km/h (1 Bft)
04.03.2024 04:54 1,4 C 0,0 C 93 % 1008,2 hPa 0,0 l/m 2,7 km/h (1 Bft) NO 41 0 min 0,0 UV-I 0 W/m 0,4 C 4,0 km/h (1 Bft)
04.03.2024 04:53 1,4 C 0,0 C 93 % 1008,3 hPa 0,0 l/m 2,3 km/h (1 Bft) NO 46 0 min 0,0 UV-I 0 W/m 0,4 C 4,0 km/h (1 Bft)
04.03.2024 04:52 1,3 C -0,1 C 93 % 1008,2 hPa 0,0 l/m 1,3 km/h (1 Bft) NO 36 0 min 0,0 UV-I 0 W/m 0,3 C 4,0 km/h (1 Bft)
04.03.2024 04:51 1,3 C -0,3 C 93 % 1008,4 hPa 0,0 l/m 1,4 km/h (1 Bft) NO 56 0 min 0,0 UV-I 0 W/m 0,3 C 5,0 km/h (1 Bft)
04.03.2024 04:50 1,3 C -0,3 C 93 % 1008,1 hPa 0,0 l/m 1,6 km/h (1 Bft) NO 56 0 min 0,0 UV-I 0 W/m 0,3 C 5,0 km/h (1 Bft)
04.03.2024 04:49 1,3 C -0,2 C 93 % 1008,2 hPa 0,0 l/m 2,0 km/h (1 Bft) O-NO 69 0 min 0,0 UV-I 0 W/m 0,3 C 5,0 km/h (1 Bft)
04.03.2024 04:48 1,3 C 0,0 C 93 % 1008,1 hPa 0,0 l/m 2,1 km/h (1 Bft) O 79 0 min 0,0 UV-I 0 W/m 0,3 C 3,0 km/h (1 Bft)
04.03.2024 04:47 1,3 C 0,0 C 93 % 1008,2 hPa 0,0 l/m 1,0 km/h (0 Bft) O-SO 102 0 min 0,0 UV-I 0 W/m 0,3 C 3,0 km/h (1 Bft)
04.03.2024 04:46 1,4 C 0,3 C 93 % 1008,2 hPa 0,0 l/m 2,1 km/h (1 Bft) O-SO 115 0 min 0,0 UV-I 0 W/m 0,4 C 3,0 km/h (1 Bft)
04.03.2024 04:45 1,4 C 0,1 C 93 % 1008,3 hPa 0,0 l/m 1,0 km/h (0 Bft) O 83 0 min 0,0 UV-I 0 W/m 0,4 C 3,0 km/h (1 Bft)
04.03.2024 04:44 1,4 C -0,4 C 93 % 1008,2 hPa 0,0 l/m 1,0 km/h (0 Bft) NO 55 0 min 0,0 UV-I 0 W/m 0,4 C 3,0 km/h (1 Bft)
04.03.2024 04:43 1,4 C -0,6 C 93 % 1008,2 hPa 0,0 l/m 0,0 km/h (0 Bft) O 93 0 min 0,0 UV-I 0 W/m 0,4 C 3,0 km/h (1 Bft)
04.03.2024 04:42 1,4 C -0,5 C 93 % 1008,0 hPa 0,0 l/m 0,0 km/h (0 Bft) NO 48 0 min 0,0 UV-I 0 W/m 0,4 C 4,0 km/h (1 Bft)
04.03.2024 04:41 1,4 C -0,3 C 93 % 1008,4 hPa 0,0 l/m 0,0 km/h (0 Bft) N-NO 16 0 min 0,0 UV-I 0 W/m 0,4 C 4,0 km/h (1 Bft)
04.03.2024 04:40 1,4 C -0,1 C 93 % 1008,1 hPa 0,0 l/m 0,0 km/h (0 Bft) N-NO 32 0 min 0,0 UV-I 0 W/m 0,4 C 4,0 km/h (1 Bft)
04.03.2024 04:39 1,4 C -0,4 C 93 % 1008,2 hPa 0,0 l/m 0,0 km/h (0 Bft) NO 56 0 min 0,0 UV-I 0 W/m 0,4 C 4,0 km/h (1 Bft)
04.03.2024 04:38 1,4 C -0,5 C 93 % 1008,1 hPa 0,0 l/m 1,0 km/h (0 Bft) O-NO 64 0 min 0,0 UV-I 0 W/m 0,4 C 4,0 km/h (1 Bft)
04.03.2024 04:37 1,4 C -0,3 C 93 % 1008,1 hPa 0,0 l/m 0,0 km/h (0 Bft) NO 53 0 min 0,0 UV-I 0 W/m 0,4 C 4,0 km/h (1 Bft)
04.03.2024 04:36 1,4 C 0,0 C 93 % 1008,1 hPa 0,0 l/m 0,0 km/h (0 Bft) O-NO 69 0 min 0,0 UV-I 0 W/m 0,4 C 4,0 km/h (1 Bft)
04.03.2024 04:35 1,4 C -0,2 C 93 % 1007,9 hPa 0,0 l/m 1,0 km/h (0 Bft) O-NO 62 0 min 0,0 UV-I 0 W/m 0,4 C 4,0 km/h (1 Bft)
04.03.2024 04:34 1,4 C -0,2 C 93 % 1008,2 hPa 0,0 l/m 0,0 km/h (0 Bft) N-NO 26 0 min 0,0 UV-I 0 W/m 0,4 C 4,0 km/h (1 Bft)
04.03.2024 04:33 1,4 C 0,1 C 93 % 1008,2 hPa 0,0 l/m 1,3 km/h (1 Bft) O-NO 65 0 min 0,0 UV-I 0 W/m 0,4 C 4,0 km/h (1 Bft)
04.03.2024 04:32 1,4 C 0,3 C 93 % 1008,2 hPa 0,0 l/m 0,0 km/h (0 Bft) O-NO 66 0 min 0,0 UV-I 0 W/m 0,4 C 4,0 km/h (1 Bft)
04.03.2024 04:31 1,4 C 0,3 C 93 % 1008,0 hPa 0,0 l/m 0,0 km/h (0 Bft) NO 43 0 min 0,0 UV-I 0 W/m 0,4 C 5,0 km/h (1 Bft)
04.03.2024 04:30 1,5 C 0,2 C 93 % 1008,2 hPa 0,0 l/m 0,0 km/h (0 Bft) O 97 0 min 0,0 UV-I 0 W/m 0,5 C 5,0 km/h (1 Bft)
04.03.2024 04:29 1,4 C -0,1 C 93 % 1008,1 hPa 0,0 l/m 2,3 km/h (1 Bft) SO 131 0 min 0,0 UV-I 0 W/m 0,4 C 5,0 km/h (1 Bft)
04.03.2024 04:28 1,4 C -0,4 C 93 % 1008,1 hPa 0,0 l/m 0,0 km/h (0 Bft) SO 142 0 min 0,0 UV-I 0 W/m 0,4 C 5,0 km/h (1 Bft)
04.03.2024 04:27 1,5 C -0,3 C 93 % 1008,0 hPa 0,0 l/m 2,3 km/h (1 Bft) S 169 0 min 0,0 UV-I 0 W/m 0,5 C 5,0 km/h (1 Bft)
04.03.2024 04:26 1,5 C -0,5 C 93 % 1007,9 hPa 0,0 l/m 1,0 km/h (0 Bft) O-SO 123 0 min 0,0 UV-I 0 W/m 0,5 C 3,0 km/h (1 Bft)
04.03.2024 04:25 1,5 C -0,3 C 93 % 1008,0 hPa 0,0 l/m 0,0 km/h (0 Bft) O-SO 102 0 min 0,0 UV-I 0 W/m 0,5 C 3,0 km/h (1 Bft)
04.03.2024 04:24 1,5 C -0,2 C 93 % 1008,1 hPa 0,0 l/m 0,0 km/h (0 Bft) O 98 0 min 0,0 UV-I 0 W/m 0,5 C 3,0 km/h (1 Bft)
04.03.2024 04:23 1,5 C -0,2 C 93 % 1008,0 hPa 0,0 l/m 0,0 km/h (0 Bft) O-SO 103 0 min 0,0 UV-I 0 W/m 0,5 C 3,0 km/h (1 Bft)
04.03.2024 04:22 1,5 C 0,1 C 93 % 1007,9 hPa 0,0 l/m 0,0 km/h (0 Bft) O 97 0 min 0,0 UV-I 0 W/m 0,5 C 3,0 km/h (1 Bft)
04.03.2024 04:21 1,5 C 0,4 C 93 % 1008,1 hPa 0,0 l/m 0,0 km/h (0 Bft) O-NO 64 0 min 0,0 UV-I 0 W/m 0,5 C 3,0 km/h (1 Bft)
04.03.2024 04:20 1,6 C 0,8 C 93 % 1008,0 hPa 0,0 l/m 0,0 km/h (0 Bft) O 86 0 min 0,0 UV-I 0 W/m 0,6 C 4,0 km/h (1 Bft)
04.03.2024 04:19 1,6 C 0,7 C 93 % 1007,8 hPa 0,0 l/m 2,1 km/h (1 Bft) O 82 0 min 0,0 UV-I 0 W/m 0,6 C 4,0 km/h (1 Bft)
04.03.2024 04:18 1,6 C 0,6 C 93 % 1008,1 hPa 0,0 l/m 2,6 km/h (1 Bft) O 79 0 min 0,0 UV-I 0 W/m 0,6 C 4,0 km/h (1 Bft)
04.03.2024 04:17 1,6 C 0,4 C 93 % 1007,9 hPa 0,0 l/m 3,1 km/h (1 Bft) O 86 0 min 0,0 UV-I 0 W/m 0,6 C 4,0 km/h (1 Bft)
04.03.2024 04:16 1,7 C -0,1 C 93 % 1007,8 hPa 0,0 l/m 2,9 km/h (1 Bft) O 92 0 min 0,0 UV-I 0 W/m 0,7 C 4,0 km/h (1 Bft)
04.03.2024 04:15 1,7 C 0,1 C 93 % 1007,8 hPa 0,0 l/m 2,9 km/h (1 Bft) O 100 0 min 0,0 UV-I 0 W/m 0,7 C 4,0 km/h (1 Bft)
04.03.2024 04:14 1,7 C 0,5 C 93 % 1007,8 hPa 0,0 l/m 2,6 km/h (1 Bft) O 99 0 min 0,0 UV-I 0 W/m 0,7 C 4,0 km/h (1 Bft)
04.03.2024 04:13 1,7 C 0,5 C 93 % 1007,9 hPa 0,0 l/m 1,0 km/h (0 Bft) O 87 0 min 0,0 UV-I 0 W/m 0,7 C 4,0 km/h (1 Bft)
04.03.2024 04:12 1,7 C 0,3 C 93 % 1007,8 hPa 0,0 l/m 2,7 km/h (1 Bft) O 79 0 min 0,0 UV-I 0 W/m 0,7 C 4,0 km/h (1 Bft)
04.03.2024 04:11 1,7 C 0,3 C 93 % 1007,7 hPa 0,0 l/m 3,5 km/h (1 Bft) O 82 0 min 0,0 UV-I 0 W/m 0,7 C 4,0 km/h (1 Bft)
04.03.2024 04:10 1,7 C 0,2 C 93 % 1007,7 hPa 0,0 l/m 2,3 km/h (1 Bft) O-NO 75 0 min 0,0 UV-I 0 W/m 0,7 C 3,0 km/h (1 Bft)
04.03.2024 04:09 1,7 C -0,2 C 93 % 1007,7 hPa 0,0 l/m 0,0 km/h (0 Bft) O 93 0 min 0,0 UV-I 0 W/m 0,7 C 4,0 km/h (1 Bft)
04.03.2024 04:08 1,7 C -0,2 C 93 % 1007,8 hPa 0,0 l/m 2,1 km/h (1 Bft) O-SO 115 0 min 0,0 UV-I 0 W/m 0,7 C 5,0 km/h (1 Bft)
04.03.2024 04:07 1,7 C -0,2 C 93 % 1007,7 hPa 0,0 l/m 2,5 km/h (1 Bft) O-SO 122 0 min 0,0 UV-I 0 W/m 0,7 C 5,0 km/h (1 Bft)
04.03.2024 04:06 1,7 C -0,2 C 93 % 1007,7 hPa 0,0 l/m 3,5 km/h (1 Bft) O-SO 115 0 min 0,0 UV-I 0 W/m 0,7 C 5,0 km/h (1 Bft)
04.03.2024 04:05 1,8 C -0,1 C 93 % 1007,7 hPa 0,0 l/m 1,4 km/h (1 Bft) O-SO 113 0 min 0,0 UV-I 0 W/m 0,8 C 4,0 km/h (1 Bft)
04.03.2024 04:04 1,7 C -0,1 C 93 % 1007,7 hPa 0,0 l/m 2,6 km/h (1 Bft) SO 132 0 min 0,0 UV-I 0 W/m 0,7 C 4,0 km/h (1 Bft)
04.03.2024 04:03 1,8 C 0,0 C 93 % 1007,6 hPa 0,0 l/m 3,1 km/h (1 Bft) SO 129 0 min 0,0 UV-I 0 W/m 0,8 C 4,0 km/h (1 Bft)
04.03.2024 04:02 1,8 C 0,0 C 93 % 1007,5 hPa 0,0 l/m 0,0 km/h (0 Bft) O 93 0 min 0,0 UV-I 0 W/m 0,8 C 3,0 km/h (1 Bft)
04.03.2024 04:01 1,8 C 0,1 C 93 % 1007,8 hPa 0,0 l/m 0,0 km/h (0 Bft) O-NO 78 0 min 0,0 UV-I 0 W/m 0,8 C 3,0 km/h (1 Bft)
04.03.2024 04:00 1,8 C 0,3 C 93 % 1007,7 hPa 0,0 l/m 1,0 km/h (0 Bft) O-NO 63 0 min 0,0 UV-I 0 W/m 0,8 C 3,0 km/h (1 Bft)
04.03.2024 03:59 1,8 C 0,0 C 93 % 1007,6 hPa 0,0 l/m 1,0 km/h (0 Bft) O-NO 78 0 min 0,0 UV-I 0 W/m 0,8 C 3,0 km/h (1 Bft)
04.03.2024 03:58 1,8 C 0,0 C 93 % 1007,4 hPa 0,0 l/m 0,0 km/h (0 Bft) O-SO 115 0 min 0,0 UV-I 0 W/m 0,8 C 4,0 km/h (1 Bft)
04.03.2024 03:57 1,8 C 0,4 C 93 % 1007,7 hPa 0,0 l/m 0,0 km/h (0 Bft) SO 135 0 min 0,0 UV-I 0 W/m 0,8 C 5,0 km/h (1 Bft)
04.03.2024 03:56 1,8 C 0,5 C 93 % 1007,4 hPa 0,0 l/m 2,1 km/h (1 Bft) SO 130 0 min 0,0 UV-I 0 W/m 0,8 C 5,0 km/h (1 Bft)
04.03.2024 03:55 1,8 C 0,6 C 93 % 1007,4 hPa 0,0 l/m 2,3 km/h (1 Bft) N 360 0 min 0,0 UV-I 0 W/m 0,8 C 5,0 km/h (1 Bft)
04.03.2024 03:54 1,9 C 0,2 C 93 % 1007,5 hPa 0,0 l/m 1,0 km/h (0 Bft) NO 45 0 min 0,0 UV-I 0 W/m 0,9 C 3,0 km/h (1 Bft)
04.03.2024 03:53 1,9 C -0,2 C 93 % 1007,5 hPa 0,0 l/m 0,0 km/h (0 Bft) O-NO 67 0 min 0,0 UV-I 0 W/m 0,9 C 3,0 km/h (1 Bft)
04.03.2024 03:52 1,9 C -0,3 C 93 % 1007,3 hPa 0,0 l/m 1,0 km/h (0 Bft) O 84 0 min 0,0 UV-I 0 W/m 0,9 C 3,0 km/h (1 Bft)
04.03.2024 03:51 1,9 C 0,0 C 93 % 1007,4 hPa 0,0 l/m 1,0 km/h (0 Bft) O-NO 76 0 min 0,0 UV-I 0 W/m 0,9 C 3,0 km/h (1 Bft)
04.03.2024 03:50 1,8 C 0,0 C 93 % 1007,6 hPa 0,0 l/m 0,0 km/h (0 Bft) O 89 0 min 0,0 UV-I 0 W/m 0,8 C 3,0 km/h (1 Bft)
04.03.2024 03:49 1,9 C 0,2 C 92 % 1007,6 hPa 0,0 l/m 0,0 km/h (0 Bft) O 95 0 min 0,0 UV-I 0 W/m 0,7 C 3,0 km/h (1 Bft)
04.03.2024 03:48 1,8 C 0,2 C 92 % 1007,4 hPa 0,0 l/m 0,0 km/h (0 Bft) O-NO 71 0 min 0,0 UV-I 0 W/m 0,6 C 3,0 km/h (1 Bft)
04.03.2024 03:47 1,9 C 0,1 C 92 % 1007,3 hPa 0,0 l/m 0,0 km/h (0 Bft) O-NO 75 0 min 0,0 UV-I 0 W/m 0,7 C 3,0 km/h (1 Bft)
04.03.2024 03:46 1,9 C 0,5 C 92 % 1007,7 hPa 0,0 l/m 1,4 km/h (1 Bft) O-NO 75 0 min 0,0 UV-I 0 W/m 0,7 C 3,0 km/h (1 Bft)
04.03.2024 03:45 1,9 C 0,7 C 92 % 1007,6 hPa 0,0 l/m 0,0 km/h (0 Bft) NO 42 0 min 0,0 UV-I 0 W/m 0,7 C 4,0 km/h (1 Bft)
04.03.2024 03:44 1,9 C 0,6 C 92 % 1007,3 hPa 0,0 l/m 2,5 km/h (1 Bft) NO 46 0 min 0,0 UV-I 0 W/m 0,7 C 5,0 km/h (1 Bft)
04.03.2024 03:43 1,9 C 0,6 C 92 % 1007,6 hPa 0,0 l/m 2,9 km/h (1 Bft) NO 47 0 min 0,0 UV-I 0 W/m 0,7 C 5,0 km/h (1 Bft)
04.03.2024 03:42 1,9 C 0,4 C 92 % 1007,6 hPa 0,0 l/m 3,6 km/h (1 Bft) NO 52 0 min 0,0 UV-I 0 W/m 0,7 C 5,0 km/h (1 Bft)
04.03.2024 03:41 1,9 C 0,2 C 92 % 1007,6 hPa 0,0 l/m 1,6 km/h (1 Bft) O-NO 61 0 min 0,0 UV-I 0 W/m 0,7 C 3,0 km/h (1 Bft)
04.03.2024 03:40 1,9 C 0,2 C 92 % 1007,5 hPa 0,0 l/m 0,0 km/h (0 Bft) O 100 0 min 0,0 UV-I 0 W/m 0,7 C 3,0 km/h (1 Bft)
04.03.2024 03:39 1,9 C 0,2 C 92 % 1007,7 hPa 0,0 l/m 0,0 km/h (0 Bft) O-NO 67 0 min 0,0 UV-I 0 W/m 0,7 C 3,0 km/h (1 Bft)
04.03.2024 03:38 1,9 C -0,1 C 92 % 1007,5 hPa 0,0 l/m 1,0 km/h (0 Bft) O-SO 106 0 min 0,0 UV-I 0 W/m 0,7 C 3,0 km/h (1 Bft)
04.03.2024 03:37 1,9 C 0,1 C 92 % 1007,5 hPa 0,0 l/m 0,0 km/h (0 Bft) S-SO 156 0 min 0,0 UV-I 0 W/m 0,7 C 3,0 km/h (1 Bft)
04.03.2024 03:36 1,9 C 0,1 C 92 % 1007,4 hPa 0,0 l/m 0,0 km/h (0 Bft) SO 144 0 min 0,0 UV-I 0 W/m 0,7 C 3,0 km/h (1 Bft)
04.03.2024 03:35 1,9 C -0,1 C 92 % 1007,7 hPa 0,0 l/m 0,0 km/h (0 Bft) SO 137 0 min 0,0 UV-I 0 W/m 0,7 C 3,0 km/h (1 Bft)
04.03.2024 03:34 1,9 C -0,2 C 92 % 1007,6 hPa 0,0 l/m 0,0 km/h (0 Bft) O-NO 66 0 min 0,0 UV-I 0 W/m 0,7 C 3,0 km/h (1 Bft)
04.03.2024 03:33 2,0 C -0,2 C 92 % 1007,5 hPa 0,0 l/m 0,0 km/h (0 Bft) SO 138 0 min 0,0 UV-I 0 W/m 0,8 C 3,0 km/h (1 Bft)
04.03.2024 03:32 2,0 C 0,0 C 92 % 1007,5 hPa 0,0 l/m 0,0 km/h (0 Bft) SO 129 0 min 0,0 UV-I 0 W/m 0,8 C 3,0 km/h (1 Bft)
04.03.2024 03:31 2,0 C 0,0 C 92 % 1007,6 hPa 0,0 l/m 0,0 km/h (0 Bft) O-SO 111 0 min 0,0 UV-I 0 W/m 0,8 C 3,0 km/h (1 Bft)
04.03.2024 03:30 2,0 C 0,0 C 92 % 1007,4 hPa 0,0 l/m 0,0 km/h (0 Bft) O-SO 116 0 min 0,0 UV-I 0 W/m 0,8 C 3,0 km/h (1 Bft)
04.03.2024 03:29 2,0 C 0,1 C 92 % 1007,5 hPa 0,0 l/m 0,0 km/h (0 Bft) SO 140 0 min 0,0 UV-I 0 W/m 0,8 C 3,0 km/h (1 Bft)
04.03.2024 03:28 2,0 C 0,1 C 92 % 1007,4 hPa 0,0 l/m 0,0 km/h (0 Bft) O-SO 113 0 min 0,0 UV-I 0 W/m 0,8 C 3,0 km/h (1 Bft)
04.03.2024 03:27 2,1 C 0,1 C 92 % 1007,5 hPa 0,0 l/m 0,0 km/h (0 Bft) O-SO 117 0 min 0,0 UV-I 0 W/m 0,9 C 4,0 km/h (1 Bft)
04.03.2024 03:26 2,1 C 0,1 C 92 % 1007,3 hPa 0,0 l/m 0,0 km/h (0 Bft) O 96 0 min 0,0 UV-I 0 W/m 0,9 C 4,0 km/h (1 Bft)
04.03.2024 03:25 2,1 C 0,1 C 92 % 1007,2 hPa 0,0 l/m 2,7 km/h (1 Bft) O 87 0 min 0,0 UV-I 0 W/m 0,9 C 4,0 km/h (1 Bft)
04.03.2024 03:24 2,1 C 0,1 C 92 % 1007,5 hPa 0,0 l/m 1,0 km/h (0 Bft) O-SO 105 0 min 0,0 UV-I 0 W/m 0,9 C 4,0 km/h (1 Bft)
04.03.2024 03:23 2,1 C 0,3 C 92 % 1007,5 hPa 0,0 l/m 2,3 km/h (1 Bft) O-SO 108 0 min 0,0 UV-I 0 W/m 0,9 C 4,0 km/h (1 Bft)
04.03.2024 03:22 2,1 C 0,4 C 92 % 1007,3 hPa 0,0 l/m 2,7 km/h (1 Bft) O 100 0 min 0,0 UV-I 0 W/m 0,9 C 4,0 km/h (1 Bft)
04.03.2024 03:21 2,2 C 0,3 C 92 % 1007,3 hPa 0,0 l/m 2,3 km/h (1 Bft) O-SO 117 0 min 0,0 UV-I 0 W/m 1,0 C 4,0 km/h (1 Bft)
04.03.2024 03:20 2,2 C 0,2 C 92 % 1007,3 hPa 0,0 l/m 1,0 km/h (0 Bft) O-SO 123 0 min 0,0 UV-I 0 W/m 1,0 C 5,0 km/h (1 Bft)
04.03.2024 03:19 2,2 C 0,1 C 92 % 1007,2 hPa 0,0 l/m 2,5 km/h (1 Bft) SO 129 0 min 0,0 UV-I 0 W/m 1,0 C 5,0 km/h (1 Bft)
04.03.2024 03:18 2,2 C 0,0 C 92 % 1007,4 hPa 0,0 l/m 3,1 km/h (1 Bft) SO 126 0 min 0,0 UV-I 0 W/m 1,0 C 5,0 km/h (1 Bft)
04.03.2024 03:17 2,2 C -0,1 C 92 % 1007,3 hPa 0,0 l/m 1,0 km/h (0 Bft) O-SO 120 0 min 0,0 UV-I 0 W/m 1,0 C 5,0 km/h (1 Bft)
04.03.2024 03:16 2,2 C 0,0 C 92 % 1007,2 hPa 0,0 l/m 2,6 km/h (1 Bft) O-SO 114 0 min 0,0 UV-I 0 W/m 1,0 C 5,0 km/h (1 Bft)
04.03.2024 03:15 2,3 C 0,1 C 92 % 1007,1 hPa 0,0 l/m 2,1 km/h (1 Bft) O 87 0 min 0,0 UV-I 0 W/m 1,1 C 3,0 km/h (1 Bft)
04.03.2024 03:14 2,3 C 0,3 C 92 % 1007,4 hPa 0,0 l/m 0,0 km/h (0 Bft) O-SO 113 0 min 0,0 UV-I 0 W/m 1,1 C 4,0 km/h (1 Bft)
04.03.2024 03:13 2,3 C 0,2 C 92 % 1007,1 hPa 0,0 l/m 1,3 km/h (1 Bft) O-SO 112 0 min 0,0 UV-I 0 W/m 1,1 C 4,0 km/h (1 Bft)
04.03.2024 03:12 2,3 C 0,2 C 92 % 1007,2 hPa 0,0 l/m 1,4 km/h (1 Bft) O-NO 69 0 min 0,0 UV-I 0 W/m 1,1 C 4,0 km/h (1 Bft)
04.03.2024 03:11 2,3 C 0,3 C 92 % 1007,2 hPa 0,0 l/m 0,0 km/h (0 Bft) NO 34 0 min 0,0 UV-I 0 W/m 1,1 C 4,0 km/h (1 Bft)
04.03.2024 03:10 2,3 C 0,3 C 92 % 1007,3 hPa 0,0 l/m 0,0 km/h (0 Bft) N 7 0 min 0,0 UV-I 0 W/m 1,1 C 4,0 km/h (1 Bft)
04.03.2024 03:09 2,3 C 0,3 C 92 % 1007,4 hPa 0,0 l/m 1,3 km/h (1 Bft) NO 53 0 min 0,0 UV-I 0 W/m 1,1 C 3,0 km/h (1 Bft)
04.03.2024 03:08 2,3 C 0,2 C 92 % 1007,4 hPa 0,0 l/m 0,0 km/h (0 Bft) O-NO 68 0 min 0,0 UV-I 0 W/m 1,1 C 3,0 km/h (1 Bft)
04.03.2024 03:07 2,4 C 0,1 C 92 % 1007,4 hPa 0,0 l/m 1,0 km/h (0 Bft) O-NO 77 0 min 0,0 UV-I 0 W/m 1,2 C 3,0 km/h (1 Bft)
04.03.2024 03:06 2,4 C 0,2 C 92 % 1007,4 hPa 0,0 l/m 0,0 km/h (0 Bft) NO 51 0 min 0,0 UV-I 0 W/m 1,2 C 3,0 km/h (1 Bft)
04.03.2024 03:05 2,4 C 0,6 C 92 % 1007,3 hPa 0,0 l/m 1,3 km/h (1 Bft) N-NO 30 0 min 0,0 UV-I 0 W/m 1,2 C 3,0 km/h (1 Bft)
04.03.2024 03:04 2,4 C 0,5 C 92 % 1007,3 hPa 0,0 l/m 0,0 km/h (0 Bft) O-NO 64 0 min 0,0 UV-I 0 W/m 1,2 C 3,0 km/h (1 Bft)
04.03.2024 03:03 2,4 C 0,5 C 92 % 1007,1 hPa 0,0 l/m 0,0 km/h (0 Bft) O-SO 108 0 min 0,0 UV-I 0 W/m 1,2 C 3,0 km/h (1 Bft)
04.03.2024 03:02 2,5 C 0,5 C 92 % 1007,4 hPa 0,0 l/m 1,0 km/h (0 Bft) O 92 0 min 0,0 UV-I 0 W/m 1,3 C 4,0 km/h (1 Bft)
04.03.2024 03:01 2,5 C 0,6 C 92 % 1007,3 hPa 0,0 l/m 0,0 km/h (0 Bft) O-SO 106 0 min 0,0 UV-I 0 W/m 1,3 C 5,0 km/h (1 Bft)
04.03.2024 03:00 2,5 C 0,7 C 92 % 1007,2 hPa 0,0 l/m 2,5 km/h (1 Bft) O-SO 109 0 min 0,0 UV-I 0 W/m 1,3 C 5,0 km/h (1 Bft)
04.03.2024 02:59 2,5 C 0,5 C 92 % 1007,6 hPa 0,0 l/m 2,5 km/h (1 Bft) O 98 0 min 0,0 UV-I 0 W/m 1,3 C 4,0 km/h (1 Bft)
04.03.2024 02:58 2,6 C 0,5 C 92 % 1007,3 hPa 0,0 l/m 2,7 km/h (1 Bft) O-SO 110 0 min 0,0 UV-I 0 W/m 1,4 C 4,0 km/h (1 Bft)
04.03.2024 02:57 2,6 C 0,7 C 92 % 1007,2 hPa 0,0 l/m 0,0 km/h (0 Bft) O 81 0 min 0,0 UV-I 0 W/m 1,4 C 4,0 km/h (1 Bft)
04.03.2024 02:56 2,6 C 0,8 C 92 % 1007,2 hPa 0,0 l/m 1,0 km/h (0 Bft) O 97 0 min 0,0 UV-I 0 W/m 1,4 C 4,0 km/h (1 Bft)
04.03.2024 02:55 2,6 C 0,7 C 92 % 1007,2 hPa 0,0 l/m 1,3 km/h (1 Bft) O 99 0 min 0,0 UV-I 0 W/m 1,4 C 4,0 km/h (1 Bft)
04.03.2024 02:54 2,6 C 0,8 C 92 % 1007,1 hPa 0,0 l/m 1,4 km/h (1 Bft) O 99 0 min 0,0 UV-I 0 W/m 1,4 C 4,0 km/h (1 Bft)
04.03.2024 02:53 2,6 C 0,8 C 92 % 1007,2 hPa 0,0 l/m 2,6 km/h (1 Bft) O 100 0 min 0,0 UV-I 0 W/m 1,4 C 4,0 km/h (1 Bft)
04.03.2024 02:52 2,6 C 1,0 C 92 % 1007,2 hPa 0,0 l/m 0,0 km/h (0 Bft) O 97 0 min 0,0 UV-I 0 W/m 1,4 C 4,0 km/h (1 Bft)
04.03.2024 02:51 2,7 C 1,0 C 92 % 1007,2 hPa 0,0 l/m 2,5 km/h (1 Bft) O 93 0 min 0,0 UV-I 0 W/m 1,5 C 4,0 km/h (1 Bft)
04.03.2024 02:50 2,7 C 1,5 C 92 % 1007,1 hPa 0,0 l/m 2,3 km/h (1 Bft) O-NO 71 0 min 0,0 UV-I 0 W/m 1,5 C 4,0 km/h (1 Bft)
04.03.2024 02:49 2,7 C 1,4 C 92 % 1007,2 hPa 0,0 l/m 2,5 km/h (1 Bft) NO 36 0 min 0,0 UV-I 0 W/m 1,5 C 4,0 km/h (1 Bft)
04.03.2024 02:48 2,7 C 1,2 C 92 % 1007,1 hPa 0,0 l/m 2,1 km/h (1 Bft) N-NO 32 0 min 0,0 UV-I 0 W/m 1,5 C 5,0 km/h (1 Bft)
04.03.2024 02:47 2,7 C 1,2 C 92 % 1007,2 hPa 0,0 l/m 2,5 km/h (1 Bft) NO 36 0 min 0,0 UV-I 0 W/m 1,5 C 5,0 km/h (1 Bft)
04.03.2024 02:46 2,7 C 1,0 C 92 % 1007,0 hPa 0,0 l/m 3,2 km/h (1 Bft) N-NO 33 0 min 0,0 UV-I 0 W/m 1,5 C 5,0 km/h (1 Bft)
04.03.2024 02:45 2,8 C 0,9 C 92 % 1007,1 hPa 0,0 l/m 1,0 km/h (0 Bft) O-NO 69 0 min 0,0 UV-I 0 W/m 1,6 C 3,0 km/h (1 Bft)
04.03.2024 02:44 2,7 C 0,8 C 92 % 1006,9 hPa 0,0 l/m 0,0 km/h (0 Bft) NO 54 0 min 0,0 UV-I 0 W/m 1,5 C 3,0 km/h (1 Bft)
04.03.2024 02:43 2,8 C 0,7 C 92 % 1007,1 hPa 0,0 l/m 1,0 km/h (0 Bft) NO 48 0 min 0,0 UV-I 0 W/m 1,6 C 3,0 km/h (1 Bft)
04.03.2024 02:42 2,8 C 0,8 C 92 % 1006,8 hPa 0,0 l/m 0,0 km/h (0 Bft) O-NO 63 0 min 0,0 UV-I 0 W/m 1,6 C 3,0 km/h (1 Bft)
04.03.2024 02:41 2,8 C 0,9 C 92 % 1007,0 hPa 0,0 l/m 0,0 km/h (0 Bft) NO 46 0 min 0,0 UV-I 0 W/m 1,6 C 3,0 km/h (1 Bft)
04.03.2024 02:40 2,8 C 1,2 C 92 % 1006,9 hPa 0,0 l/m 0,0 km/h (0 Bft) N-NO 22 0 min 0,0 UV-I 0 W/m 1,6 C 3,0 km/h (1 Bft)
04.03.2024 02:39 2,8 C 1,2 C 92 % 1007,1 hPa 0,0 l/m 0,0 km/h (0 Bft) N-NO 30 0 min 0,0 UV-I 0 W/m 1,6 C 3,0 km/h (1 Bft)
04.03.2024 02:38 2,8 C 0,9 C 92 % 1007,0 hPa 0,0 l/m 1,0 km/h (0 Bft) NO 54 0 min 0,0 UV-I 0 W/m 1,6 C 2,0 km/h (1 Bft)
04.03.2024 02:37 2,8 C 0,7 C 92 % 1007,0 hPa 0,0 l/m 0,0 km/h (0 Bft) O 94 0 min 0,0 UV-I 0 W/m 1,6 C 3,0 km/h (1 Bft)
04.03.2024 02:36 2,8 C 1,2 C 92 % 1007,1 hPa 0,0 l/m 0,0 km/h (0 Bft) O 95 0 min 0,0 UV-I 0 W/m 1,6 C 3,0 km/h (1 Bft)
04.03.2024 02:35 2,8 C 1,0 C 92 % 1006,7 hPa 0,0 l/m 0,0 km/h (0 Bft) O-SO 104 0 min 0,0 UV-I 0 W/m 1,6 C 3,0 km/h (1 Bft)
04.03.2024 02:34 2,8 C 0,7 C 92 % 1007,1 hPa 0,0 l/m 2,3 km/h (1 Bft) O-SO 116 0 min 0,0 UV-I 0 W/m 1,6 C 3,0 km/h (1 Bft)
04.03.2024 02:33 2,8 C 0,4 C 92 % 1006,9 hPa 0,0 l/m 2,3 km/h (1 Bft) O-SO 115 0 min 0,0 UV-I 0 W/m 1,6 C 3,0 km/h (1 Bft)
04.03.2024 02:32 2,8 C 0,7 C 91 % 1006,9 hPa 0,0 l/m 1,0 km/h (0 Bft) SO 139 0 min 0,0 UV-I 0 W/m 1,5 C 3,0 km/h (1 Bft)
04.03.2024 02:31 2,8 C 0,7 C 91 % 1006,9 hPa 0,0 l/m 0,0 km/h (0 Bft) S-SO 149 0 min 0,0 UV-I 0 W/m 1,5 C 3,0 km/h (1 Bft)
04.03.2024 02:30 2,8 C 0,7 C 91 % 1006,9 hPa 0,0 l/m 0,0 km/h (0 Bft) SO 137 0 min 0,0 UV-I 0 W/m 1,5 C 3,0 km/h (1 Bft)
04.03.2024 02:29 2,8 C 0,9 C 91 % 1007,0 hPa 0,0 l/m 0,0 km/h (0 Bft) S-SO 164 0 min 0,0 UV-I 0 W/m 1,5 C 3,0 km/h (1 Bft)
04.03.2024 02:28 2,8 C 1,3 C 91 % 1006,8 hPa 0,0 l/m 0,0 km/h (0 Bft) S-SO 150 0 min 0,0 UV-I 0 W/m 1,5 C 3,0 km/h (1 Bft)
04.03.2024 02:27 2,8 C 1,2 C 91 % 1006,9 hPa 0,0 l/m 0,0 km/h (0 Bft) O-NO 76 0 min 0,0 UV-I 0 W/m 1,5 C 3,0 km/h (1 Bft)
04.03.2024 02:26 2,9 C 1,0 C 91 % 1006,9 hPa 0,0 l/m 0,0 km/h (0 Bft) O-NO 76 0 min 0,0 UV-I 0 W/m 1,6 C 3,0 km/h (1 Bft)
04.03.2024 02:25 2,9 C 1,0 C 91 % 1006,9 hPa 0,0 l/m 0,0 km/h (0 Bft) O 92 0 min 0,0 UV-I 0 W/m 1,6 C 3,0 km/h (1 Bft)
04.03.2024 02:24 2,9 C 0,7 C 91 % 1007,0 hPa 0,0 l/m 0,0 km/h (0 Bft) O 89 0 min 0,0 UV-I 0 W/m 1,6 C 3,0 km/h (1 Bft)
04.03.2024 02:23 2,9 C 0,7 C 91 % 1006,9 hPa 0,0 l/m 0,0 km/h (0 Bft) O 99 0 min 0,0 UV-I 0 W/m 1,6 C 3,0 km/h (1 Bft)
04.03.2024 02:22 2,9 C 0,8 C 91 % 1006,9 hPa 0,0 l/m 1,0 km/h (0 Bft) O-SO 102 0 min 0,0 UV-I 0 W/m 1,6 C 3,0 km/h (1 Bft)
04.03.2024 02:21 2,9 C 1,0 C 91 % 1007,0 hPa 0,0 l/m 0,0 km/h (0 Bft) O 92 0 min 0,0 UV-I 0 W/m 1,6 C 3,0 km/h (1 Bft)
04.03.2024 02:20 2,9 C 0,5 C 91 % 1006,8 hPa 0,0 l/m 1,0 km/h (0 Bft) O-SO 104 0 min 0,0 UV-I 0 W/m 1,6 C 3,0 km/h (1 Bft)
04.03.2024 02:19 3,0 C 0,6 C 91 % 1006,9 hPa 0,0 l/m 0,0 km/h (0 Bft) O-SO 111 0 min 0,0 UV-I 0 W/m 1,7 C 2,0 km/h (1 Bft)
04.03.2024 02:18 3,0 C 0,8 C 91 % 1007,1 hPa 0,0 l/m 0,0 km/h (0 Bft) O-SO 123 0 min 0,0 UV-I 0 W/m 1,7 C 2,0 km/h (1 Bft)
04.03.2024 02:17 3,0 C 1,0 C 91 % 1006,8 hPa 0,0 l/m 0,0 km/h (0 Bft) SO 135 0 min 0,0 UV-I 0 W/m 1,7 C 3,0 km/h (1 Bft)
04.03.2024 02:16 3,0 C 0,8 C 91 % 1006,8 hPa 0,0 l/m 0,0 km/h (0 Bft) O 80 0 min 0,0 UV-I 0 W/m 1,7 C 3,0 km/h (1 Bft)
04.03.2024 02:15 3,0 C 0,8 C 91 % 1006,9 hPa 0,0 l/m 0,0 km/h (0 Bft) O 80 0 min 0,0 UV-I 0 W/m 1,7 C 3,0 km/h (1 Bft)
04.03.2024 02:14 3,0 C 0,5 C 91 % 1007,0 hPa 0,0 l/m 0,0 km/h (0 Bft) O-SO 107 0 min 0,0 UV-I 0 W/m 1,7 C 3,0 km/h (1 Bft)
04.03.2024 02:13 3,0 C 0,7 C 91 % 1006,9 hPa 0,0 l/m 0,0 km/h (0 Bft) SO 135 0 min 0,0 UV-I 0 W/m 1,7 C 2,0 km/h (1 Bft)
04.03.2024 02:12 3,0 C 0,7 C 91 % 1006,7 hPa 0,0 l/m 0,0 km/h (0 Bft) O-NO 76 0 min 0,0 UV-I 0 W/m 1,7 C 3,0 km/h (1 Bft)
04.03.2024 02:11 3,0 C 0,6 C 91 % 1006,7 hPa 0,0 l/m 0,0 km/h (0 Bft) NO 44 0 min 0,0 UV-I 0 W/m 1,7 C 3,0 km/h (1 Bft)
04.03.2024 02:10 3,0 C 0,7 C 91 % 1006,7 hPa 0,0 l/m 0,0 km/h (0 Bft) O-NO 67 0 min 0,0 UV-I 0 W/m 1,7 C 3,0 km/h (1 Bft)
04.03.2024 02:09 3,1 C 0,8 C 91 % 1006,7 hPa 0,0 l/m 0,0 km/h (0 Bft) O-NO 74 0 min 0,0 UV-I 0 W/m 1,8 C 3,0 km/h (1 Bft)
04.03.2024 02:08 3,1 C 0,9 C 91 % 1006,9 hPa 0,0 l/m 0,0 km/h (0 Bft) SO 129 0 min 0,0 UV-I 0 W/m 1,8 C 3,0 km/h (1 Bft)
04.03.2024 02:07 3,1 C 0,7 C 91 % 1006,9 hPa 0,0 l/m 0,0 km/h (0 Bft) SO 138 0 min 0,0 UV-I 0 W/m 1,8 C 3,0 km/h (1 Bft)
04.03.2024 02:06 3,1 C 0,6 C 91 % 1006,6 hPa 0,0 l/m 0,0 km/h (0 Bft) O-SO 122 0 min 0,0 UV-I 0 W/m 1,8 C 4,0 km/h (1 Bft)
04.03.2024 02:05 3,1 C 0,8 C 90 % 1006,8 hPa 0,0 l/m 1,3 km/h (1 Bft) O-SO 114 0 min 0,0 UV-I 0 W/m 1,6 C 4,0 km/h (1 Bft)
04.03.2024 02:04 3,2 C 0,7 C 90 % 1007,1 hPa 0,0 l/m 2,5 km/h (1 Bft) O-SO 111 0 min 0,0 UV-I 0 W/m 1,7 C 4,0 km/h (1 Bft)
04.03.2024 02:03 3,2 C 0,8 C 90 % 1006,6 hPa 0,0 l/m 2,3 km/h (1 Bft) O-SO 110 0 min 0,0 UV-I 0 W/m 1,7 C 3,0 km/h (1 Bft)
04.03.2024 02:02 3,2 C 0,9 C 90 % 1006,6 hPa 0,0 l/m 0,0 km/h (0 Bft) O-SO 105 0 min 0,0 UV-I 0 W/m 1,7 C 3,0 km/h (1 Bft)
04.03.2024 02:01 3,3 C 0,7 C 90 % 1006,7 hPa 0,0 l/m 0,0 km/h (0 Bft) O 99 0 min 0,0 UV-I 0 W/m 1,8 C 3,0 km/h (1 Bft)
04.03.2024 02:00 3,3 C 1,0 C 91 % 1006,9 hPa 0,0 l/m 0,0 km/h (0 Bft) O 84 0 min 0,0 UV-I 0 W/m 2,0 C 3,0 km/h (1 Bft)
04.03.2024 01:59 3,3 C 1,0 C 91 % 1006,7 hPa 0,0 l/m 0,0 km/h (0 Bft) O-NO 69 0 min 0,0 UV-I 0 W/m 2,0 C 3,0 km/h (1 Bft)
04.03.2024 01:58 3,3 C 0,9 C 91 % 1006,8 hPa 0,0 l/m 0,0 km/h (0 Bft) O 89 0 min 0,0 UV-I 0 W/m 2,0 C 3,0 km/h (1 Bft)
04.03.2024 01:57 3,4 C 1,0 C 91 % 1006,8 hPa 0,0 l/m 0,0 km/h (0 Bft) SO 130 0 min 0,0 UV-I 0 W/m 2,1 C 3,0 km/h (1 Bft)
04.03.2024 01:56 3,4 C 1,4 C 91 % 1006,6 hPa 0,0 l/m 0,0 km/h (0 Bft) O-SO 115 0 min 0,0 UV-I 0 W/m 2,1 C 3,0 km/h (1 Bft)
04.03.2024 01:55 3,4 C 1,5 C 91 % 1006,6 hPa 0,0 l/m 2,1 km/h (1 Bft) O-SO 110 0 min 0,0 UV-I 0 W/m 2,1 C 3,0 km/h (1 Bft)
04.03.2024 01:54 3,4 C 1,2 C 91 % 1006,6 hPa 0,0 l/m 1,0 km/h (0 Bft) O-SO 102 0 min 0,0 UV-I 0 W/m 2,1 C 3,0 km/h (1 Bft)
04.03.2024 01:53 3,4 C 1,2 C 91 % 1006,5 hPa 0,0 l/m 1,0 km/h (0 Bft) O 93 0 min 0,0 UV-I 0 W/m 2,1 C 4,0 km/h (1 Bft)
04.03.2024 01:52 3,5 C 1,4 C 91 % 1006,6 hPa 0,0 l/m 0,0 km/h (0 Bft) O-SO 107 0 min 0,0 UV-I 0 W/m 2,2 C 4,0 km/h (1 Bft)
04.03.2024 01:51 3,5 C 1,5 C 91 % 1006,5 hPa 0,0 l/m 1,0 km/h (0 Bft) O 100 0 min 0,0 UV-I 0 W/m 2,2 C 4,0 km/h (1 Bft)
04.03.2024 01:50 3,5 C 1,6 C 91 % 1006,4 hPa 0,0 l/m 2,3 km/h (1 Bft) O 90 0 min 0,0 UV-I 0 W/m 2,2 C 4,0 km/h (1 Bft)
04.03.2024 01:49 3,5 C 1,3 C 91 % 1006,7 hPa 0,0 l/m 2,7 km/h (1 Bft) O 88 0 min 0,0 UV-I 0 W/m 2,2 C 4,0 km/h (1 Bft)
04.03.2024 01:48 3,5 C 1,4 C 90 % 1006,5 hPa 0,0 l/m 1,0 km/h (0 Bft) O 81 0 min 0,0 UV-I 0 W/m 2,0 C 4,0 km/h (1 Bft)
04.03.2024 01:47 3,5 C 1,3 C 90 % 1006,6 hPa 0,0 l/m 1,0 km/h (0 Bft) NO 48 0 min 0,0 UV-I 0 W/m 2,0 C 4,0 km/h (1 Bft)
04.03.2024 01:46 3,6 C 1,4 C 91 % 1006,7 hPa 0,0 l/m 2,6 km/h (1 Bft) NO 38 0 min 0,0 UV-I 0 W/m 2,3 C 4,0 km/h (1 Bft)
04.03.2024 01:45 3,6 C 1,7 C 91 % 1006,4 hPa 0,0 l/m 2,3 km/h (1 Bft) NO 38 0 min 0,0 UV-I 0 W/m 2,3 C 3,0 km/h (1 Bft)
04.03.2024 01:44 3,6 C 1,9 C 91 % 1006,5 hPa 0,0 l/m 0,0 km/h (0 Bft) N-NO 24 0 min 0,0 UV-I 0 W/m 2,3 C 3,0 km/h (1 Bft)
04.03.2024 01:43 3,6 C 1,9 C 91 % 1006,4 hPa 0,0 l/m 1,3 km/h (1 Bft) N-NO 20 0 min 0,0 UV-I 0 W/m 2,3 C 3,0 km/h (1 Bft)
04.03.2024 01:42 3,6 C 1,4 C 91 % 1006,4 hPa 0,0 l/m 2,3 km/h (1 Bft) N-NO 29 0 min 0,0 UV-I 0 W/m 2,3 C 3,0 km/h (1 Bft)
04.03.2024 01:41 3,6 C 1,6 C 91 % 1006,4 hPa 0,0 l/m 1,0 km/h (0 Bft) NO 35 0 min 0,0 UV-I 0 W/m 2,3 C 3,0 km/h (1 Bft)
04.03.2024 01:40 3,6 C 1,5 C 91 % 1006,3 hPa 0,0 l/m 0,0 km/h (0 Bft) O-NO 74 0 min 0,0 UV-I 0 W/m 2,3 C 3,0 km/h (1 Bft)
04.03.2024 01:39 3,7 C 1,5 C 91 % 1006,6 hPa 0,0 l/m 0,0 km/h (0 Bft) O 93 0 min 0,0 UV-I 0 W/m 2,4 C 3,0 km/h (1 Bft)
04.03.2024 01:38 3,7 C 1,5 C 91 % 1006,7 hPa 0,0 l/m 1,0 km/h (0 Bft) O-SO 123 0 min 0,0 UV-I 0 W/m 2,4 C 3,0 km/h (1 Bft)
04.03.2024 01:37 3,7 C 1,6 C 91 % 1006,5 hPa 0,0 l/m 1,0 km/h (0 Bft) O-SO 121 0 min 0,0 UV-I 0 W/m 2,4 C 3,0 km/h (1 Bft)
04.03.2024 01:36 3,7 C 1,6 C 91 % 1006,4 hPa 0,0 l/m 0,0 km/h (0 Bft) SO 128 0 min 0,0 UV-I 0 W/m 2,4 C 3,0 km/h (1 Bft)
04.03.2024 01:35 3,7 C 1,6 C 91 % 1006,5 hPa 0,0 l/m 0,0 km/h (0 Bft) SO 133 0 min 0,0 UV-I 0 W/m 2,4 C 3,0 km/h (1 Bft)
04.03.2024 01:34 3,7 C 1,7 C 91 % 1006,6 hPa 0,0 l/m 1,3 km/h (1 Bft) SO 142 0 min 0,0 UV-I 0 W/m 2,4 C 3,0 km/h (1 Bft)
04.03.2024 01:33 3,7 C 1,9 C 91 % 1006,6 hPa 0,0 l/m 0,0 km/h (0 Bft) O-SO 119 0 min 0,0 UV-I 0 W/m 2,4 C 3,0 km/h (1 Bft)
04.03.2024 01:32 3,7 C 2,2 C 91 % 1006,6 hPa 0,0 l/m 0,0 km/h (0 Bft) SO 124 0 min 0,0 UV-I 0 W/m 2,4 C 4,0 km/h (1 Bft)
04.03.2024 01:31 3,7 C 2,6 C 90 % 1006,2 hPa 0,0 l/m 0,0 km/h (0 Bft) S 172 0 min 0,0 UV-I 0 W/m 2,2 C 4,0 km/h (1 Bft)
04.03.2024 01:30 3,7 C 2,6 C 90 % 1006,4 hPa 0,0 l/m 1,0 km/h (0 Bft) S-SW 204 0 min 0,0 UV-I 0 W/m 2,2 C 4,0 km/h (1 Bft)
04.03.2024 01:29 3,7 C 2,7 C 90 % 1006,6 hPa 0,0 l/m 1,0 km/h (0 Bft) SW 222 0 min 0,0 UV-I 0 W/m 2,2 C 4,0 km/h (1 Bft)
04.03.2024 01:28 3,7 C 2,4 C 90 % 1006,5 hPa 0,0 l/m 1,3 km/h (1 Bft) SW 223 0 min 0,0 UV-I 0 W/m 2,2 C 6,0 km/h (2 Bft)
04.03.2024 01:27 3,7 C 2,1 C 90 % 1006,4 hPa 0,0 l/m 0,0 km/h (0 Bft) S-SO 166 0 min 0,0 UV-I 0 W/m 2,2 C 7,0 km/h (2 Bft)
04.03.2024 01:26 3,7 C 1,9 C 90 % 1006,5 hPa 0,0 l/m 3,2 km/h (1 Bft) SO 133 0 min 0,0 UV-I 0 W/m 2,2 C 7,0 km/h (2 Bft)
04.03.2024 01:25 3,7 C 1,9 C 90 % 1006,5 hPa 0,0 l/m 4,7 km/h (1 Bft) SO 126 0 min 0,0 UV-I 0 W/m 2,2 C 7,0 km/h (2 Bft)
04.03.2024 01:24 3,7 C 2,6 C 90 % 1006,3 hPa 0,0 l/m 2,0 km/h (1 Bft) S-SO 150 0 min 0,0 UV-I 0 W/m 2,2 C 4,0 km/h (1 Bft)
04.03.2024 01:23 3,7 C 2,3 C 90 % 1006,4 hPa 0,0 l/m 0,0 km/h (0 Bft) SW 224 0 min 0,0 UV-I 0 W/m 2,2 C 3,0 km/h (1 Bft)
04.03.2024 01:22 3,7 C 1,7 C 90 % 1006,4 hPa 0,0 l/m 0,0 km/h (0 Bft) SO 143 0 min 0,0 UV-I 0 W/m 2,2 C 3,0 km/h (1 Bft)
04.03.2024 01:21 3,7 C 1,7 C 90 % 1006,4 hPa 0,0 l/m 0,0 km/h (0 Bft) S-SW 194 0 min 0,0 UV-I 0 W/m 2,2 C 3,0 km/h (1 Bft)
04.03.2024 01:20 3,7 C 1,9 C 90 % 1006,5 hPa 0,0 l/m 1,0 km/h (0 Bft) S 178 0 min 0,0 UV-I 0 W/m 2,2 C 3,0 km/h (1 Bft)
04.03.2024 01:19 3,7 C 1,9 C 90 % 1006,7 hPa 0,0 l/m 0,0 km/h (0 Bft) SW 216 0 min 0,0 UV-I 0 W/m 2,2 C 4,0 km/h (1 Bft)
04.03.2024 01:18 3,7 C 2,1 C 90 % 1006,6 hPa 0,0 l/m 0,0 km/h (0 Bft) SO 137 0 min 0,0 UV-I 0 W/m 2,2 C 4,0 km/h (1 Bft)
04.03.2024 01:17 3,8 C 1,4 C 90 % 1006,5 hPa 0,0 l/m 1,6 km/h (1 Bft) O 84 0 min 0,0 UV-I 0 W/m 2,3 C 4,0 km/h (1 Bft)
04.03.2024 01:16 3,8 C 1,6 C 90 % 1006,3 hPa 0,0 l/m 2,9 km/h (1 Bft) SO 134 0 min 0,0 UV-I 0 W/m 2,3 C 4,0 km/h (1 Bft)
04.03.2024 01:15 3,8 C 1,8 C 90 % 1006,4 hPa 0,0 l/m 2,7 km/h (1 Bft) SO 134 0 min 0,0 UV-I 0 W/m 2,3 C 4,0 km/h (1 Bft)
04.03.2024 01:14 3,8 C 1,8 C 90 % 1006,6 hPa 0,0 l/m 3,3 km/h (1 Bft) SO 124 0 min 0,0 UV-I 0 W/m 2,3 C 4,0 km/h (1 Bft)
04.03.2024 01:13 3,8 C 2,1 C 90 % 1006,3 hPa 0,0 l/m 1,0 km/h (0 Bft) S-SO 147 0 min 0,0 UV-I 0 W/m 2,3 C 4,0 km/h (1 Bft)
04.03.2024 01:12 3,8 C 2,3 C 89 % 1006,3 hPa 0,0 l/m 1,0 km/h (0 Bft) N-NO 31 0 min 0,0 UV-I 0 W/m 2,2 C 5,0 km/h (1 Bft)
04.03.2024 01:11 3,8 C 2,6 C 89 % 1006,5 hPa 0,0 l/m 2,1 km/h (1 Bft) NO 48 0 min 0,0 UV-I 0 W/m 2,2 C 5,0 km/h (1 Bft)
04.03.2024 01:10 3,8 C 2,6 C 89 % 1006,2 hPa 0,0 l/m 1,4 km/h (1 Bft) O 96 0 min 0,0 UV-I 0 W/m 2,2 C 5,0 km/h (1 Bft)
04.03.2024 01:09 3,9 C 2,6 C 89 % 1006,4 hPa 0,0 l/m 1,3 km/h (1 Bft) O 83 0 min 0,0 UV-I 0 W/m 2,3 C 3,0 km/h (1 Bft)
04.03.2024 01:08 3,9 C 2,5 C 89 % 1006,3 hPa 0,0 l/m 2,9 km/h (1 Bft) N-NO 17 0 min 0,0 UV-I 0 W/m 2,3 C 5,0 km/h (1 Bft)
04.03.2024 01:07 3,9 C 1,9 C 89 % 1006,5 hPa 0,0 l/m 1,0 km/h (0 Bft) N-NO 32 0 min 0,0 UV-I 0 W/m 2,3 C 5,0 km/h (1 Bft)
04.03.2024 01:06 3,9 C 1,8 C 89 % 1006,4 hPa 0,0 l/m 3,1 km/h (1 Bft) O-NO 58 0 min 0,0 UV-I 0 W/m 2,3 C 5,0 km/h (1 Bft)
04.03.2024 01:05 3,9 C 1,6 C 89 % 1006,1 hPa 0,0 l/m 0,0 km/h (0 Bft) O-NO 62 0 min 0,0 UV-I 0 W/m 2,3 C 3,0 km/h (1 Bft)
04.03.2024 01:04 4,0 C 1,9 C 89 % 1006,3 hPa 0,0 l/m 0,0 km/h (0 Bft) O-SO 116 0 min 0,0 UV-I 0 W/m 2,4 C 3,0 km/h (1 Bft)
04.03.2024 01:03 4,0 C 2,1 C 89 % 1006,1 hPa 0,0 l/m 0,0 km/h (0 Bft) O-SO 113 0 min 0,0 UV-I 0 W/m 2,4 C 4,0 km/h (1 Bft)
04.03.2024 01:02 4,0 C 1,6 C 89 % 1006,4 hPa 0,0 l/m 0,0 km/h (0 Bft) O 87 0 min 0,0 UV-I 0 W/m 2,4 C 4,0 km/h (1 Bft)
04.03.2024 01:01 4,1 C 1,6 C 89 % 1006,3 hPa 0,0 l/m 2,6 km/h (1 Bft) O 81 0 min 0,0 UV-I 0 W/m 2,5 C 4,0 km/h (1 Bft)
04.03.2024 01:00 4,1 C 1,5 C 89 % 1006,3 hPa 0,0 l/m 0,0 km/h (0 Bft) SO 126 0 min 0,0 UV-I 0 W/m 2,5 C 2,0 km/h (1 Bft)
04.03.2024 00:59 4,1 C 1,7 C 89 % 1006,4 hPa 0,0 l/m 0,0 km/h (0 Bft) O-SO 103 0 min 0,0 UV-I 0 W/m 2,5 C 3,0 km/h (1 Bft)
04.03.2024 00:58 4,1 C 1,4 C 89 % 1006,2 hPa 0,0 l/m 0,0 km/h (0 Bft) O-SO 119 0 min 0,0 UV-I 0 W/m 2,5 C 3,0 km/h (1 Bft)
04.03.2024 00:57 4,2 C 1,9 C 89 % 1006,3 hPa 0,0 l/m 1,0 km/h (0 Bft) O-SO 115 0 min 0,0 UV-I 0 W/m 2,6 C 3,0 km/h (1 Bft)
04.03.2024 00:56 4,2 C 1,7 C 89 % 1006,2 hPa 0,0 l/m 0,0 km/h (0 Bft) O-SO 106 0 min 0,0 UV-I 0 W/m 2,6 C 4,0 km/h (1 Bft)
04.03.2024 00:55 4,2 C 1,7 C 89 % 1006,2 hPa 0,0 l/m 1,3 km/h (1 Bft) O 96 0 min 0,0 UV-I 0 W/m 2,6 C 4,0 km/h (1 Bft)
04.03.2024 00:54 4,2 C 1,3 C 89 % 1006,5 hPa 0,0 l/m 1,4 km/h (1 Bft) O-SO 103 0 min 0,0 UV-I 0 W/m 2,6 C 4,0 km/h (1 Bft)
04.03.2024 00:53 4,3 C 1,9 C 89 % 1006,3 hPa 0,0 l/m 0,0 km/h (0 Bft) SO 125 0 min 0,0 UV-I 0 W/m 2,7 C 3,0 km/h (1 Bft)
04.03.2024 00:52 4,3 C 1,7 C 89 % 1006,1 hPa 0,0 l/m 0,0 km/h (0 Bft) O 79 0 min 0,0 UV-I 0 W/m 2,7 C 3,0 km/h (1 Bft)
04.03.2024 00:51 4,3 C 1,4 C 89 % 1006,0 hPa 0,0 l/m 0,0 km/h (0 Bft) SO 124 0 min 0,0 UV-I 0 W/m 2,7 C 3,0 km/h (1 Bft)
04.03.2024 00:50 4,4 C 1,7 C 89 % 1006,1 hPa 0,0 l/m 0,0 km/h (0 Bft) O-SO 115 0 min 0,0 UV-I 0 W/m 2,7 C 3,0 km/h (1 Bft)
04.03.2024 00:49 4,4 C 1,7 C 89 % 1006,1 hPa 0,0 l/m 0,0 km/h (0 Bft) O-SO 103 0 min 0,0 UV-I 0 W/m 2,7 C 3,0 km/h (1 Bft)
04.03.2024 00:48 4,5 C 2,0 C 89 % 1006,3 hPa 0,0 l/m 0,0 km/h (0 Bft) O 89 0 min 0,0 UV-I 0 W/m 2,8 C 3,0 km/h (1 Bft)
04.03.2024 00:47 4,5 C 1,6 C 89 % 1006,2 hPa 0,0 l/m 0,0 km/h (0 Bft) O 84 0 min 0,0 UV-I 0 W/m 2,8 C 3,0 km/h (1 Bft)
04.03.2024 00:46 4,5 C 2,0 C 89 % 1006,2 hPa 0,0 l/m 0,0 km/h (0 Bft) O-NO 72 0 min 0,0 UV-I 0 W/m 2,8 C 3,0 km/h (1 Bft)
04.03.2024 00:45 4,6 C 2,7 C 89 % 1006,3 hPa 0,0 l/m 1,0 km/h (0 Bft) O 84 0 min 0,0 UV-I 0 W/m 2,9 C 3,0 km/h (1 Bft)
04.03.2024 00:44 4,6 C 2,4 C 89 % 1006,0 hPa 0,0 l/m 2,1 km/h (1 Bft) O 79 0 min 0,0 UV-I 0 W/m 2,9 C 3,0 km/h (1 Bft)
04.03.2024 00:43 4,6 C 2,2 C 89 % 1006,2 hPa 0,0 l/m 1,3 km/h (1 Bft) O 94 0 min 0,0 UV-I 0 W/m 2,9 C 3,0 km/h (1 Bft)
04.03.2024 00:42 4,7 C 2,0 C 89 % 1005,9 hPa 0,0 l/m 2,1 km/h (1 Bft) O 98 0 min 0,0 UV-I 0 W/m 3,0 C 3,0 km/h (1 Bft)
04.03.2024 00:41 4,7 C 2,0 C 89 % 1006,1 hPa 0,0 l/m 1,3 km/h (1 Bft) O 86 0 min 0,0 UV-I 0 W/m 3,0 C 3,0 km/h (1 Bft)
04.03.2024 00:40 4,7 C 2,5 C 89 % 1006,3 hPa 0,0 l/m 1,0 km/h (0 Bft) O 81 0 min 0,0 UV-I 0 W/m 3,0 C 3,0 km/h (1 Bft)
04.03.2024 00:39 4,7 C 2,6 C 89 % 1006,0 hPa 0,0 l/m 0,0 km/h (0 Bft) O-NO 72 0 min 0,0 UV-I 0 W/m 3,0 C 3,0 km/h (1 Bft)
04.03.2024 00:38 4,7 C 2,0 C 89 % 1006,0 hPa 0,0 l/m 1,0 km/h (0 Bft) O-NO 58 0 min 0,0 UV-I 0 W/m 3,0 C 3,0 km/h (1 Bft)
04.03.2024 00:37 4,8 C 2,2 C 89 % 1006,1 hPa 0,0 l/m 0,0 km/h (0 Bft) O 89 0 min 0,0 UV-I 0 W/m 3,1 C 5,0 km/h (1 Bft)
04.03.2024 00:36 4,8 C 2,6 C 89 % 1006,2 hPa 0,0 l/m 0,0 km/h (0 Bft) O-NO 73 0 min 0,0 UV-I 0 W/m 3,1 C 5,0 km/h (1 Bft)
04.03.2024 00:35 4,8 C 2,6 C 89 % 1006,3 hPa 0,0 l/m 2,2 km/h (1 Bft) O-NO 59 0 min 0,0 UV-I 0 W/m 3,1 C 5,0 km/h (1 Bft)
04.03.2024 00:34 4,8 C 2,3 C 89 % 1006,1 hPa 0,0 l/m 2,9 km/h (1 Bft) NO 52 0 min 0,0 UV-I 0 W/m 3,1 C 4,0 km/h (1 Bft)
04.03.2024 00:33 4,9 C 2,3 C 89 % 1006,0 hPa 0,0 l/m 2,7 km/h (1 Bft) NO 44 0 min 0,0 UV-I 0 W/m 3,2 C 4,0 km/h (1 Bft)
04.03.2024 00:32 4,9 C 1,9 C 89 % 1006,2 hPa 0,0 l/m 1,0 km/h (0 Bft) O-NO 78 0 min 0,0 UV-I 0 W/m 3,2 C 3,0 km/h (1 Bft)
04.03.2024 00:31 4,9 C 2,3 C 89 % 1006,2 hPa 0,0 l/m 0,0 km/h (0 Bft) O 87 0 min 0,0 UV-I 0 W/m 3,2 C 3,0 km/h (1 Bft)
04.03.2024 00:30 4,9 C 2,2 C 89 % 1006,2 hPa 0,0 l/m 1,0 km/h (0 Bft) O-NO 61 0 min 0,0 UV-I 0 W/m 3,2 C 3,0 km/h (1 Bft)
04.03.2024 00:29 4,9 C 2,3 C 89 % 1006,0 hPa 0,0 l/m 0,0 km/h (0 Bft) O 83 0 min 0,0 UV-I 0 W/m 3,2 C 3,0 km/h (1 Bft)
04.03.2024 00:28 4,9 C 2,3 C 89 % 1006,1 hPa 0,0 l/m 0,0 km/h (0 Bft) O 95 0 min 0,0 UV-I 0 W/m 3,2 C 3,0 km/h (1 Bft)
04.03.2024 00:27 4,9 C 2,8 C 89 % 1006,1 hPa 0,0 l/m 0,0 km/h (0 Bft) O-SO 110 0 min 0,0 UV-I 0 W/m 3,2 C 3,0 km/h (1 Bft)
04.03.2024 00:26 4,9 C 2,3 C 89 % 1006,0 hPa 0,0 l/m 0,0 km/h (0 Bft) O-SO 102 0 min 0,0 UV-I 0 W/m 3,2 C 3,0 km/h (1 Bft)
04.03.2024 00:25 4,9 C 2,4 C 89 % 1006,0 hPa 0,0 l/m 0,0 km/h (0 Bft) O-SO 110 0 min 0,0 UV-I 0 W/m 3,2 C 3,0 km/h (1 Bft)
04.03.2024 00:24 5,0 C 2,7 C 89 % 1006,1 hPa 0,0 l/m 0,0 km/h (0 Bft) NO 48 0 min 0,0 UV-I 0 W/m 3,3 C 3,0 km/h (1 Bft)
04.03.2024 00:23 5,0 C 2,6 C 89 % 1006,1 hPa 0,0 l/m 0,0 km/h (0 Bft) NO 44 0 min 0,0 UV-I 0 W/m 3,3 C 3,0 km/h (1 Bft)
04.03.2024 00:22 5,0 C 2,2 C 89 % 1006,1 hPa 0,0 l/m 1,0 km/h (0 Bft) O-SO 104 0 min 0,0 UV-I 0 W/m 3,3 C 3,0 km/h (1 Bft)
04.03.2024 00:21 5,0 C 2,4 C 88 % 1006,0 hPa 0,0 l/m 1,0 km/h (0 Bft) SO 128 0 min 0,0 UV-I 0 W/m 3,2 C 4,0 km/h (1 Bft)
04.03.2024 00:20 5,0 C 2,4 C 88 % 1006,2 hPa 0,0 l/m 0,0 km/h (0 Bft) N-NO 30 0 min 0,0 UV-I 0 W/m 3,2 C 4,0 km/h (1 Bft)
04.03.2024 00:19 5,1 C 2,4 C 88 % 1006,1 hPa 0,0 l/m 0,0 km/h (0 Bft) N 9 0 min 0,0 UV-I 0 W/m 3,3 C 4,0 km/h (1 Bft)
04.03.2024 00:18 5,0 C 2,8 C 88 % 1006,1 hPa 0,0 l/m 0,0 km/h (0 Bft) NO 54 0 min 0,0 UV-I 0 W/m 3,2 C 3,0 km/h (1 Bft)
04.03.2024 00:17 5,1 C 3,0 C 88 % 1006,1 hPa 0,0 l/m 1,0 km/h (0 Bft) O-NO 70 0 min 0,0 UV-I 0 W/m 3,3 C 3,0 km/h (1 Bft)
04.03.2024 00:16 5,1 C 2,6 C 88 % 1006,0 hPa 0,0 l/m 0,0 km/h (0 Bft) O-NO 78 0 min 0,0 UV-I 0 W/m 3,3 C 3,0 km/h (1 Bft)
04.03.2024 00:15 5,1 C 2,9 C 88 % 1006,0 hPa 0,0 l/m 0,0 km/h (0 Bft) N-NO 32 0 min 0,0 UV-I 0 W/m 3,3 C 4,0 km/h (1 Bft)
04.03.2024 00:14 5,1 C 3,5 C 88 % 1006,0 hPa 0,0 l/m 1,0 km/h (0 Bft) N 357 0 min 0,0 UV-I 0 W/m 3,3 C 4,0 km/h (1 Bft)
04.03.2024 00:13 5,1 C 3,3 C 88 % 1006,1 hPa 0,0 l/m 2,3 km/h (1 Bft) N-NO 14 0 min 0,0 UV-I 0 W/m 3,3 C 4,0 km/h (1 Bft)
04.03.2024 00:12 5,2 C 3,5 C 88 % 1006,1 hPa 0,0 l/m 1,0 km/h (0 Bft) NO 37 0 min 0,0 UV-I 0 W/m 3,4 C 5,0 km/h (1 Bft)
04.03.2024 00:11 5,2 C 3,5 C 88 % 1006,1 hPa 0,0 l/m 0,0 km/h (0 Bft) NO 53 0 min 0,0 UV-I 0 W/m 3,4 C 5,0 km/h (1 Bft)
04.03.2024 00:10 5,1 C 3,1 C 88 % 1005,9 hPa 0,0 l/m 2,9 km/h (1 Bft) NO 34 0 min 0,0 UV-I 0 W/m 3,3 C 5,0 km/h (1 Bft)
04.03.2024 00:09 5,2 C 3,0 C 88 % 1005,8 hPa 0,0 l/m 2,7 km/h (1 Bft) NO 42 0 min 0,0 UV-I 0 W/m 3,4 C 4,0 km/h (1 Bft)
04.03.2024 00:08 5,2 C 2,9 C 88 % 1006,0 hPa 0,0 l/m 2,5 km/h (1 Bft) NO 45 0 min 0,0 UV-I 0 W/m 3,4 C 4,0 km/h (1 Bft)
04.03.2024 00:07 5,2 C 2,7 C 88 % 1005,8 hPa 0,0 l/m 1,3 km/h (1 Bft) N-NO 25 0 min 0,0 UV-I 0 W/m 3,4 C 4,0 km/h (1 Bft)
04.03.2024 00:06 5,2 C 2,6 C 88 % 1006,0 hPa 0,0 l/m 2,1 km/h (1 Bft) NO 45 0 min 0,0 UV-I 0 W/m 3,4 C 3,0 km/h (1 Bft)
04.03.2024 00:05 5,3 C 2,6 C 88 % 1005,8 hPa 0,0 l/m 1,3 km/h (1 Bft) O 95 0 min 0,0 UV-I 0 W/m 3,5 C 3,0 km/h (1 Bft)
04.03.2024 00:04 5,2 C 2,3 C 88 % 1005,9 hPa 0,0 l/m 1,0 km/h (0 Bft) NO 53 0 min 0,0 UV-I 0 W/m 3,4 C 3,0 km/h (1 Bft)
04.03.2024 00:03 5,3 C 2,7 C 88 % 1006,2 hPa 0,0 l/m 0,0 km/h (0 Bft) N-NO 23 0 min 0,0 UV-I 0 W/m 3,5 C 3,0 km/h (1 Bft)
04.03.2024 00:02 5,3 C 2,9 C 88 % 1005,8 hPa 0,0 l/m 0,0 km/h (0 Bft) N 7 0 min 0,0 UV-I 0 W/m 3,5 C 4,0 km/h (1 Bft)
04.03.2024 00:01 5,3 C 2,7 C 88 % 1006,0 hPa 0,0 l/m 1,4 km/h (1 Bft) N-NO 18 0 min 0,0 UV-I 0 W/m 3,5 C 4,0 km/h (1 Bft)
04.03.2024 00:00 5,3 C 2,8 C 88 % 1006,0 hPa 0,0 l/m 1,0 km/h (0 Bft) N-NO 28 0 min 0,0 UV-I 0 W/m 3,5 C 4,0 km/h (1 Bft)
03.03.2024 23:59 5,3 C 3,3 C 88 % 1005,6 hPa 0,0 l/m 1,0 km/h (0 Bft) N 359 0 min 0,0 UV-I 0 W/m 3,5 C 5,0 km/h (1 Bft)
03.03.2024 23:58 5,3 C 2,9 C 88 % 1005,8 hPa 0,0 l/m 2,9 km/h (1 Bft) N-NO 16 0 min 0,0 UV-I 0 W/m 3,5 C 5,0 km/h (1 Bft)
03.03.2024 23:57 5,3 C 2,9 C 88 % 1005,8 hPa 0,0 l/m 2,7 km/h (1 Bft) N-NO 21 0 min 0,0 UV-I 0 W/m 3,5 C 5,0 km/h (1 Bft)
03.03.2024 23:56 5,3 C 2,9 C 88 % 1005,9 hPa 0,0 l/m 1,0 km/h (0 Bft) N-NO 14 0 min 0,0 UV-I 0 W/m 3,5 C 4,0 km/h (1 Bft)
03.03.2024 23:55 5,3 C 2,9 C 88 % 1006,0 hPa 0,0 l/m 0,0 km/h (0 Bft) N-NO 22 0 min 0,0 UV-I 0 W/m 3,5 C 4,0 km/h (1 Bft)
03.03.2024 23:54 5,3 C 3,0 C 88 % 1005,8 hPa 0,0 l/m 0,0 km/h (0 Bft) N-NO 18 0 min 0,0 UV-I 0 W/m 3,5 C 4,0 km/h (1 Bft)
03.03.2024 23:53 5,3 C 2,9 C 88 % 1005,8 hPa 0,0 l/m 1,0 km/h (0 Bft) N-NO 18 0 min 0,0 UV-I 0 W/m 3,5 C 4,0 km/h (1 Bft)
03.03.2024 23:52 5,3 C 2,9 C 88 % 1005,9 hPa 0,0 l/m 0,0 km/h (0 Bft) N-NO 24 0 min 0,0 UV-I 0 W/m 3,5 C 4,0 km/h (1 Bft)
03.03.2024 23:51 5,3 C 3,1 C 88 % 1005,8 hPa 0,0 l/m 1,0 km/h (0 Bft) N-NO 33 0 min 0,0 UV-I 0 W/m 3,5 C 4,0 km/h (1 Bft)
03.03.2024 23:50 5,4 C 2,9 C 88 % 1005,7 hPa 0,0 l/m 2,1 km/h (1 Bft) O-NO 60 0 min 0,0 UV-I 0 W/m 3,6 C 4,0 km/h (1 Bft)
03.03.2024 23:49 5,3 C 3,0 C 88 % 1005,8 hPa 0,0 l/m 1,4 km/h (1 Bft) O 98 0 min 0,0 UV-I 0 W/m 3,5 C 4,0 km/h (1 Bft)
03.03.2024 23:48 5,4 C 3,0 C 88 % 1005,7 hPa 0,0 l/m 0,0 km/h (0 Bft) O-NO 72 0 min 0,0 UV-I 0 W/m 3,6 C 3,0 km/h (1 Bft)
03.03.2024 23:47 5,4 C 3,4 C 87 % 1006,0 hPa 0,0 l/m 1,0 km/h (0 Bft) NO 42 0 min 0,0 UV-I 0 W/m 3,4 C 4,0 km/h (1 Bft)
03.03.2024 23:46 5,4 C 3,9 C 87 % 1005,7 hPa 0,0 l/m 2,9 km/h (1 Bft) NO 45 0 min 0,0 UV-I 0 W/m 3,4 C 4,0 km/h (1 Bft)
03.03.2024 23:45 5,4 C 4,1 C 87 % 1005,9 hPa 0,0 l/m 0,0 km/h (0 Bft) NO 51 0 min 0,0 UV-I 0 W/m 3,4 C 4,0 km/h (1 Bft)
03.03.2024 23:44 5,4 C 4,1 C 87 % 1005,8 hPa 0,0 l/m 1,0 km/h (0 Bft) N 359 0 min 0,0 UV-I 0 W/m 3,4 C 4,0 km/h (1 Bft)
03.03.2024 23:43 5,5 C 4,0 C 87 % 1005,6 hPa 0,0 l/m 2,3 km/h (1 Bft) N-NO 16 0 min 0,0 UV-I 0 W/m 3,5 C 4,0 km/h (1 Bft)
03.03.2024 23:42 5,4 C 3,7 C 87 % 1006,0 hPa 0,0 l/m 2,5 km/h (1 Bft) N 7 0 min 0,0 UV-I 0 W/m 3,4 C 4,0 km/h (1 Bft)
03.03.2024 23:41 5,5 C 3,7 C 87 % 1005,8 hPa 0,0 l/m 2,9 km/h (1 Bft) N-NO 27 0 min 0,0 UV-I 0 W/m 3,5 C 4,0 km/h (1 Bft)
03.03.2024 23:40 5,5 C 3,6 C 87 % 1006,1 hPa 0,0 l/m 1,4 km/h (1 Bft) N-NO 17 0 min 0,0 UV-I 0 W/m 3,5 C 4,0 km/h (1 Bft)
03.03.2024 23:39 5,5 C 3,6 C 87 % 1005,7 hPa 0,0 l/m 1,0 km/h (0 Bft) N-NO 22 0 min 0,0 UV-I 0 W/m 3,5 C 3,0 km/h (1 Bft)
03.03.2024 23:38 5,5 C 3,7 C 87 % 1005,9 hPa 0,0 l/m 0,0 km/h (0 Bft) N-NO 28 0 min 0,0 UV-I 0 W/m 3,5 C 4,0 km/h (1 Bft)
03.03.2024 23:37 5,5 C 3,8 C 87 % 1006,1 hPa 0,0 l/m 1,4 km/h (1 Bft) N-NO 20 0 min 0,0 UV-I 0 W/m 3,5 C 5,0 km/h (1 Bft)
03.03.2024 23:36 5,5 C 3,6 C 87 % 1006,0 hPa 0,0 l/m 2,9 km/h (1 Bft) N-NO 28 0 min 0,0 UV-I 0 W/m 3,5 C 5,0 km/h (1 Bft)
03.03.2024 23:35 5,6 C 3,5 C 87 % 1005,9 hPa 0,0 l/m 3,1 km/h (1 Bft) N-NO 33 0 min 0,0 UV-I 0 W/m 3,6 C 4,0 km/h (1 Bft)
03.03.2024 23:34 5,6 C 3,3 C 87 % 1005,9 hPa 0,0 l/m 1,0 km/h (0 Bft) NO 43 0 min 0,0 UV-I 0 W/m 3,6 C 3,0 km/h (1 Bft)
03.03.2024 23:33 5,6 C 3,4 C 87 % 1005,8 hPa 0,0 l/m 0,0 km/h (0 Bft) O-NO 69 0 min 0,0 UV-I 0 W/m 3,6 C 3,0 km/h (1 Bft)
03.03.2024 23:32 5,6 C 3,4 C 87 % 1005,9 hPa 0,0 l/m 0,0 km/h (0 Bft) O 83 0 min 0,0 UV-I 0 W/m 3,6 C 3,0 km/h (1 Bft)
03.03.2024 23:31 5,6 C 3,6 C 87 % 1005,8 hPa 0,0 l/m 0,0 km/h (0 Bft) O 94 0 min 0,0 UV-I 0 W/m 3,6 C 5,0 km/h (1 Bft)
03.03.2024 23:30 5,6 C 3,1 C 87 % 1005,8 hPa 0,0 l/m 1,3 km/h (1 Bft) N-NO 33 0 min 0,0 UV-I 0 W/m 3,6 C 5,0 km/h (1 Bft)
03.03.2024 23:29 5,7 C 3,3 C 87 % 1006,0 hPa 0,0 l/m 2,9 km/h (1 Bft) NO 41 0 min 0,0 UV-I 0 W/m 3,7 C 4,0 km/h (1 Bft)
03.03.2024 23:28 5,7 C 3,4 C 87 % 1005,8 hPa 0,0 l/m 0,0 km/h (0 Bft) NO 38 0 min 0,0 UV-I 0 W/m 3,7 C 3,0 km/h (1 Bft)
03.03.2024 23:27 5,7 C 3,3 C 87 % 1006,0 hPa 0,0 l/m 1,4 km/h (1 Bft) NO 54 0 min 0,0 UV-I 0 W/m 3,7 C 3,0 km/h (1 Bft)
03.03.2024 23:26 5,7 C 3,0 C 87 % 1005,9 hPa 0,0 l/m 0,0 km/h (0 Bft) O 79 0 min 0,0 UV-I 0 W/m 3,7 C 3,0 km/h (1 Bft)
03.03.2024 23:25 5,8 C 2,9 C 86 % 1005,9 hPa 0,0 l/m 0,0 km/h (0 Bft) O-NO 58 0 min 0,0 UV-I 0 W/m 3,6 C 3,0 km/h (1 Bft)
03.03.2024 23:24 5,8 C 3,2 C 86 % 1006,0 hPa 0,0 l/m 1,0 km/h (0 Bft) NO 54 0 min 0,0 UV-I 0 W/m 3,6 C 3,0 km/h (1 Bft)
03.03.2024 23:23 5,8 C 3,5 C 86 % 1005,9 hPa 0,0 l/m 1,0 km/h (0 Bft) NO 44 0 min 0,0 UV-I 0 W/m 3,6 C 4,0 km/h (1 Bft)
03.03.2024 23:22 5,8 C 3,1 C 86 % 1006,1 hPa 0,0 l/m 1,3 km/h (1 Bft) NO 45 0 min 0,0 UV-I 0 W/m 3,6 C 4,0 km/h (1 Bft)
03.03.2024 23:21 5,8 C 3,2 C 86 % 1005,8 hPa 0,0 l/m 2,3 km/h (1 Bft) O-SO 111 0 min 0,0 UV-I 0 W/m 3,6 C 3,0 km/h (1 Bft)
03.03.2024 23:20 5,8 C 3,4 C 86 % 1005,8 hPa 0,0 l/m 0,0 km/h (0 Bft) O 83 0 min 0,0 UV-I 0 W/m 3,6 C 3,0 km/h (1 Bft)
03.03.2024 23:19 5,9 C 3,3 C 86 % 1005,8 hPa 0,0 l/m 0,0 km/h (0 Bft) O-NO 74 0 min 0,0 UV-I 0 W/m 3,7 C 3,0 km/h (1 Bft)
03.03.2024 23:18 5,9 C 3,5 C 86 % 1005,8 hPa 0,0 l/m 0,0 km/h (0 Bft) NO 44 0 min 0,0 UV-I 0 W/m 3,7 C 3,0 km/h (1 Bft)
03.03.2024 23:17 5,9 C 3,9 C 86 % 1005,8 hPa 0,0 l/m 0,0 km/h (0 Bft) NO 54 0 min 0,0 UV-I 0 W/m 3,7 C 3,0 km/h (1 Bft)
03.03.2024 23:16 5,9 C 3,9 C 86 % 1005,7 hPa 0,0 l/m 1,0 km/h (0 Bft) O-NO 61 0 min 0,0 UV-I 0 W/m 3,7 C 3,0 km/h (1 Bft)
03.03.2024 23:15 5,9 C 3,7 C 87 % 1005,9 hPa 0,0 l/m 0,0 km/h (0 Bft) NO 54 0 min 0,0 UV-I 0 W/m 3,9 C 3,0 km/h (1 Bft)
03.03.2024 23:14 5,9 C 3,7 C 86 % 1006,0 hPa 0,0 l/m 0,0 km/h (0 Bft) NO 46 0 min 0,0 UV-I 0 W/m 3,7 C 3,0 km/h (1 Bft)
03.03.2024 23:13 6,0 C 3,7 C 86 % 1005,8 hPa 0,0 l/m 1,0 km/h (0 Bft) NO 43 0 min 0,0 UV-I 0 W/m 3,8 C 3,0 km/h (1 Bft)
03.03.2024 23:12 6,0 C 3,8 C 87 % 1005,7 hPa 0,0 l/m 2,3 km/h (1 Bft) NO 46 0 min 0,0 UV-I 0 W/m 4,0 C 3,0 km/h (1 Bft)
03.03.2024 23:11 6,0 C 3,7 C 86 % 1005,6 hPa 0,0 l/m 1,0 km/h (0 Bft) O 90 0 min 0,0 UV-I 0 W/m 3,8 C 3,0 km/h (1 Bft)
03.03.2024 23:10 6,0 C 3,8 C 86 % 1005,7 hPa 0,0 l/m 0,0 km/h (0 Bft) O-NO 60 0 min 0,0 UV-I 0 W/m 3,8 C 3,0 km/h (1 Bft)
03.03.2024 23:09 6,0 C 4,0 C 86 % 1005,8 hPa 0,0 l/m 1,0 km/h (0 Bft) O-NO 59 0 min 0,0 UV-I 0 W/m 3,8 C 4,0 km/h (1 Bft)
03.03.2024 23:08 6,0 C 3,7 C 86 % 1005,8 hPa 0,0 l/m 1,0 km/h (0 Bft) O-NO 58 0 min 0,0 UV-I 0 W/m 3,8 C 4,0 km/h (1 Bft)
03.03.2024 23:07 6,0 C 3,9 C 86 % 1005,8 hPa 0,0 l/m 1,0 km/h (0 Bft) NO 42 0 min 0,0 UV-I 0 W/m 3,8 C 4,0 km/h (1 Bft)
03.03.2024 23:06 6,0 C 3,8 C 86 % 1005,7 hPa 0,0 l/m 1,0 km/h (0 Bft) NO 55 0 min 0,0 UV-I 0 W/m 3,8 C 5,0 km/h (1 Bft)
03.03.2024 23:05 6,0 C 4,0 C 86 % 1005,6 hPa 0,0 l/m 2,7 km/h (1 Bft) NO 41 0 min 0,0 UV-I 0 W/m 3,8 C 5,0 km/h (1 Bft)
03.03.2024 23:04 6,0 C 3,9 C 86 % 1005,8 hPa 0,0 l/m 0,0 km/h (0 Bft) O-SO 120 0 min 0,0 UV-I 0 W/m 3,8 C 5,0 km/h (1 Bft)
03.03.2024 23:03 6,0 C 3,8 C 86 % 1005,6 hPa 0,0 l/m 1,0 km/h (0 Bft) O-NO 68 0 min 0,0 UV-I 0 W/m 3,8 C 4,0 km/h (1 Bft)
03.03.2024 23:02 6,1 C 3,6 C 86 % 1005,6 hPa 0,0 l/m 0,0 km/h (0 Bft) O-SO 104 0 min 0,0 UV-I 0 W/m 3,9 C 4,0 km/h (1 Bft)
03.03.2024 23:01 6,0 C 3,7 C 86 % 1005,6 hPa 0,0 l/m 0,0 km/h (0 Bft) O 87 0 min 0,0 UV-I 0 W/m 3,8 C 4,0 km/h (1 Bft)
03.03.2024 23:00 6,1 C 3,6 C 86 % 1005,5 hPa 0,0 l/m 0,0 km/h (0 Bft) O 89 0 min 0,0 UV-I 0 W/m 3,9 C 3,0 km/h (1 Bft)
03.03.2024 22:59 6,1 C 3,6 C 86 % 1005,6 hPa 0,0 l/m 1,0 km/h (0 Bft) O 99 0 min 0,0 UV-I 0 W/m 3,9 C 3,0 km/h (1 Bft)
03.03.2024 22:58 6,1 C 3,8 C 86 % 1005,8 hPa 0,0 l/m 0,0 km/h (0 Bft) O-SO 113 0 min 0,0 UV-I 0 W/m 3,9 C 3,0 km/h (1 Bft)
03.03.2024 22:57 6,1 C 3,8 C 86 % 1005,5 hPa 0,0 l/m 1,0 km/h (0 Bft) O-NO 65 0 min 0,0 UV-I 0 W/m 3,9 C 3,0 km/h (1 Bft)
03.03.2024 22:56 6,1 C 3,7 C 86 % 1005,5 hPa 0,0 l/m 0,0 km/h (0 Bft) N-NO 21 0 min 0,0 UV-I 0 W/m 3,9 C 3,0 km/h (1 Bft)
03.03.2024 22:55 6,1 C 4,1 C 86 % 1005,7 hPa 0,0 l/m 0,0 km/h (0 Bft) NO 46 0 min 0,0 UV-I 0 W/m 3,9 C 3,0 km/h (1 Bft)
03.03.2024 22:54 6,1 C 3,9 C 86 % 1005,5 hPa 0,0 l/m 0,0 km/h (0 Bft) NO 56 0 min 0,0 UV-I 0 W/m 3,9 C 4,0 km/h (1 Bft)
03.03.2024 22:53 6,2 C 3,8 C 86 % 1005,7 hPa 0,0 l/m 0,0 km/h (0 Bft) NO 42 0 min 0,0 UV-I 0 W/m 4,0 C 4,0 km/h (1 Bft)
03.03.2024 22:52 6,2 C 3,8 C 86 % 1005,5 hPa 0,0 l/m 1,3 km/h (1 Bft) N-NO 23 0 min 0,0 UV-I 0 W/m 4,0 C 4,0 km/h (1 Bft)
03.03.2024 22:51 6,2 C 3,8 C 86 % 1005,6 hPa 0,0 l/m 0,0 km/h (0 Bft) O-SO 114 0 min 0,0 UV-I 0 W/m 4,0 C 3,0 km/h (1 Bft)
03.03.2024 22:50 6,1 C 3,7 C 85 % 1005,6 hPa 0,0 l/m 0,0 km/h (0 Bft) O 88 0 min 0,0 UV-I 0 W/m 3,8 C 3,0 km/h (1 Bft)
03.03.2024 22:49 6,2 C 4,1 C 85 % 1005,6 hPa 0,0 l/m 0,0 km/h (0 Bft) O-SO 119 0 min 0,0 UV-I 0 W/m 3,9 C 3,0 km/h (1 Bft)
03.03.2024 22:48 6,2 C 4,0 C 85 % 1005,6 hPa 0,0 l/m 0,0 km/h (0 Bft) O-SO 102 0 min 0,0 UV-I 0 W/m 3,9 C 4,0 km/h (1 Bft)
03.03.2024 22:47 6,2 C 4,1 C 85 % 1005,5 hPa 0,0 l/m 1,0 km/h (0 Bft) NO 54 0 min 0,0 UV-I 0 W/m 3,9 C 4,0 km/h (1 Bft)
03.03.2024 22:46 6,2 C 4,5 C 85 % 1005,7 hPa 0,0 l/m 0,0 km/h (0 Bft) O-SO 119 0 min 0,0 UV-I 0 W/m 3,9 C 4,0 km/h (1 Bft)
03.03.2024 22:45 6,2 C 4,7 C 85 % 1005,6 hPa 0,0 l/m 1,0 km/h (0 Bft) O-SO 107 0 min 0,0 UV-I 0 W/m 3,9 C 5,0 km/h (1 Bft)
03.03.2024 22:44 6,2 C 4,5 C 85 % 1005,8 hPa 0,0 l/m 0,0 km/h (0 Bft) NO 42 0 min 0,0 UV-I 0 W/m 3,9 C 5,0 km/h (1 Bft)
03.03.2024 22:43 6,2 C 4,3 C 85 % 1005,6 hPa 0,0 l/m 2,1 km/h (1 Bft) O-NO 74 0 min 0,0 UV-I 0 W/m 3,9 C 5,0 km/h (1 Bft)
03.03.2024 22:42 6,3 C 4,3 C 85 % 1005,5 hPa 0,0 l/m 0,0 km/h (0 Bft) O 93 0 min 0,0 UV-I 0 W/m 4,0 C 3,0 km/h (1 Bft)
03.03.2024 22:41 6,3 C 3,9 C 85 % 1005,9 hPa 0,0 l/m 0,0 km/h (0 Bft) O 90 0 min 0,0 UV-I 0 W/m 4,0 C 3,0 km/h (1 Bft)
03.03.2024 22:40 6,3 C 4,1 C 85 % 1005,6 hPa 0,0 l/m 0,0 km/h (0 Bft) N-NO 32 0 min 0,0 UV-I 0 W/m 4,0 C 3,0 km/h (1 Bft)
03.03.2024 22:39 6,3 C 3,9 C 85 % 1005,5 hPa 0,0 l/m 0,0 km/h (0 Bft) NO 49 0 min 0,0 UV-I 0 W/m 4,0 C 3,0 km/h (1 Bft)
03.03.2024 22:38 6,3 C 3,8 C 85 % 1005,7 hPa 0,0 l/m 0,0 km/h (0 Bft) NO 35 0 min 0,0 UV-I 0 W/m 4,0 C 3,0 km/h (1 Bft)
03.03.2024 22:37 6,4 C 3,8 C 84 % 1005,6 hPa 0,0 l/m 0,0 km/h (0 Bft) NO 48 0 min 0,0 UV-I 0 W/m 3,9 C 4,0 km/h (1 Bft)
03.03.2024 22:36 6,4 C 3,8 C 84 % 1005,6 hPa 0,0 l/m 0,0 km/h (0 Bft) NO 48 0 min 0,0 UV-I 0 W/m 3,9 C 4,0 km/h (1 Bft)
03.03.2024 22:35 6,4 C 3,9 C 84 % 1005,6 hPa 0,0 l/m 1,4 km/h (1 Bft) N-NO 33 0 min 0,0 UV-I 0 W/m 3,9 C 4,0 km/h (1 Bft)
03.03.2024 22:34 6,4 C 3,9 C 84 % 1005,6 hPa 0,0 l/m 2,3 km/h (1 Bft) NO 53 0 min 0,0 UV-I 0 W/m 3,9 C 3,0 km/h (1 Bft)
03.03.2024 22:33 6,4 C 4,1 C 84 % 1005,6 hPa 0,0 l/m 0,0 km/h (0 Bft) NO 51 0 min 0,0 UV-I 0 W/m 3,9 C 3,0 km/h (1 Bft)
03.03.2024 22:32 6,4 C 4,2 C 84 % 1005,7 hPa 0,0 l/m 0,0 km/h (0 Bft) NO 54 0 min 0,0 UV-I 0 W/m 3,9 C 4,0 km/h (1 Bft)
03.03.2024 22:31 6,5 C 4,6 C 84 % 1005,4 hPa 0,0 l/m 2,6 km/h (1 Bft) NO 46 0 min 0,0 UV-I 0 W/m 4,0 C 4,0 km/h (1 Bft)
03.03.2024 22:30 6,5 C 4,5 C 84 % 1005,5 hPa 0,0 l/m 2,1 km/h (1 Bft) NO 37 0 min 0,0 UV-I 0 W/m 4,0 C 4,0 km/h (1 Bft)
03.03.2024 22:29 6,5 C 4,0 C 84 % 1005,6 hPa 0,0 l/m 1,3 km/h (1 Bft) N-NO 25 0 min 0,0 UV-I 0 W/m 4,0 C 4,0 km/h (1 Bft)
03.03.2024 22:28 6,6 C 4,0 C 84 % 1005,7 hPa 0,0 l/m 2,3 km/h (1 Bft) N-NO 33 0 min 0,0 UV-I 0 W/m 4,1 C 4,0 km/h (1 Bft)
03.03.2024 22:27 6,6 C 4,0 C 84 % 1005,6 hPa 0,0 l/m 1,0 km/h (0 Bft) N-NO 33 0 min 0,0 UV-I 0 W/m 4,1 C 4,0 km/h (1 Bft)
03.03.2024 22:26 6,6 C 4,0 C 84 % 1005,5 hPa 0,0 l/m 0,0 km/h (0 Bft) NO 45 0 min 0,0 UV-I 0 W/m 4,1 C 3,0 km/h (1 Bft)
03.03.2024 22:25 6,6 C 4,1 C 84 % 1005,6 hPa 0,0 l/m 1,0 km/h (0 Bft) NO 49 0 min 0,0 UV-I 0 W/m 4,1 C 3,0 km/h (1 Bft)
03.03.2024 22:24 6,6 C 4,1 C 84 % 1005,4 hPa 0,0 l/m 2,1 km/h (1 Bft) O-NO 60 0 min 0,0 UV-I 0 W/m 4,1 C 3,0 km/h (1 Bft)
03.03.2024 22:23 6,7 C 4,3 C 84 % 1005,5 hPa 0,0 l/m 0,0 km/h (0 Bft) O-SO 103 0 min 0,0 UV-I 0 W/m 4,2 C 3,0 km/h (1 Bft)
03.03.2024 22:22 6,7 C 4,3 C 84 % 1005,6 hPa 0,0 l/m 0,0 km/h (0 Bft) O 94 0 min 0,0 UV-I 0 W/m 4,2 C 4,0 km/h (1 Bft)
03.03.2024 22:21 6,7 C 4,3 C 84 % 1005,5 hPa 0,0 l/m 2,1 km/h (1 Bft) O-NO 71 0 min 0,0 UV-I 0 W/m 4,2 C 4,0 km/h (1 Bft)
03.03.2024 22:20 6,7 C 4,5 C 84 % 1005,4 hPa 0,0 l/m 2,3 km/h (1 Bft) NO 54 0 min 0,0 UV-I 0 W/m 4,2 C 4,0 km/h (1 Bft)
03.03.2024 22:19 6,7 C 4,6 C 83 % 1005,4 hPa 0,0 l/m 2,3 km/h (1 Bft) NO 42 0 min 0,0 UV-I 0 W/m 4,0 C 4,0 km/h (1 Bft)
03.03.2024 22:18 6,8 C 4,6 C 83 % 1005,4 hPa 0,0 l/m 0,0 km/h (0 Bft) NO 52 0 min 0,0 UV-I 0 W/m 4,1 C 4,0 km/h (1 Bft)
03.03.2024 22:17 6,8 C 5,0 C 83 % 1005,4 hPa 0,0 l/m 1,0 km/h (0 Bft) N-NO 23 0 min 0,0 UV-I 0 W/m 4,1 C 3,0 km/h (1 Bft)
03.03.2024 22:16 6,8 C 5,4 C 83 % 1005,7 hPa 0,0 l/m 1,0 km/h (0 Bft) NO 51 0 min 0,0 UV-I 0 W/m 4,1 C 4,0 km/h (1 Bft)
03.03.2024 22:15 6,8 C 5,7 C 83 % 1005,6 hPa 0,0 l/m 2,5 km/h (1 Bft) N-NO 27 0 min 0,0 UV-I 0 W/m 4,1 C 5,0 km/h (1 Bft)
03.03.2024 22:14 6,9 C 5,5 C 83 % 1005,4 hPa 0,0 l/m 1,4 km/h (1 Bft) N 2 0 min 0,0 UV-I 0 W/m 4,2 C 5,0 km/h (1 Bft)
03.03.2024 22:13 6,9 C 5,2 C 83 % 1005,4 hPa 0,0 l/m 2,7 km/h (1 Bft) N 356 0 min 0,0 UV-I 0 W/m 4,2 C 5,0 km/h (1 Bft)
03.03.2024 22:12 6,9 C 5,2 C 83 % 1005,5 hPa 0,0 l/m 2,3 km/h (1 Bft) N-NO 24 0 min 0,0 UV-I 0 W/m 4,2 C 4,0 km/h (1 Bft)
03.03.2024 22:11 6,9 C 5,1 C 83 % 1005,4 hPa 0,0 l/m 0,0 km/h (0 Bft) N-NO 24 0 min 0,0 UV-I 0 W/m 4,2 C 3,0 km/h (1 Bft)
03.03.2024 22:10 6,9 C 5,2 C 83 % 1005,4 hPa 0,0 l/m 0,0 km/h (0 Bft) N-NO 16 0 min 0,0 UV-I 0 W/m 4,2 C 3,0 km/h (1 Bft)
03.03.2024 22:09 7,0 C 5,6 C 83 % 1005,2 hPa 0,0 l/m 1,3 km/h (1 Bft) N-NO 20 0 min 0,0 UV-I 0 W/m 4,3 C 3,0 km/h (1 Bft)
03.03.2024 22:08 7,0 C 5,5 C 83 % 1005,4 hPa 0,0 l/m 0,0 km/h (0 Bft) O 91 0 min 0,0 UV-I 0 W/m 4,3 C 4,0 km/h (1 Bft)
03.03.2024 22:07 7,0 C 5,5 C 83 % 1005,5 hPa 0,0 l/m 1,0 km/h (0 Bft) N 1 0 min 0,0 UV-I 0 W/m 4,3 C 4,0 km/h (1 Bft)
03.03.2024 22:06 7,0 C 5,2 C 83 % 1005,5 hPa 0,0 l/m 2,7 km/h (1 Bft) N-NO 27 0 min 0,0 UV-I 0 W/m 4,3 C 4,0 km/h (1 Bft)
03.03.2024 22:05 7,1 C 5,3 C 83 % 1005,7 hPa 0,0 l/m 0,0 km/h (0 Bft) N-NO 22 0 min 0,0 UV-I 0 W/m 4,4 C 4,0 km/h (1 Bft)
03.03.2024 22:04 7,1 C 5,6 C 83 % 1005,6 hPa 0,0 l/m 0,0 km/h (0 Bft) N-NO 30 0 min 0,0 UV-I 0 W/m 4,4 C 4,0 km/h (1 Bft)
03.03.2024 22:03 7,1 C 5,7 C 83 % 1005,3 hPa 0,0 l/m 0,0 km/h (0 Bft) N 5 0 min 0,0 UV-I 0 W/m 4,4 C 4,0 km/h (1 Bft)
03.03.2024 22:02 7,1 C 5,6 C 83 % 1005,5 hPa 0,0 l/m 0,0 km/h (0 Bft) N 360 0 min 0,0 UV-I 0 W/m 4,4 C 4,0 km/h (1 Bft)
03.03.2024 22:01 7,1 C 5,5 C 83 % 1005,4 hPa 0,0 l/m 1,3 km/h (1 Bft) N 359 0 min 0,0 UV-I 0 W/m 4,4 C 3,0 km/h (1 Bft)
03.03.2024 22:00 7,1 C 5,3 C 83 % 1005,5 hPa 0,0 l/m 1,0 km/h (0 Bft) N 10 0 min 0,0 UV-I 0 W/m 4,4 C 3,0 km/h (1 Bft)
03.03.2024 21:59 7,2 C 5,3 C 83 % 1005,3 hPa 0,0 l/m 0,0 km/h (0 Bft) N-NO 19 0 min 0,0 UV-I 0 W/m 4,5 C 4,0 km/h (1 Bft)
03.03.2024 21:58 7,2 C 5,2 C 83 % 1005,4 hPa 0,0 l/m 1,3 km/h (1 Bft) N-NO 22 0 min 0,0 UV-I 0 W/m 4,5 C 4,0 km/h (1 Bft)
03.03.2024 21:57 7,2 C 4,8 C 83 % 1005,3 hPa 0,0 l/m 1,4 km/h (1 Bft) NO 38 0 min 0,0 UV-I 0 W/m 4,5 C 4,0 km/h (1 Bft)
03.03.2024 21:56 7,2 C 4,9 C 83 % 1005,4 hPa 0,0 l/m 2,5 km/h (1 Bft) NO 38 0 min 0,0 UV-I 0 W/m 4,5 C 4,0 km/h (1 Bft)
03.03.2024 21:55 7,2 C 5,0 C 83 % 1005,5 hPa 0,0 l/m 2,1 km/h (1 Bft) N-NO 17 0 min 0,0 UV-I 0 W/m 4,5 C 3,0 km/h (1 Bft)
03.03.2024 21:54 7,2 C 5,1 C 83 % 1005,3 hPa 0,0 l/m 0,0 km/h (0 Bft) NO 34 0 min 0,0 UV-I 0 W/m 4,5 C 3,0 km/h (1 Bft)
03.03.2024 21:53 7,2 C 5,1 C 82 % 1005,5 hPa 0,0 l/m 0,0 km/h (0 Bft) N-NO 29 0 min 0,0 UV-I 0 W/m 4,3 C 3,0 km/h (1 Bft)
03.03.2024 21:52 7,2 C 5,5 C 82 % 1005,4 hPa 0,0 l/m 1,0 km/h (0 Bft) N 11 0 min 0,0 UV-I 0 W/m 4,3 C 3,0 km/h (1 Bft)
03.03.2024 21:51 7,3 C 5,5 C 82 % 1005,3 hPa 0,0 l/m 0,0 km/h (0 Bft) N-NO 23 0 min 0,0 UV-I 0 W/m 4,4 C 3,0 km/h (1 Bft)
03.03.2024 21:50 7,3 C 5,4 C 82 % 1005,2 hPa 0,0 l/m 2,3 km/h (1 Bft) NO 42 0 min 0,0 UV-I 0 W/m 4,4 C 3,0 km/h (1 Bft)
03.03.2024 21:49 7,3 C 5,6 C 82 % 1005,4 hPa 0,0 l/m 1,0 km/h (0 Bft) O 101 0 min 0,0 UV-I 0 W/m 4,4 C 3,0 km/h (1 Bft)
03.03.2024 21:48 7,3 C 5,6 C 82 % 1005,3 hPa 0,0 l/m 1,0 km/h (0 Bft) O-NO 72 0 min 0,0 UV-I 0 W/m 4,4 C 3,0 km/h (1 Bft)
03.03.2024 21:47 7,3 C 5,5 C 82 % 1005,3 hPa 0,0 l/m 0,0 km/h (0 Bft) O-NO 59 0 min 0,0 UV-I 0 W/m 4,4 C 3,0 km/h (1 Bft)
03.03.2024 21:46 7,3 C 5,4 C 82 % 1005,4 hPa 0,0 l/m 1,0 km/h (0 Bft) O-NO 70 0 min 0,0 UV-I 0 W/m 4,4 C 3,0 km/h (1 Bft)
03.03.2024 21:45 7,3 C 5,4 C 82 % 1005,3 hPa 0,0 l/m 1,4 km/h (1 Bft) NO 38 0 min 0,0 UV-I 0 W/m 4,4 C 3,0 km/h (1 Bft)
03.03.2024 21:44 7,3 C 5,3 C 82 % 1005,2 hPa 0,0 l/m 0,0 km/h (0 Bft) N 7 0 min 0,0 UV-I 0 W/m 4,4 C 3,0 km/h (1 Bft)
03.03.2024 21:43 7,4 C 5,1 C 82 % 1005,3 hPa 0,0 l/m 0,0 km/h (0 Bft) NO 55 0 min 0,0 UV-I 0 W/m 4,5 C 3,0 km/h (1 Bft)
03.03.2024 21:42 7,4 C 4,7 C 82 % 1005,3 hPa 0,0 l/m 0,0 km/h (0 Bft) O 92 0 min 0,0 UV-I 0 W/m 4,5 C 3,0 km/h (1 Bft)
03.03.2024 21:41 7,4 C 4,6 C 82 % 1005,2 hPa 0,0 l/m 0,0 km/h (0 Bft) SO 135 0 min 0,0 UV-I 0 W/m 4,5 C 3,0 km/h (1 Bft)
03.03.2024 21:40 7,4 C 4,7 C 82 % 1005,4 hPa 0,0 l/m 0,0 km/h (0 Bft) SO 135 0 min 0,0 UV-I 0 W/m 4,5 C 3,0 km/h (1 Bft)
03.03.2024 21:39 7,4 C 4,6 C 82 % 1005,3 hPa 0,0 l/m 0,0 km/h (0 Bft) O 93 0 min 0,0 UV-I 0 W/m 4,5 C 2,0 km/h (1 Bft)
03.03.2024 21:38 7,5 C 5,2 C 82 % 1005,2 hPa 0,0 l/m 0,0 km/h (0 Bft) NO 49 0 min 0,0 UV-I 0 W/m 4,6 C 3,0 km/h (1 Bft)
03.03.2024 21:37 7,5 C 4,9 C 82 % 1005,4 hPa 0,0 l/m 0,0 km/h (0 Bft) NO 48 0 min 0,0 UV-I 0 W/m 4,6 C 3,0 km/h (1 Bft)
03.03.2024 21:36 7,5 C 4,9 C 82 % 1005,5 hPa 0,0 l/m 0,0 km/h (0 Bft) N-NO 18 0 min 0,0 UV-I 0 W/m 4,6 C 4,0 km/h (1 Bft)
03.03.2024 21:35 7,5 C 4,9 C 82 % 1005,2 hPa 0,0 l/m 1,0 km/h (0 Bft) NO 39 0 min 0,0 UV-I 0 W/m 4,6 C 4,0 km/h (1 Bft)
03.03.2024 21:34 7,5 C 4,8 C 82 % 1005,3 hPa 0,0 l/m 0,0 km/h (0 Bft) NO 54 0 min 0,0 UV-I 0 W/m 4,6 C 4,0 km/h (1 Bft)
03.03.2024 21:33 7,5 C 5,1 C 82 % 1005,3 hPa 0,0 l/m 2,3 km/h (1 Bft) NO 48 0 min 0,0 UV-I 0 W/m 4,6 C 3,0 km/h (1 Bft)
03.03.2024 21:32 7,5 C 5,1 C 82 % 1005,2 hPa 0,0 l/m 1,0 km/h (0 Bft) O 94 0 min 0,0 UV-I 0 W/m 4,6 C 3,0 km/h (1 Bft)
03.03.2024 21:31 7,5 C 4,8 C 82 % 1005,3 hPa 0,0 l/m 1,0 km/h (0 Bft) O 97 0 min 0,0 UV-I 0 W/m 4,6 C 3,0 km/h (1 Bft)
03.03.2024 21:30 7,6 C 4,7 C 82 % 1005,5 hPa 0,0 l/m 0,0 km/h (0 Bft) O-SO 117 0 min 0,0 UV-I 0 W/m 4,7 C 3,0 km/h (1 Bft)
03.03.2024 21:29 7,6 C 4,7 C 82 % 1005,2 hPa 0,0 l/m 0,0 km/h (0 Bft) O-SO 106 0 min 0,0 UV-I 0 W/m 4,7 C 3,0 km/h (1 Bft)
03.03.2024 21:28 7,6 C 4,8 C 82 % 1005,3 hPa 0,0 l/m 0,0 km/h (0 Bft) O-SO 122 0 min 0,0 UV-I 0 W/m 4,7 C 3,0 km/h (1 Bft)
03.03.2024 21:27 7,6 C 4,8 C 82 % 1005,3 hPa 0,0 l/m 0,0 km/h (0 Bft) O-SO 119 0 min 0,0 UV-I 0 W/m 4,7 C 3,0 km/h (1 Bft)
03.03.2024 21:26 7,6 C 5,1 C 82 % 1005,2 hPa 0,0 l/m 0,0 km/h (0 Bft) O-SO 112 0 min 0,0 UV-I 0 W/m 4,7 C 2,0 km/h (1 Bft)
03.03.2024 21:25 7,6 C 4,9 C 81 % 1005,4 hPa 0,0 l/m 0,0 km/h (0 Bft) O-NO 72 0 min 0,0 UV-I 0 W/m 4,6 C 3,0 km/h (1 Bft)
03.03.2024 21:24 7,6 C 4,9 C 82 % 1005,4 hPa 0,0 l/m 0,0 km/h (0 Bft) O-NO 57 0 min 0,0 UV-I 0 W/m 4,7 C 3,0 km/h (1 Bft)
03.03.2024 21:23 7,6 C 5,0 C 82 % 1005,3 hPa 0,0 l/m 0,0 km/h (0 Bft) O-NO 60 0 min 0,0 UV-I 0 W/m 4,7 C 3,0 km/h (1 Bft)
03.03.2024 21:22 7,7 C 5,0 C 82 % 1005,0 hPa 0,0 l/m 0,0 km/h (0 Bft) O 100 0 min 0,0 UV-I 0 W/m 4,8 C 3,0 km/h (1 Bft)
03.03.2024 21:21 7,6 C 5,3 C 82 % 1005,2 hPa 0,0 l/m 0,0 km/h (0 Bft) O-NO 77 0 min 0,0 UV-I 0 W/m 4,7 C 5,0 km/h (1 Bft)
03.03.2024 21:20 7,6 C 5,5 C 82 % 1005,1 hPa 0,0 l/m 1,0 km/h (0 Bft) O 82 0 min 0,0 UV-I 0 W/m 4,7 C 5,0 km/h (1 Bft)
03.03.2024 21:19 7,6 C 5,2 C 81 % 1005,3 hPa 0,0 l/m 2,0 km/h (1 Bft) W-NW 296 0 min 0,0 UV-I 0 W/m 4,6 C 5,0 km/h (1 Bft)
03.03.2024 21:18 7,6 C 5,4 C 81 % 1005,1 hPa 0,0 l/m 0,0 km/h (0 Bft) NW 326 0 min 0,0 UV-I 0 W/m 4,6 C 3,0 km/h (1 Bft)
03.03.2024 21:17 7,7 C 4,8 C 81 % 1005,2 hPa 0,0 l/m 0,0 km/h (0 Bft) O 88 0 min 0,0 UV-I 0 W/m 4,7 C 3,0 km/h (1 Bft)
03.03.2024 21:16 7,7 C 4,7 C 81 % 1005,2 hPa 0,0 l/m 0,0 km/h (0 Bft) NO 44 0 min 0,0 UV-I 0 W/m 4,7 C 3,0 km/h (1 Bft)
03.03.2024 21:15 7,7 C 5,0 C 81 % 1005,0 hPa 0,0 l/m 0,0 km/h (0 Bft) NO 49 0 min 0,0 UV-I 0 W/m 4,7 C 3,0 km/h (1 Bft)
03.03.2024 21:14 7,7 C 4,6 C 81 % 1005,0 hPa 0,0 l/m 0,0 km/h (0 Bft) O-NO 60 0 min 0,0 UV-I 0 W/m 4,7 C 3,0 km/h (1 Bft)
03.03.2024 21:13 7,7 C 4,3 C 81 % 1005,1 hPa 0,0 l/m 0,0 km/h (0 Bft) O-NO 66 0 min 0,0 UV-I 0 W/m 4,7 C 3,0 km/h (1 Bft)
03.03.2024 21:12 7,7 C 4,2 C 81 % 1005,2 hPa 0,0 l/m 0,0 km/h (0 Bft) NO 44 0 min 0,0 UV-I 0 W/m 4,7 C 3,0 km/h (1 Bft)
03.03.2024 21:11 7,7 C 4,5 C 81 % 1005,1 hPa 0,0 l/m 0,0 km/h (0 Bft) O 87 0 min 0,0 UV-I 0 W/m 4,7 C 3,0 km/h (1 Bft)
03.03.2024 21:10 7,7 C 4,4 C 81 % 1005,1 hPa 0,0 l/m 0,0 km/h (0 Bft) O-SO 111 0 min 0,0 UV-I 0 W/m 4,7 C 3,0 km/h (1 Bft)
03.03.2024 21:09 7,7 C 4,5 C 81 % 1005,1 hPa 0,0 l/m 0,0 km/h (0 Bft) O-NO 71 0 min 0,0 UV-I 0 W/m 4,7 C 3,0 km/h (1 Bft)
03.03.2024 21:08 7,7 C 4,5 C 81 % 1005,2 hPa 0,0 l/m 1,3 km/h (1 Bft) N 1 0 min 0,0 UV-I 0 W/m 4,7 C 3,0 km/h (1 Bft)
03.03.2024 21:07 7,8 C 4,3 C 81 % 1005,2 hPa 0,0 l/m 0,0 km/h (0 Bft) O-SO 116 0 min 0,0 UV-I 0 W/m 4,7 C 3,0 km/h (1 Bft)
03.03.2024 21:06 7,8 C 4,6 C 81 % 1005,1 hPa 0,0 l/m 0,0 km/h (0 Bft) S-SO 165 0 min 0,0 UV-I 0 W/m 4,7 C 3,0 km/h (1 Bft)
03.03.2024 21:05 7,8 C 4,8 C 81 % 1005,0 hPa 0,0 l/m 0,0 km/h (0 Bft) S-SO 164 0 min 0,0 UV-I 0 W/m 4,7 C 3,0 km/h (1 Bft)
03.03.2024 21:04 7,8 C 4,7 C 81 % 1004,9 hPa 0,0 l/m 0,0 km/h (0 Bft) O 88 0 min 0,0 UV-I 0 W/m 4,7 C 3,0 km/h (1 Bft)
03.03.2024 21:03 7,8 C 4,4 C 81 % 1004,9 hPa 0,0 l/m 0,0 km/h (0 Bft) S 183 0 min 0,0 UV-I 0 W/m 4,7 C 3,0 km/h (1 Bft)
03.03.2024 21:02 7,8 C 4,4 C 81 % 1004,9 hPa 0,0 l/m 0,0 km/h (0 Bft) SO 124 0 min 0,0 UV-I 0 W/m 4,7 C 2,0 km/h (1 Bft)
03.03.2024 21:01 7,8 C 4,3 C 81 % 1005,1 hPa 0,0 l/m 0,0 km/h (0 Bft) SO 124 0 min 0,0 UV-I 0 W/m 4,7 C 3,0 km/h (1 Bft)
03.03.2024 21:00 7,8 C 4,3 C 81 % 1005,2 hPa 0,0 l/m 0,0 km/h (0 Bft) SO 127 0 min 0,0 UV-I 0 W/m 4,7 C 3,0 km/h (1 Bft)
03.03.2024 20:59 7,8 C 4,6 C 81 % 1005,1 hPa 0,0 l/m 0,0 km/h (0 Bft) SO 135 0 min 0,0 UV-I 0 W/m 4,7 C 3,0 km/h (1 Bft)
03.03.2024 20:58 7,9 C 4,5 C 82 % 1005,1 hPa 0,0 l/m 0,0 km/h (0 Bft) SO 130 0 min 0,0 UV-I 0 W/m 5,0 C 3,0 km/h (1 Bft)
03.03.2024 20:57 7,9 C 4,7 C 82 % 1005,0 hPa 0,0 l/m 0,0 km/h (0 Bft) SO 125 0 min 0,0 UV-I 0 W/m 5,0 C 2,0 km/h (1 Bft)
03.03.2024 20:56 7,9 C 5,0 C 81 % 1005,1 hPa 0,0 l/m 0,0 km/h (0 Bft) SO 127 0 min 0,0 UV-I 0 W/m 4,8 C 3,0 km/h (1 Bft)
03.03.2024 20:55 8,0 C 5,4 C 81 % 1005,1 hPa 0,0 l/m 0,0 km/h (0 Bft) O-SO 116 0 min 0,0 UV-I 0 W/m 4,9 C 3,0 km/h (1 Bft)
03.03.2024 20:54 8,0 C 4,8 C 81 % 1005,2 hPa 0,0 l/m 0,0 km/h (0 Bft) O 82 0 min 0,0 UV-I 0 W/m 4,9 C 3,0 km/h (1 Bft)
03.03.2024 20:53 8,1 C 5,1 C 81 % 1005,0 hPa 0,0 l/m 0,0 km/h (0 Bft) O 92 0 min 0,0 UV-I 0 W/m 5,0 C 3,0 km/h (1 Bft)
03.03.2024 20:52 8,1 C 4,8 C 81 % 1005,1 hPa 0,0 l/m 0,0 km/h (0 Bft) O-SO 113 0 min 0,0 UV-I 0 W/m 5,0 C 3,0 km/h (1 Bft)
03.03.2024 20:51 8,1 C 5,0 C 81 % 1005,3 hPa 0,0 l/m 0,0 km/h (0 Bft) O-SO 112 0 min 0,0 UV-I 0 W/m 5,0 C 3,0 km/h (1 Bft)
03.03.2024 20:50 8,2 C 5,0 C 81 % 1005,2 hPa 0,0 l/m 0,0 km/h (0 Bft) SO 146 0 min 0,0 UV-I 0 W/m 5,1 C 2,0 km/h (1 Bft)
03.03.2024 20:49 8,2 C 5,1 C 81 % 1005,2 hPa 0,0 l/m 0,0 km/h (0 Bft) SO 140 0 min 0,0 UV-I 0 W/m 5,1 C 3,0 km/h (1 Bft)
03.03.2024 20:48 8,2 C 4,9 C 80 % 1005,1 hPa 0,0 l/m 0,0 km/h (0 Bft) S-SO 150 0 min 0,0 UV-I 0 W/m 5,0 C 3,0 km/h (1 Bft)
03.03.2024 20:47 8,3 C 4,9 C 81 % 1005,1 hPa 0,0 l/m 1,3 km/h (1 Bft) S-SO 164 0 min 0,0 UV-I 0 W/m 5,2 C 3,0 km/h (1 Bft)
03.03.2024 20:46 8,3 C 4,9 C 81 % 1005,0 hPa 0,0 l/m 1,0 km/h (0 Bft) S-SW 201 0 min 0,0 UV-I 0 W/m 5,2 C 3,0 km/h (1 Bft)
03.03.2024 20:45 8,3 C 5,0 C 80 % 1005,1 hPa 0,0 l/m 0,0 km/h (0 Bft) O-NO 68 0 min 0,0 UV-I 0 W/m 5,1 C 3,0 km/h (1 Bft)
03.03.2024 20:44 8,3 C 5,0 C 80 % 1004,7 hPa 0,0 l/m 0,0 km/h (0 Bft) SO 128 0 min 0,0 UV-I 0 W/m 5,1 C 3,0 km/h (1 Bft)
03.03.2024 20:43 8,3 C 5,2 C 80 % 1005,0 hPa 0,0 l/m 1,3 km/h (1 Bft) O 92 0 min 0,0 UV-I 0 W/m 5,1 C 3,0 km/h (1 Bft)
03.03.2024 20:42 8,3 C 5,2 C 80 % 1004,9 hPa 0,0 l/m 1,0 km/h (0 Bft) O-NO 62 0 min 0,0 UV-I 0 W/m 5,1 C 3,0 km/h (1 Bft)
03.03.2024 20:41 8,4 C 4,9 C 80 % 1004,8 hPa 0,0 l/m 0,0 km/h (0 Bft) O 89 0 min 0,0 UV-I 0 W/m 5,2 C 3,0 km/h (1 Bft)
03.03.2024 20:40 8,4 C 5,0 C 80 % 1004,9 hPa 0,0 l/m 2,1 km/h (1 Bft) S-SO 158 0 min 0,0 UV-I 0 W/m 5,2 C 3,0 km/h (1 Bft)
03.03.2024 20:39 8,4 C 5,2 C 80 % 1005,1 hPa 0,0 l/m 0,0 km/h (0 Bft) O-SO 120 0 min 0,0 UV-I 0 W/m 5,2 C 2,0 km/h (1 Bft)
03.03.2024 20:38 8,4 C 5,1 C 80 % 1004,9 hPa 0,0 l/m 0,0 km/h (0 Bft) S 173 0 min 0,0 UV-I 0 W/m 5,2 C 3,0 km/h (1 Bft)
03.03.2024 20:37 8,4 C 5,0 C 80 % 1005,2 hPa 0,0 l/m 0,0 km/h (0 Bft) O-SO 119 0 min 0,0 UV-I 0 W/m 5,2 C 3,0 km/h (1 Bft)
03.03.2024 20:36 8,4 C 4,7 C 80 % 1005,0 hPa 0,0 l/m 0,0 km/h (0 Bft) O-SO 103 0 min 0,0 UV-I 0 W/m 5,2 C 3,0 km/h (1 Bft)
03.03.2024 20:35 8,5 C 4,9 C 80 % 1004,8 hPa 0,0 l/m 1,0 km/h (0 Bft) O-SO 122 0 min 0,0 UV-I 0 W/m 5,3 C 4,0 km/h (1 Bft)
03.03.2024 20:34 8,5 C 5,3 C 79 % 1005,0 hPa 0,0 l/m 0,0 km/h (0 Bft) O-SO 119 0 min 0,0 UV-I 0 W/m 5,1 C 4,0 km/h (1 Bft)
03.03.2024 20:33 8,5 C 5,1 C 79 % 1004,9 hPa 0,0 l/m 0,0 km/h (0 Bft) O 100 0 min 0,0 UV-I 0 W/m 5,1 C 3,0 km/h (1 Bft)
03.03.2024 20:32 8,5 C 5,2 C 79 % 1005,0 hPa 0,0 l/m 0,0 km/h (0 Bft) O-NO 57 0 min 0,0 UV-I 0 W/m 5,1 C 4,0 km/h (1 Bft)
03.03.2024 20:31 8,6 C 5,1 C 79 % 1004,8 hPa 0,0 l/m 0,0 km/h (0 Bft) S-SO 157 0 min 0,0 UV-I 0 W/m 5,2 C 4,0 km/h (1 Bft)
03.03.2024 20:30 8,6 C 4,9 C 79 % 1005,0 hPa 0,0 l/m 0,0 km/h (0 Bft) S-SO 147 0 min 0,0 UV-I 0 W/m 5,2 C 4,0 km/h (1 Bft)
03.03.2024 20:29 8,6 C 4,8 C 79 % 1005,1 hPa 0,0 l/m 0,0 km/h (0 Bft) SO 126 0 min 0,0 UV-I 0 W/m 5,2 C 3,0 km/h (1 Bft)
03.03.2024 20:28 8,6 C 4,8 C 79 % 1004,9 hPa 0,0 l/m 0,0 km/h (0 Bft) SO 137 0 min 0,0 UV-I 0 W/m 5,2 C 3,0 km/h (1 Bft)
03.03.2024 20:27 8,7 C 5,0 C 79 % 1004,8 hPa 0,0 l/m 0,0 km/h (0 Bft) S-SO 147 0 min 0,0 UV-I 0 W/m 5,3 C 3,0 km/h (1 Bft)
03.03.2024 20:26 8,7 C 4,8 C 79 % 1004,9 hPa 0,0 l/m 0,0 km/h (0 Bft) O-SO 110 0 min 0,0 UV-I 0 W/m 5,3 C 3,0 km/h (1 Bft)
03.03.2024 20:25 8,8 C 4,9 C 78 % 1004,9 hPa 0,0 l/m 0,0 km/h (0 Bft) SO 124 0 min 0,0 UV-I 0 W/m 5,2 C 3,0 km/h (1 Bft)
03.03.2024 20:24 8,8 C 5,1 C 78 % 1004,9 hPa 0,0 l/m 0,0 km/h (0 Bft) O 100 0 min 0,0 UV-I 0 W/m 5,2 C 3,0 km/h (1 Bft)
03.03.2024 20:23 8,9 C 5,2 C 78 % 1004,7 hPa 0,0 l/m 0,0 km/h (0 Bft) O-SO 103 0 min 0,0 UV-I 0 W/m 5,3 C 3,0 km/h (1 Bft)
03.03.2024 20:22 8,9 C 5,3 C 78 % 1004,9 hPa 0,0 l/m 0,0 km/h (0 Bft) SO 135 0 min 0,0 UV-I 0 W/m 5,3 C 3,0 km/h (1 Bft)
03.03.2024 20:21 9,0 C 5,3 C 78 % 1004,9 hPa 0,0 l/m 0,0 km/h (0 Bft) SO 132 0 min 0,0 UV-I 0 W/m 5,4 C 3,0 km/h (1 Bft)
03.03.2024 20:20 9,0 C 5,6 C 78 % 1004,7 hPa 0,0 l/m 0,0 km/h (0 Bft) S-SO 160 0 min 0,0 UV-I 0 W/m 5,4 C 3,0 km/h (1 Bft)
03.03.2024 20:19 9,1 C 5,5 C 78 % 1004,9 hPa 0,0 l/m 1,0 km/h (0 Bft) SO 134 0 min 0,0 UV-I 0 W/m 5,5 C 3,0 km/h (1 Bft)
03.03.2024 20:18 9,1 C 5,8 C 77 % 1005,1 hPa 0,0 l/m 0,0 km/h (0 Bft) SO 144 0 min 0,0 UV-I 0 W/m 5,3 C 3,0 km/h (1 Bft)
03.03.2024 20:17 9,2 C 5,9 C 78 % 1004,8 hPa 0,0 l/m 0,0 km/h (0 Bft) SO 135 0 min 0,0 UV-I 0 W/m 5,6 C 3,0 km/h (1 Bft)
03.03.2024 20:16 9,2 C 6,0 C 77 % 1004,8 hPa 0,0 l/m 0,0 km/h (0 Bft) O-SO 120 0 min 0,0 UV-I 0 W/m 5,4 C 3,0 km/h (1 Bft)
03.03.2024 20:15 9,2 C 6,2 C 78 % 1005,0 hPa 0,0 l/m 0,0 km/h (0 Bft) S-SO 149 0 min 0,0 UV-I 0 W/m 5,6 C 3,0 km/h (1 Bft)
03.03.2024 20:14 9,2 C 6,0 C 77 % 1004,8 hPa 0,0 l/m 0,0 km/h (0 Bft) SW 216 0 min 0,0 UV-I 0 W/m 5,4 C 3,0 km/h (1 Bft)
03.03.2024 20:13 9,2 C 5,8 C 77 % 1004,8 hPa 0,0 l/m 0,0 km/h (0 Bft) SW 214 0 min 0,0 UV-I 0 W/m 5,4 C 3,0 km/h (1 Bft)
03.03.2024 20:12 9,2 C 6,2 C 77 % 1004,9 hPa 0,0 l/m 0,0 km/h (0 Bft) SW 214 0 min 0,0 UV-I 0 W/m 5,4 C 3,0 km/h (1 Bft)
03.03.2024 20:11 9,2 C 6,2 C 77 % 1004,9 hPa 0,0 l/m 0,0 km/h (0 Bft) SO 125 0 min 0,0 UV-I 0 W/m 5,4 C 4,0 km/h (1 Bft)
03.03.2024 20:10 9,2 C 6,3 C 77 % 1004,8 hPa 0,0 l/m 0,0 km/h (0 Bft) O-SO 119 0 min 0,0 UV-I 0 W/m 5,4 C 4,0 km/h (1 Bft)
03.03.2024 20:09 9,2 C 6,0 C 77 % 1004,8 hPa 0,0 l/m 0,0 km/h (0 Bft) N-NO 32 0 min 0,0 UV-I 0 W/m 5,4 C 4,0 km/h (1 Bft)
03.03.2024 20:08 9,2 C 6,3 C 77 % 1004,8 hPa 0,0 l/m 1,6 km/h (1 Bft) S-SO 163 0 min 0,0 UV-I 0 W/m 5,4 C 3,0 km/h (1 Bft)
03.03.2024 20:07 9,2 C 6,6 C 77 % 1004,9 hPa 0,0 l/m 0,0 km/h (0 Bft) O 94 0 min 0,0 UV-I 0 W/m 5,4 C 3,0 km/h (1 Bft)
03.03.2024 20:06 9,1 C 6,4 C 78 % 1004,9 hPa 0,0 l/m 1,3 km/h (1 Bft) N-NO 14 0 min 0,0 UV-I 0 W/m 5,5 C 3,0 km/h (1 Bft)
03.03.2024 20:05 9,1 C 6,0 C 78 % 1004,7 hPa 0,0 l/m 0,0 km/h (0 Bft) NO 53 0 min 0,0 UV-I 0 W/m 5,5 C 5,0 km/h (1 Bft)
03.03.2024 20:04 9,1 C 6,0 C 78 % 1004,8 hPa 0,0 l/m 1,0 km/h (0 Bft) O 79 0 min 0,0 UV-I 0 W/m 5,5 C 5,0 km/h (1 Bft)
03.03.2024 20:03 9,1 C 6,2 C 78 % 1004,7 hPa 0,0 l/m 1,3 km/h (1 Bft) N-NO 32 0 min 0,0 UV-I 0 W/m 5,5 C 5,0 km/h (1 Bft)
03.03.2024 20:02 9,0 C 6,1 C 78 % 1004,8 hPa 0,0 l/m 0,0 km/h (0 Bft) O-NO 68 0 min 0,0 UV-I 0 W/m 5,4 C 5,0 km/h (1 Bft)
03.03.2024 20:01 9,1 C 6,1 C 78 % 1004,9 hPa 0,0 l/m 3,1 km/h (1 Bft) NO 55 0 min 0,0 UV-I 0 W/m 5,5 C 5,0 km/h (1 Bft)
03.03.2024 20:00 9,0 C 5,9 C 78 % 1004,8 hPa 0,0 l/m 1,3 km/h (1 Bft) NO 52 0 min 0,0 UV-I 0 W/m 5,4 C 4,0 km/h (1 Bft)
03.03.2024 19:59 9,1 C 5,0 C 77 % 1004,8 hPa 0,0 l/m 1,0 km/h (0 Bft) NO 42 0 min 0,0 UV-I 0 W/m 5,3 C 4,0 km/h (1 Bft)
03.03.2024 19:58 9,1 C 5,0 C 77 % 1005,0 hPa 0,0 l/m 0,0 km/h (0 Bft) NO 43 0 min 0,0 UV-I 0 W/m 5,3 C 3,0 km/h (1 Bft)
03.03.2024 19:57 9,1 C 5,2 C 77 % 1004,6 hPa 0,0 l/m 0,0 km/h (0 Bft) O 92 0 min 0,0 UV-I 0 W/m 5,3 C 4,0 km/h (1 Bft)
03.03.2024 19:56 9,1 C 5,3 C 77 % 1004,7 hPa 0,0 l/m 0,0 km/h (0 Bft) O 92 0 min 0,0 UV-I 0 W/m 5,3 C 4,0 km/h (1 Bft)
03.03.2024 19:55 9,2 C 5,1 C 77 % 1004,9 hPa 0,0 l/m 1,0 km/h (0 Bft) N-NO 32 0 min 0,0 UV-I 0 W/m 5,4 C 3,0 km/h (1 Bft)
03.03.2024 19:54 9,2 C 5,4 C 77 % 1004,7 hPa 0,0 l/m 0,0 km/h (0 Bft) O-SO 113 0 min 0,0 UV-I 0 W/m 5,4 C 3,0 km/h (1 Bft)
03.03.2024 19:53 9,3 C 5,1 C 77 % 1005,1 hPa 0,0 l/m 1,0 km/h (0 Bft) SO 124 0 min 0,0 UV-I 0 W/m 5,5 C 3,0 km/h (1 Bft)
03.03.2024 19:52 9,3 C 5,1 C 76 % 1004,8 hPa 0,0 l/m 0,0 km/h (0 Bft) SO 126 0 min 0,0 UV-I 0 W/m 5,3 C 3,0 km/h (1 Bft)
03.03.2024 19:51 9,4 C 4,6 C 76 % 1004,9 hPa 0,0 l/m 0,0 km/h (0 Bft) SO 131 0 min 0,0 UV-I 0 W/m 5,4 C 3,0 km/h (1 Bft)
03.03.2024 19:50 9,4 C 4,9 C 76 % 1004,6 hPa 0,0 l/m 0,0 km/h (0 Bft) O-SO 108 0 min 0,0 UV-I 0 W/m 5,4 C 3,0 km/h (1 Bft)
03.03.2024 19:49 9,5 C 4,9 C 76 % 1004,7 hPa 0,0 l/m 0,0 km/h (0 Bft) O-SO 109 0 min 0,0 UV-I 0 W/m 5,5 C 3,0 km/h (1 Bft)
03.03.2024 19:48 9,6 C 4,9 C 76 % 1004,7 hPa 0,0 l/m 0,0 km/h (0 Bft) SO 125 0 min 0,0 UV-I 0 W/m 5,6 C 3,0 km/h (1 Bft)
03.03.2024 19:47 9,6 C 5,2 C 76 % 1004,8 hPa 0,0 l/m 0,0 km/h (0 Bft) O-SO 116 0 min 0,0 UV-I 0 W/m 5,6 C 3,0 km/h (1 Bft)
03.03.2024 19:46 9,6 C 5,1 C 76 % 1004,7 hPa 0,0 l/m 0,0 km/h (0 Bft) O-SO 108 0 min 0,0 UV-I 0 W/m 5,6 C 3,0 km/h (1 Bft)
03.03.2024 19:45 9,7 C 5,6 C 76 % 1004,6 hPa 0,0 l/m 1,4 km/h (1 Bft) SO 124 0 min 0,0 UV-I 0 W/m 5,7 C 4,0 km/h (1 Bft)
03.03.2024 19:44 9,7 C 5,7 C 76 % 1004,7 hPa 0,0 l/m 1,0 km/h (0 Bft) SO 134 0 min 0,0 UV-I 0 W/m 5,7 C 4,0 km/h (1 Bft)
03.03.2024 19:43 9,7 C 5,6 C 76 % 1004,9 hPa 0,0 l/m 2,3 km/h (1 Bft) O-SO 118 0 min 0,0 UV-I 0 W/m 5,7 C 5,0 km/h (1 Bft)
03.03.2024 19:42 9,7 C 5,9 C 76 % 1004,6 hPa 0,0 l/m 2,7 km/h (1 Bft) O-SO 117 0 min 0,0 UV-I 0 W/m 5,7 C 5,0 km/h (1 Bft)
03.03.2024 19:41 9,7 C 6,1 C 76 % 1004,6 hPa 0,0 l/m 2,3 km/h (1 Bft) O-SO 109 0 min 0,0 UV-I 0 W/m 5,7 C 6,0 km/h (2 Bft)
03.03.2024 19:40 9,7 C 6,1 C 76 % 1004,7 hPa 0,0 l/m 1,0 km/h (0 Bft) O 85 0 min 0,0 UV-I 0 W/m 5,7 C 6,0 km/h (2 Bft)
03.03.2024 19:39 9,8 C 6,2 C 75 % 1004,8 hPa 0,0 l/m 1,0 km/h (0 Bft) O 89 0 min 0,0 UV-I 0 W/m 5,6 C 7,0 km/h (2 Bft)
03.03.2024 19:38 9,8 C 6,2 C 75 % 1004,7 hPa 0,0 l/m 2,5 km/h (1 Bft) O-NO 70 0 min 0,0 UV-I 0 W/m 5,6 C 7,0 km/h (2 Bft)
03.03.2024 19:37 9,8 C 6,0 C 75 % 1004,7 hPa 0,0 l/m 3,1 km/h (1 Bft) O 95 0 min 0,0 UV-I 0 W/m 5,6 C 7,0 km/h (2 Bft)
03.03.2024 19:36 9,8 C 6,1 C 75 % 1004,8 hPa 0,0 l/m 3,1 km/h (1 Bft) O-SO 102 0 min 0,0 UV-I 0 W/m 5,6 C 6,0 km/h (2 Bft)
03.03.2024 19:35 9,8 C 6,2 C 75 % 1004,6 hPa 0,0 l/m 2,3 km/h (1 Bft) O 99 0 min 0,0 UV-I 0 W/m 5,6 C 5,0 km/h (1 Bft)
03.03.2024 19:34 9,8 C 6,6 C 75 % 1004,8 hPa 0,0 l/m 0,0 km/h (0 Bft) O 90 0 min 0,0 UV-I 0 W/m 5,6 C 5,0 km/h (1 Bft)
03.03.2024 19:33 9,8 C 6,4 C 75 % 1004,7 hPa 0,0 l/m 2,7 km/h (1 Bft) NO 51 0 min 0,0 UV-I 0 W/m 5,6 C 6,0 km/h (2 Bft)
03.03.2024 19:32 9,8 C 5,6 C 75 % 1004,4 hPa 0,0 l/m 2,5 km/h (1 Bft) N 360 0 min 0,0 UV-I 0 W/m 5,6 C 6,0 km/h (2 Bft)
03.03.2024 19:31 9,8 C 5,3 C 75 % 1004,8 hPa 0,0 l/m 3,9 km/h (1 Bft) O-SO 110 0 min 0,0 UV-I 0 W/m 5,6 C 6,0 km/h (2 Bft)
03.03.2024 19:30 9,9 C 5,5 C 75 % 1004,7 hPa 0,0 l/m 2,9 km/h (1 Bft) O 100 0 min 0,0 UV-I 0 W/m 5,7 C 4,0 km/h (1 Bft)
03.03.2024 19:29 10,0 C 5,3 C 75 % 1004,5 hPa 0,0 l/m 0,0 km/h (0 Bft) O-SO 102 0 min 0,0 UV-I 0 W/m 5,8 C 4,0 km/h (1 Bft)
03.03.2024 19:28 10,0 C 5,5 C 75 % 1004,5 hPa 0,0 l/m 0,0 km/h (0 Bft) O-NO 78 0 min 0,0 UV-I 0 W/m 5,8 C 4,0 km/h (1 Bft)
03.03.2024 19:27 10,0 C 5,6 C 75 % 1004,7 hPa 0,0 l/m 1,4 km/h (1 Bft) O 80 0 min 0,0 UV-I 0 W/m 5,8 C 4,0 km/h (1 Bft)
03.03.2024 19:26 10,1 C 5,6 C 74 % 1004,5 hPa 0,0 l/m 2,7 km/h (1 Bft) O 89 0 min 0,0 UV-I 0 W/m 5,7 C 4,0 km/h (1 Bft)
03.03.2024 19:25 10,2 C 5,9 C 74 % 1004,5 hPa 0,0 l/m 1,0 km/h (0 Bft) O-NO 71 0 min 0,0 UV-I 0 W/m 5,8 C 3,0 km/h (1 Bft)
03.03.2024 19:24 10,2 C 5,9 C 74 % 1004,5 hPa 0,0 l/m 2,3 km/h (1 Bft) O-NO 64 0 min 0,0 UV-I 0 W/m 5,8 C 3,0 km/h (1 Bft)
03.03.2024 19:23 10,2 C 5,9 C 74 % 1004,4 hPa 0,0 l/m 0,0 km/h (0 Bft) O 91 0 min 0,0 UV-I 0 W/m 5,8 C 3,0 km/h (1 Bft)
03.03.2024 19:22 10,2 C 6,0 C 74 % 1004,8 hPa 0,0 l/m 1,0 km/h (0 Bft) O 80 0 min 0,0 UV-I 0 W/m 5,8 C 5,0 km/h (1 Bft)
03.03.2024 19:21 10,3 C 5,8 C 74 % 1004,6 hPa 0,0 l/m 1,3 km/h (1 Bft) O-NO 72 0 min 0,0 UV-I 0 W/m 5,9 C 5,0 km/h (1 Bft)
03.03.2024 19:20 10,3 C 6,4 C 74 % 1004,5 hPa 0,0 l/m 0,0 km/h (0 Bft) O-NO 60 0 min 0,0 UV-I 0 W/m 5,9 C 3,0 km/h (1 Bft)
03.03.2024 19:19 10,4 C 6,3 C 74 % 1004,6 hPa 0,0 l/m 0,0 km/h (0 Bft) O 83 0 min 0,0 UV-I 0 W/m 6,0 C 6,0 km/h (2 Bft)
03.03.2024 19:18 10,5 C 6,5 C 74 % 1004,4 hPa 0,0 l/m 0,0 km/h (0 Bft) O 87 0 min 0,0 UV-I 0 W/m 6,1 C 6,0 km/h (2 Bft)
03.03.2024 19:17 10,5 C 6,7 C 74 % 1004,4 hPa 0,0 l/m 2,5 km/h (1 Bft) O-NO 76 0 min 0,0 UV-I 0 W/m 6,1 C 6,0 km/h (2 Bft)
03.03.2024 19:16 10,5 C 6,6 C 73 % 1004,3 hPa 0,0 l/m 2,5 km/h (1 Bft) O 93 0 min 0,0 UV-I 0 W/m 5,9 C 6,0 km/h (2 Bft)
03.03.2024 19:15 10,6 C 6,7 C 73 % 1004,6 hPa 0,0 l/m 1,6 km/h (1 Bft) O 90 0 min 0,0 UV-I 0 W/m 6,0 C 5,0 km/h (1 Bft)
03.03.2024 19:14 10,6 C 7,2 C 73 % 1004,2 hPa 0,0 l/m 3,1 km/h (1 Bft) O-SO 103 0 min 0,0 UV-I 0 W/m 6,0 C 5,0 km/h (1 Bft)
03.03.2024 19:13 10,7 C 7,8 C 73 % 1004,5 hPa 0,0 l/m 2,9 km/h (1 Bft) O 92 0 min 0,0 UV-I 0 W/m 6,1 C 7,0 km/h (2 Bft)
03.03.2024 19:12 10,7 C 7,8 C 73 % 1004,5 hPa 0,0 l/m 1,6 km/h (1 Bft) O-NO 74 0 min 0,0 UV-I 0 W/m 6,1 C 9,0 km/h (2 Bft)
03.03.2024 19:11 10,7 C 8,1 C 73 % 1004,3 hPa 0,0 l/m 1,6 km/h (1 Bft) O 91 0 min 0,0 UV-I 0 W/m 6,1 C 9,0 km/h (2 Bft)
03.03.2024 19:10 10,7 C 8,1 C 73 % 1004,3 hPa 0,0 l/m 4,7 km/h (1 Bft) O 79 0 min 0,0 UV-I 0 W/m 6,1 C 9,0 km/h (2 Bft)
03.03.2024 19:09 10,7 C 8,6 C 73 % 1004,2 hPa 0,0 l/m 3,8 km/h (1 Bft) O-NO 58 0 min 0,0 UV-I 0 W/m 6,1 C 9,0 km/h (2 Bft)
03.03.2024 19:08 10,7 C 9,0 C 73 % 1004,4 hPa 0,0 l/m 4,3 km/h (1 Bft) O-NO 73 0 min 0,0 UV-I 0 W/m 6,1 C 9,0 km/h (2 Bft)
03.03.2024 19:07 10,8 C 8,8 C 73 % 1004,3 hPa 0,0 l/m 3,5 km/h (1 Bft) O-NO 75 0 min 0,0 UV-I 0 W/m 6,2 C 9,0 km/h (2 Bft)
03.03.2024 19:06 10,8 C 8,6 C 73 % 1004,4 hPa 0,0 l/m 4,8 km/h (1 Bft) O 87 0 min 0,0 UV-I 0 W/m 6,2 C 14,0 km/h (3 Bft)
03.03.2024 19:05 10,8 C 8,9 C 73 % 1004,3 hPa 0,0 l/m 5,1 km/h (1 Bft) O 81 0 min 0,0 UV-I 0 W/m 6,2 C 14,0 km/h (3 Bft)
03.03.2024 19:04 10,8 C 9,1 C 73 % 1004,0 hPa 0,0 l/m 5,8 km/h (2 Bft) O-NO 59 0 min 0,0 UV-I 0 W/m 6,2 C 14,0 km/h (3 Bft)
03.03.2024 19:03 10,9 C 9,1 C 73 % 1004,4 hPa 0,0 l/m 6,3 km/h (2 Bft) NO 56 0 min 0,0 UV-I 0 W/m 6,3 C 9,0 km/h (2 Bft)
03.03.2024 19:02 10,9 C 9,5 C 72 % 1004,3 hPa 0,0 l/m 2,7 km/h (1 Bft) O 86 0 min 0,0 UV-I 0 W/m 6,1 C 7,0 km/h (2 Bft)
03.03.2024 19:01 10,9 C 9,6 C 72 % 1004,3 hPa 0,0 l/m 2,7 km/h (1 Bft) O-NO 69 0 min 0,0 UV-I 0 W/m 6,1 C 9,0 km/h (2 Bft)
03.03.2024 19:00 10,9 C 9,6 C 72 % 1004,4 hPa 0,0 l/m 3,9 km/h (1 Bft) O-NO 58 0 min 0,0 UV-I 0 W/m 6,1 C 9,0 km/h (2 Bft)
03.03.2024 18:59 10,9 C 9,6 C 72 % 1004,3 hPa 0,0 l/m 6,1 km/h (2 Bft) NO 43 0 min 0,0 UV-I 0 W/m 6,1 C 9,0 km/h (2 Bft)
03.03.2024 18:58 10,9 C 9,3 C 72 % 1004,3 hPa 0,0 l/m 5,6 km/h (1 Bft) NO 34 0 min 0,0 UV-I 0 W/m 6,1 C 14,0 km/h (3 Bft)
03.03.2024 18:57 10,9 C 9,0 C 72 % 1004,2 hPa 0,0 l/m 3,2 km/h (1 Bft) O-NO 75 0 min 0,0 UV-I 0 W/m 6,1 C 14,0 km/h (3 Bft)
03.03.2024 18:56 10,9 C 8,9 C 72 % 1004,2 hPa 0,0 l/m 6,0 km/h (2 Bft) O-NO 75 0 min 0,0 UV-I 0 W/m 6,1 C 14,0 km/h (3 Bft)
03.03.2024 18:55 11,0 C 8,9 C 72 % 1004,2 hPa 0,0 l/m 3,8 km/h (1 Bft) O-NO 73 0 min 0,0 UV-I 0 W/m 6,2 C 11,0 km/h (2 Bft)
03.03.2024 18:54 11,0 C 8,9 C 72 % 1004,3 hPa 0,0 l/m 3,5 km/h (1 Bft) O 82 0 min 0,0 UV-I 0 W/m 6,2 C 10,0 km/h (2 Bft)
03.03.2024 18:53 11,0 C 9,0 C 72 % 1004,4 hPa 0,0 l/m 2,3 km/h (1 Bft) NO 56 0 min 0,0 UV-I 0 W/m 6,2 C 12,0 km/h (2 Bft)
03.03.2024 18:52 11,0 C 9,3 C 72 % 1004,3 hPa 0,0 l/m 4,1 km/h (1 Bft) O-NO 60 0 min 0,0 UV-I 0 W/m 6,2 C 12,0 km/h (2 Bft)
03.03.2024 18:51 10,9 C 8,9 C 72 % 1004,2 hPa 0,0 l/m 5,1 km/h (1 Bft) NO 44 0 min 0,0 UV-I 0 W/m 6,1 C 12,0 km/h (2 Bft)
03.03.2024 18:50 11,0 C 7,8 C 71 % 1004,1 hPa 0,0 l/m 6,8 km/h (2 Bft) NO 48 0 min 0,0 UV-I 0 W/m 5,9 C 12,0 km/h (2 Bft)
03.03.2024 18:49 11,0 C 8,4 C 71 % 1004,3 hPa 0,0 l/m 3,1 km/h (1 Bft) O-NO 69 0 min 0,0 UV-I 0 W/m 5,9 C 7,0 km/h (2 Bft)
03.03.2024 18:48 11,1 C 8,0 C 71 % 1004,1 hPa 0,0 l/m 2,9 km/h (1 Bft) O-NO 57 0 min 0,0 UV-I 0 W/m 6,0 C 7,0 km/h (2 Bft)
03.03.2024 18:47 11,1 C 8,0 C 71 % 1004,2 hPa 0,0 l/m 3,4 km/h (1 Bft) O-NO 63 0 min 0,0 UV-I 0 W/m 6,0 C 7,0 km/h (2 Bft)
03.03.2024 18:46 11,1 C 8,0 C 70 % 1004,2 hPa 0,0 l/m 2,5 km/h (1 Bft) O 80 0 min 0,0 UV-I 0 W/m 5,8 C 5,0 km/h (1 Bft)
03.03.2024 18:45 11,2 C 8,2 C 70 % 1004,2 hPa 0,0 l/m 3,5 km/h (1 Bft) O 84 0 min 0,0 UV-I 0 W/m 5,9 C 5,0 km/h (1 Bft)
03.03.2024 18:44 11,2 C 8,2 C 70 % 1004,1 hPa 0,0 l/m 2,0 km/h (1 Bft) O 82 0 min 0,0 UV-I 0 W/m 5,9 C 5,0 km/h (1 Bft)
03.03.2024 18:43 11,2 C 8,2 C 70 % 1004,2 hPa 0,0 l/m 1,0 km/h (0 Bft) O-NO 78 0 min 0,0 UV-I 0 W/m 5,9 C 5,0 km/h (1 Bft)
03.03.2024 18:42 11,3 C 8,5 C 70 % 1004,3 hPa 0,0 l/m 2,9 km/h (1 Bft) O 97 0 min 0,0 UV-I 0 W/m 6,0 C 8,0 km/h (2 Bft)
03.03.2024 18:41 11,3 C 8,8 C 70 % 1004,2 hPa 0,0 l/m 5,6 km/h (1 Bft) NO 43 0 min 0,0 UV-I 0 W/m 6,0 C 8,0 km/h (2 Bft)
03.03.2024 18:40 11,4 C 8,2 C 69 % 1004,2 hPa 0,0 l/m 3,6 km/h (1 Bft) O-NO 78 0 min 0,0 UV-I 0 W/m 5,9 C 8,0 km/h (2 Bft)
03.03.2024 18:39 11,4 C 8,6 C 69 % 1004,1 hPa 0,0 l/m 1,4 km/h (1 Bft) O 92 0 min 0,0 UV-I 0 W/m 5,9 C 10,0 km/h (2 Bft)
03.03.2024 18:38 11,4 C 8,1 C 69 % 1004,0 hPa 0,0 l/m 4,3 km/h (1 Bft) O-NO 72 0 min 0,0 UV-I 0 W/m 5,9 C 10,0 km/h (2 Bft)
03.03.2024 18:37 11,4 C 7,8 C 69 % 1004,2 hPa 0,0 l/m 3,6 km/h (1 Bft) O-NO 68 0 min 0,0 UV-I 0 W/m 5,9 C 6,0 km/h (2 Bft)
03.03.2024 18:36 11,4 C 7,8 C 69 % 1004,1 hPa 0,0 l/m 5,1 km/h (1 Bft) O-NO 61 0 min 0,0 UV-I 0 W/m 5,9 C 6,0 km/h (2 Bft)
03.03.2024 18:35 11,5 C 8,2 C 69 % 1004,1 hPa 0,0 l/m 3,5 km/h (1 Bft) O 93 0 min 0,0 UV-I 0 W/m 6,0 C 6,0 km/h (2 Bft)
03.03.2024 18:34 11,5 C 8,0 C 69 % 1004,1 hPa 0,0 l/m 2,5 km/h (1 Bft) O-NO 63 0 min 0,0 UV-I 0 W/m 6,0 C 6,0 km/h (2 Bft)
03.03.2024 18:33 11,6 C 8,0 C 68 % 1003,8 hPa 0,0 l/m 2,5 km/h (1 Bft) O-NO 62 0 min 0,0 UV-I 0 W/m 5,9 C 5,0 km/h (1 Bft)
03.03.2024 18:32 11,7 C 8,5 C 68 % 1003,9 hPa 0,0 l/m 2,7 km/h (1 Bft) O 89 0 min 0,0 UV-I 0 W/m 6,0 C 5,0 km/h (1 Bft)
03.03.2024 18:31 11,7 C 9,0 C 68 % 1003,8 hPa 0,0 l/m 2,3 km/h (1 Bft) O-NO 73 0 min 0,0 UV-I 0 W/m 6,0 C 9,0 km/h (2 Bft)
03.03.2024 18:30 11,7 C 8,9 C 68 % 1003,8 hPa 0,0 l/m 3,2 km/h (1 Bft) O-NO 73 0 min 0,0 UV-I 0 W/m 6,0 C 9,0 km/h (2 Bft)
03.03.2024 18:29 11,8 C 9,1 C 68 % 1003,8 hPa 0,0 l/m 3,6 km/h (1 Bft) NO 44 0 min 0,0 UV-I 0 W/m 6,1 C 9,0 km/h (2 Bft)
03.03.2024 18:28 11,8 C 9,2 C 68 % 1004,1 hPa 0,0 l/m 3,9 km/h (1 Bft) O-NO 64 0 min 0,0 UV-I 0 W/m 6,1 C 9,0 km/h (2 Bft)
03.03.2024 18:27 11,8 C 9,9 C 68 % 1003,8 hPa 0,0 l/m 3,2 km/h (1 Bft) O-NO 63 0 min 0,0 UV-I 0 W/m 6,1 C 5,0 km/h (1 Bft)
03.03.2024 18:26 11,9 C 10,0 C 68 % 1004,0 hPa 0,0 l/m 2,9 km/h (1 Bft) O 86 0 min 0,0 UV-I 0 W/m 6,2 C 9,0 km/h (2 Bft)
03.03.2024 18:25 11,9 C 9,5 C 67 % 1003,8 hPa 0,0 l/m 5,2 km/h (1 Bft) O-NO 59 0 min 0,0 UV-I 0 W/m 6,0 C 12,0 km/h (2 Bft)
03.03.2024 18:24 11,9 C 9,4 C 67 % 1003,7 hPa 0,0 l/m 4,3 km/h (1 Bft) O 85 0 min 0,0 UV-I 0 W/m 6,0 C 12,0 km/h (2 Bft)
03.03.2024 18:23 12,0 C 9,9 C 67 % 1003,6 hPa 0,0 l/m 3,6 km/h (1 Bft) O-NO 67 0 min 0,0 UV-I 0 W/m 6,1 C 8,0 km/h (2 Bft)
03.03.2024 18:22 12,0 C 9,8 C 67 % 1003,6 hPa 0,0 l/m 3,2 km/h (1 Bft) NO 55 0 min 0,0 UV-I 0 W/m 6,1 C 7,0 km/h (2 Bft)
03.03.2024 18:21 12,0 C 9,6 C 67 % 1003,7 hPa 0,0 l/m 3,5 km/h (1 Bft) O-NO 64 0 min 0,0 UV-I 0 W/m 6,1 C 5,0 km/h (1 Bft)
03.03.2024 18:20 12,0 C 9,6 C 67 % 1003,6 hPa 0,0 l/m 3,5 km/h (1 Bft) O 80 0 min 0,0 UV-I 0 W/m 6,1 C 7,0 km/h (2 Bft)
03.03.2024 18:19 12,0 C 9,8 C 67 % 1003,6 hPa 0,0 l/m 3,6 km/h (1 Bft) O 84 0 min 0,0 UV-I 0 W/m 6,1 C 7,0 km/h (2 Bft)
03.03.2024 18:18 12,0 C 9,9 C 67 % 1003,6 hPa 0,0 l/m 3,8 km/h (1 Bft) O 81 0 min 0,0 UV-I 0 W/m 6,1 C 8,0 km/h (2 Bft)
03.03.2024 18:17 12,1 C 9,9 C 67 % 1003,6 hPa 0,0 l/m 4,7 km/h (1 Bft) O 83 0 min 0,0 UV-I 0 W/m 6,2 C 10,0 km/h (2 Bft)
03.03.2024 18:16 12,1 C 10,0 C 67 % 1003,6 hPa 0,0 l/m 4,0 km/h (1 Bft) O 93 0 min 0,0 UV-I 0 W/m 6,2 C 10,0 km/h (2 Bft)
03.03.2024 18:15 12,1 C 9,3 C 67 % 1003,7 hPa 0,0 l/m 3,1 km/h (1 Bft) O-NO 75 0 min 0,0 UV-I 0 W/m 6,2 C 8,0 km/h (2 Bft)
03.03.2024 18:14 12,1 C 9,5 C 67 % 1003,5 hPa 0,0 l/m 2,2 km/h (1 Bft) O 89 0 min 0,0 UV-I 0 W/m 6,2 C 6,0 km/h (2 Bft)
03.03.2024 18:13 12,1 C 10,1 C 67 % 1003,7 hPa 0,0 l/m 3,3 km/h (1 Bft) O 84 0 min 0,0 UV-I 0 W/m 6,2 C 11,0 km/h (2 Bft)
03.03.2024 18:12 12,1 C 10,0 C 66 % 1003,4 hPa 0,0 l/m 3,5 km/h (1 Bft) O 84 0 min 0,0 UV-I 0 W/m 5,9 C 11,0 km/h (2 Bft)
03.03.2024 18:11 12,2 C 9,7 C 66 % 1003,6 hPa 0,0 l/m 5,4 km/h (1 Bft) O 80 0 min 0,0 UV-I 0 W/m 6,0 C 11,0 km/h (2 Bft)
03.03.2024 18:10 12,2 C 9,0 C 66 % 1003,5 hPa 0,0 l/m 6,3 km/h (2 Bft) O-NO 73 0 min 0,0 UV-I 0 W/m 6,0 C 11,0 km/h (2 Bft)
03.03.2024 18:09 12,3 C 9,3 C 66 % 1003,5 hPa 0,0 l/m 2,0 km/h (1 Bft) O-SO 102 0 min 0,0 UV-I 0 W/m 6,1 C 8,0 km/h (2 Bft)
03.03.2024 18:08 12,3 C 8,7 C 66 % 1003,6 hPa 0,0 l/m 5,1 km/h (1 Bft) O 85 0 min 0,0 UV-I 0 W/m 6,1 C 8,0 km/h (2 Bft)
03.03.2024 18:07 12,3 C 8,7 C 66 % 1003,4 hPa 0,0 l/m 4,3 km/h (1 Bft) O-SO 107 0 min 0,0 UV-I 1 W/m 6,1 C 7,0 km/h (2 Bft)
03.03.2024 18:06 12,4 C 8,7 C 65 % 1003,4 hPa 0,0 l/m 3,8 km/h (1 Bft) O 100 0 min 0,0 UV-I 0 W/m 6,0 C 6,0 km/h (2 Bft)
03.03.2024 18:05 12,4 C 8,4 C 65 % 1003,5 hPa 0,0 l/m 4,3 km/h (1 Bft) O-SO 110 0 min 0,0 UV-I 1 W/m 6,0 C 6,0 km/h (2 Bft)
03.03.2024 18:04 12,4 C 8,4 C 65 % 1003,5 hPa 0,0 l/m 3,3 km/h (1 Bft) O-SO 113 0 min 0,0 UV-I 1 W/m 6,0 C 5,0 km/h (1 Bft)
03.03.2024 18:03 12,5 C 8,4 C 65 % 1003,2 hPa 0,0 l/m 1,4 km/h (1 Bft) O-SO 111 0 min 0,0 UV-I 1 W/m 6,1 C 6,0 km/h (2 Bft)
03.03.2024 18:02 12,5 C 8,1 C 65 % 1003,5 hPa 0,0 l/m 3,6 km/h (1 Bft) O 82 0 min 0,0 UV-I 2 W/m 6,1 C 6,0 km/h (2 Bft)
03.03.2024 18:01 12,6 C 8,5 C 64 % 1003,5 hPa 0,0 l/m 3,3 km/h (1 Bft) O 101 0 min 0,0 UV-I 2 W/m 6,0 C 6,0 km/h (2 Bft)
03.03.2024 18:00 12,7 C 8,6 C 64 % 1003,5 hPa 0,0 l/m 1,6 km/h (1 Bft) O-NO 76 0 min 0,0 UV-I 2 W/m 6,1 C 4,0 km/h (1 Bft)
03.03.2024 17:59 12,7 C 9,1 C 64 % 1003,4 hPa 0,0 l/m 0,0 km/h (0 Bft) O 81 0 min 0,0 UV-I 3 W/m 6,1 C 5,0 km/h (1 Bft)
03.03.2024 17:58 12,8 C 9,6 C 64 % 1003,4 hPa 0,0 l/m 2,5 km/h (1 Bft) O-NO 74 0 min 0,0 UV-I 3 W/m 6,2 C 5,0 km/h (1 Bft)
03.03.2024 17:57 12,8 C 9,3 C 63 % 1003,3 hPa 0,0 l/m 1,3 km/h (1 Bft) O-NO 77 0 min 0,0 UV-I 3 W/m 5,9 C 5,0 km/h (1 Bft)
03.03.2024 17:56 12,9 C 9,3 C 63 % 1003,1 hPa 0,0 l/m 1,0 km/h (0 Bft) O 93 0 min 0,0 UV-I 3 W/m 6,0 C 5,0 km/h (1 Bft)
03.03.2024 17:55 13,0 C 9,7 C 63 % 1003,3 hPa 0,0 l/m 2,3 km/h (1 Bft) O 87 0 min 0,0 UV-I 4 W/m 6,1 C 5,0 km/h (1 Bft)
03.03.2024 17:54 13,0 C 9,9 C 63 % 1003,2 hPa 0,0 l/m 0,0 km/h (0 Bft) O-NO 64 0 min 0,0 UV-I 4 W/m 6,1 C 5,0 km/h (1 Bft)
03.03.2024 17:53 13,0 C 10,5 C 63 % 1003,2 hPa 0,0 l/m 2,3 km/h (1 Bft) O 96 0 min 0,0 UV-I 6 W/m 6,1 C 6,0 km/h (2 Bft)
03.03.2024 17:52 13,1 C 10,7 C 62 % 1003,3 hPa 0,0 l/m 3,5 km/h (1 Bft) O 90 0 min 0,0 UV-I 6 W/m 6,0 C 6,0 km/h (2 Bft)
03.03.2024 17:51 13,1 C 11,0 C 62 % 1003,2 hPa 0,0 l/m 4,3 km/h (1 Bft) O-NO 71 0 min 0,0 UV-I 7 W/m 6,0 C 6,0 km/h (2 Bft)
03.03.2024 17:50 13,2 C 10,9 C 62 % 1003,3 hPa 0,0 l/m 1,6 km/h (1 Bft) O 97 0 min 0,0 UV-I 7 W/m 6,1 C 7,0 km/h (2 Bft)
03.03.2024 17:49 13,2 C 10,9 C 62 % 1003,4 hPa 0,0 l/m 3,2 km/h (1 Bft) O 88 0 min 0,0 UV-I 8 W/m 6,1 C 7,0 km/h (2 Bft)
03.03.2024 17:48 13,2 C 11,0 C 62 % 1003,3 hPa 0,0 l/m 4,2 km/h (1 Bft) O 98 0 min 0,0 UV-I 9 W/m 6,1 C 9,0 km/h (2 Bft)
03.03.2024 17:47 13,3 C 11,0 C 62 % 1003,2 hPa 0,0 l/m 3,8 km/h (1 Bft) O 90 0 min 0,0 UV-I 9 W/m 6,2 C 9,0 km/h (2 Bft)
03.03.2024 17:46 13,3 C 11,2 C 62 % 1003,2 hPa 0,0 l/m 4,0 km/h (1 Bft) O 86 0 min 0,0 UV-I 10 W/m 6,2 C 9,0 km/h (2 Bft)
03.03.2024 17:45 13,4 C 11,3 C 61 % 1003,1 hPa 0,0 l/m 1,6 km/h (1 Bft) O-NO 76 0 min 0,0 UV-I 12 W/m 6,0 C 7,0 km/h (2 Bft)
03.03.2024 17:44 13,4 C 11,5 C 61 % 1003,2 hPa 0,0 l/m 4,7 km/h (1 Bft) O 92 0 min 0,0 UV-I 12 W/m 6,0 C 7,0 km/h (2 Bft)
03.03.2024 17:43 13,4 C 11,8 C 61 % 1003,3 hPa 0,0 l/m 3,5 km/h (1 Bft) O 89 0 min 0,0 UV-I 13 W/m 6,0 C 8,0 km/h (2 Bft)
03.03.2024 17:42 13,5 C 11,9 C 61 % 1003,3 hPa 0,0 l/m 2,3 km/h (1 Bft) O 82 0 min 0,0 UV-I 14 W/m 6,1 C 10,0 km/h (2 Bft)
03.03.2024 17:41 13,5 C 11,7 C 61 % 1003,0 hPa 0,0 l/m 5,4 km/h (1 Bft) O 79 0 min 0,0 UV-I 15 W/m 6,1 C 10,0 km/h (2 Bft)
03.03.2024 17:40 13,6 C 11,7 C 61 % 1003,0 hPa 0,0 l/m 4,5 km/h (1 Bft) O-SO 106 0 min 0,0 UV-I 15 W/m 6,2 C 13,0 km/h (3 Bft)
03.03.2024 17:39 13,6 C 11,9 C 60 % 1003,0 hPa 0,0 l/m 4,3 km/h (1 Bft) O 93 0 min 0,0 UV-I 18 W/m 6,0 C 13,0 km/h (3 Bft)
03.03.2024 17:38 13,6 C 12,0 C 60 % 1002,9 hPa 0,0 l/m 6,7 km/h (2 Bft) O-NO 64 0 min 0,0 UV-I 19 W/m 6,0 C 13,0 km/h (3 Bft)
03.03.2024 17:37 13,7 C 12,0 C 60 % 1003,0 hPa 0,0 l/m 7,3 km/h (2 Bft) O 79 0 min 0,0 UV-I 19 W/m 6,1 C 11,0 km/h (2 Bft)
03.03.2024 17:36 13,7 C 11,7 C 60 % 1003,2 hPa 0,0 l/m 3,5 km/h (1 Bft) O-NO 70 0 min 0,0 UV-I 20 W/m 6,1 C 9,0 km/h (2 Bft)
03.03.2024 17:35 13,8 C 11,9 C 60 % 1003,1 hPa 0,0 l/m 2,5 km/h (1 Bft) O 101 0 min 0,0 UV-I 22 W/m 6,2 C 13,0 km/h (3 Bft)
03.03.2024 17:34 13,8 C 12,0 C 60 % 1003,0 hPa 0,0 l/m 4,3 km/h (1 Bft) O 79 0 min 0,0 UV-I 23 W/m 6,2 C 13,0 km/h (3 Bft)
03.03.2024 17:33 13,9 C 12,0 C 59 % 1003,1 hPa 0,0 l/m 3,6 km/h (1 Bft) O-NO 60 0 min 0,0 UV-I 24 W/m 6,0 C 13,0 km/h (3 Bft)
03.03.2024 17:32 13,9 C 12,1 C 59 % 1002,9 hPa 0,0 l/m 4,3 km/h (1 Bft) NO 55 0 min 0,0 UV-I 24 W/m 6,0 C 11,0 km/h (2 Bft)
03.03.2024 17:31 13,9 C 12,2 C 59 % 1003,0 hPa 0,0 l/m 3,1 km/h (1 Bft) O 89 0 min 0,0 UV-I 23 W/m 6,0 C 11,0 km/h (2 Bft)
03.03.2024 17:30 14,0 C 12,2 C 59 % 1003,1 hPa 0,0 l/m 2,5 km/h (1 Bft) O 86 0 min 0,0 UV-I 24 W/m 6,1 C 8,0 km/h (2 Bft)
03.03.2024 17:29 14,0 C 12,3 C 59 % 1003,1 hPa 0,0 l/m 4,2 km/h (1 Bft) O 79 0 min 0,0 UV-I 25 W/m 6,1 C 10,0 km/h (2 Bft)
03.03.2024 17:28 14,1 C 12,0 C 58 % 1002,9 hPa 0,0 l/m 4,8 km/h (1 Bft) O-NO 78 0 min 0,0 UV-I 25 W/m 6,0 C 13,0 km/h (3 Bft)
03.03.2024 17:27 14,1 C 12,4 C 58 % 1003,1 hPa 0,0 l/m 1,0 km/h (0 Bft) O-SO 107 0 min 0,0 UV-I 25 W/m 6,0 C 13,0 km/h (3 Bft)
03.03.2024 17:26 14,1 C 12,5 C 58 % 1003,0 hPa 0,0 l/m 4,7 km/h (1 Bft) O-NO 62 0 min 0,0 UV-I 28 W/m 6,0 C 13,0 km/h (3 Bft)
03.03.2024 17:25 14,2 C 12,5 C 58 % 1002,9 hPa 0,0 l/m 1,3 km/h (1 Bft) O 91 0 min 0,0 UV-I 29 W/m 6,1 C 13,0 km/h (3 Bft)
03.03.2024 17:24 14,3 C 12,4 C 58 % 1002,8 hPa 0,0 l/m 3,8 km/h (1 Bft) O 88 0 min 0,0 UV-I 29 W/m 6,2 C 13,0 km/h (3 Bft)
03.03.2024 17:23 14,3 C 12,6 C 58 % 1003,0 hPa 0,0 l/m 4,7 km/h (1 Bft) O 97 0 min 0,0 UV-I 30 W/m 6,2 C 7,0 km/h (2 Bft)
03.03.2024 17:22 14,3 C 12,7 C 57 % 1003,0 hPa 0,0 l/m 2,7 km/h (1 Bft) O 100 0 min 0,0 UV-I 34 W/m 5,9 C 9,0 km/h (2 Bft)
03.03.2024 17:21 14,4 C 12,8 C 57 % 1002,9 hPa 0,0 l/m 4,2 km/h (1 Bft) O-SO 103 0 min 0,0 UV-I 35 W/m 6,0 C 9,0 km/h (2 Bft)
03.03.2024 17:20 14,4 C 13,1 C 57 % 1002,9 hPa 0,0 l/m 5,5 km/h (1 Bft) O-NO 71 0 min 0,0 UV-I 35 W/m 6,0 C 15,0 km/h (3 Bft)
03.03.2024 17:19 14,4 C 13,4 C 57 % 1003,0 hPa 0,0 l/m 3,5 km/h (1 Bft) O-NO 59 0 min 0,0 UV-I 36 W/m 6,0 C 18,0 km/h (3 Bft)
03.03.2024 17:18 14,4 C 13,0 C 57 % 1003,0 hPa 0,0 l/m 6,8 km/h (2 Bft) O 82 0 min 0,0 UV-I 36 W/m 6,0 C 18,0 km/h (3 Bft)
03.03.2024 17:17 14,5 C 13,0 C 57 % 1002,9 hPa 0,0 l/m 8,3 km/h (2 Bft) NO 56 0 min 0,0 UV-I 36 W/m 6,1 C 12,0 km/h (2 Bft)
03.03.2024 17:16 14,5 C 13,0 C 57 % 1003,0 hPa 0,0 l/m 6,4 km/h (2 Bft) O-NO 64 0 min 0,0 UV-I 37 W/m 6,1 C 10,0 km/h (2 Bft)
03.03.2024 17:15 14,5 C 13,2 C 57 % 1002,9 hPa 0,0 l/m 4,7 km/h (1 Bft) O-NO 58 0 min 0,0 UV-I 39 W/m 6,1 C 10,0 km/h (2 Bft)
03.03.2024 17:14 14,5 C 13,3 C 57 % 1002,8 hPa 0,0 l/m 4,5 km/h (1 Bft) O-NO 69 0 min 0,0 UV-I 41 W/m 6,1 C 11,0 km/h (2 Bft)
03.03.2024 17:13 14,5 C 13,3 C 57 % 1002,9 hPa 0,0 l/m 4,9 km/h (1 Bft) O-NO 70 0 min 0,0 UV-I 42 W/m 6,1 C 14,0 km/h (3 Bft)
03.03.2024 17:12 14,5 C 13,5 C 57 % 1002,8 hPa 0,0 l/m 5,1 km/h (1 Bft) NO 55 0 min 0,0 UV-I 42 W/m 6,1 C 14,0 km/h (3 Bft)
03.03.2024 17:11 14,6 C 13,3 C 58 % 1002,8 hPa 0,0 l/m 6,1 km/h (2 Bft) NO 43 0 min 0,0 UV-I 45 W/m 6,4 C 14,0 km/h (3 Bft)
03.03.2024 17:10 14,6 C 13,4 C 57 % 1002,7 hPa 0,0 l/m 4,5 km/h (1 Bft) NO 53 0 min 0,0 UV-I 45 W/m 6,2 C 12,0 km/h (2 Bft)
03.03.2024 17:09 14,6 C 13,4 C 57 % 1002,6 hPa 0,0 l/m 5,2 km/h (1 Bft) NO 34 0 min 0,0 UV-I 46 W/m 6,2 C 12,0 km/h (2 Bft)
03.03.2024 17:08 14,7 C 13,3 C 58 % 1002,8 hPa 0,0 l/m 7,9 km/h (2 Bft) N-NO 33 0 min 0,0 UV-I 46 W/m 6,5 C 12,0 km/h (2 Bft)
03.03.2024 17:07 14,7 C 13,5 C 58 % 1002,6 hPa 0,0 l/m 4,7 km/h (1 Bft) NO 53 0 min 0,0 UV-I 47 W/m 6,5 C 12,0 km/h (2 Bft)
03.03.2024 17:06 14,7 C 13,3 C 58 % 1002,9 hPa 0,0 l/m 5,8 km/h (2 Bft) NO 49 0 min 0,0 UV-I 48 W/m 6,5 C 12,0 km/h (2 Bft)
03.03.2024 17:05 14,7 C 13,4 C 58 % 1002,8 hPa 0,0 l/m 2,7 km/h (1 Bft) NO 40 0 min 0,0 UV-I 50 W/m 6,5 C 9,0 km/h (2 Bft)
03.03.2024 17:04 14,7 C 13,3 C 58 % 1002,9 hPa 0,0 l/m 3,1 km/h (1 Bft) O-NO 57 0 min 0,0 UV-I 51 W/m 6,5 C 9,0 km/h (2 Bft)
03.03.2024 17:03 14,8 C 13,4 C 58 % 1002,8 hPa 0,0 l/m 5,8 km/h (2 Bft) O-NO 67 0 min 0,0 UV-I 52 W/m 6,6 C 13,0 km/h (3 Bft)
03.03.2024 17:02 14,8 C 13,7 C 57 % 1002,5 hPa 0,0 l/m 5,4 km/h (1 Bft) O-NO 63 0 min 0,0 UV-I 53 W/m 6,4 C 13,0 km/h (3 Bft)
03.03.2024 17:01 14,8 C 13,6 C 57 % 1002,9 hPa 0,0 l/m 5,1 km/h (1 Bft) NO 41 0 min 0,0 UV-I 55 W/m 6,4 C 13,0 km/h (3 Bft)
03.03.2024 17:00 14,9 C 13,7 C 57 % 1003,0 hPa 0,0 l/m 6,4 km/h (2 Bft) NO 52 0 min 0,0 UV-I 56 W/m 6,5 C 14,0 km/h (3 Bft)
03.03.2024 16:59 14,9 C 13,7 C 57 % 1002,9 hPa 0,0 l/m 6,8 km/h (2 Bft) O-NO 78 0 min 0,0 UV-I 56 W/m 6,5 C 14,0 km/h (3 Bft)
03.03.2024 16:58 14,9 C 13,8 C 57 % 1002,9 hPa 0,0 l/m 5,4 km/h (1 Bft) NO 37 0 min 0,0 UV-I 57 W/m 6,5 C 14,0 km/h (3 Bft)
03.03.2024 16:57 14,9 C 13,9 C 58 % 1002,8 hPa 0,0 l/m 6,1 km/h (2 Bft) O-NO 58 0 min 0,0 UV-I 58 W/m 6,7 C 14,0 km/h (3 Bft)
03.03.2024 16:56 14,9 C 13,8 C 57 % 1002,8 hPa 0,0 l/m 7,0 km/h (2 Bft) NO 36 0 min 0,0 UV-I 61 W/m 6,5 C 14,0 km/h (3 Bft)
03.03.2024 16:55 15,0 C 13,8 C 57 % 1002,7 hPa 0,0 l/m 6,7 km/h (2 Bft) N-NO 28 0 min 0,0 UV-I 64 W/m 6,6 C 14,0 km/h (3 Bft)
03.03.2024 16:54 15,0 C 13,9 C 57 % 1002,6 hPa 0,0 l/m 5,6 km/h (1 Bft) NO 39 1 min 0,0 UV-I 68 W/m 6,6 C 12,0 km/h (2 Bft)
03.03.2024 16:53 15,0 C 14,0 C 58 % 1002,9 hPa 0,0 l/m 6,2 km/h (2 Bft) N-NO 31 1 min 0,0 UV-I 70 W/m 6,8 C 12,0 km/h (2 Bft)
03.03.2024 16:52 15,0 C 14,0 C 58 % 1002,7 hPa 0,0 l/m 7,1 km/h (2 Bft) NO 51 1 min 0,0 UV-I 72 W/m 6,8 C 16,0 km/h (3 Bft)
03.03.2024 16:51 15,1 C 14,2 C 58 % 1002,7 hPa 0,0 l/m 3,5 km/h (1 Bft) O-NO 59 1 min 0,0 UV-I 74 W/m 6,9 C 16,0 km/h (3 Bft)
03.03.2024 16:50 15,1 C 14,1 C 58 % 1002,6 hPa 0,0 l/m 6,7 km/h (2 Bft) NO 34 1 min 0,0 UV-I 74 W/m 6,9 C 16,0 km/h (3 Bft)
03.03.2024 16:49 15,1 C 14,0 C 58 % 1002,8 hPa 0,0 l/m 5,8 km/h (2 Bft) O 81 1 min 0,0 UV-I 72 W/m 6,9 C 12,0 km/h (2 Bft)
03.03.2024 16:48 15,1 C 14,2 C 58 % 1002,7 hPa 0,0 l/m 7,2 km/h (2 Bft) O-NO 70 1 min 0,0 UV-I 77 W/m 6,9 C 12,0 km/h (2 Bft)
03.03.2024 16:47 15,1 C 14,1 C 58 % 1002,7 hPa 0,0 l/m 7,6 km/h (2 Bft) N-NO 17 1 min 0,0 UV-I 75 W/m 6,9 C 12,0 km/h (2 Bft)
03.03.2024 16:46 15,2 C 14,3 C 58 % 1002,7 hPa 0,0 l/m 1,6 km/h (1 Bft) NO 38 1 min 0,0 UV-I 81 W/m 7,0 C 7,0 km/h (2 Bft)
03.03.2024 16:45 15,2 C 14,3 C 58 % 1002,6 hPa 0,0 l/m 2,7 km/h (1 Bft) N 8 1 min 0,0 UV-I 89 W/m 7,0 C 6,0 km/h (2 Bft)
03.03.2024 16:44 15,2 C 14,3 C 58 % 1002,7 hPa 0,0 l/m 2,7 km/h (1 Bft) O-NO 64 1 min 0,0 UV-I 89 W/m 7,0 C 7,0 km/h (2 Bft)
03.03.2024 16:43 15,2 C 14,5 C 58 % 1002,5 hPa 0,0 l/m 3,2 km/h (1 Bft) O-NO 76 1 min 0,0 UV-I 86 W/m 7,0 C 10,0 km/h (2 Bft)
03.03.2024 16:42 15,2 C 14,6 C 58 % 1002,8 hPa 0,0 l/m 2,6 km/h (1 Bft) O-NO 73 1 min 0,0 UV-I 89 W/m 7,0 C 10,0 km/h (2 Bft)
03.03.2024 16:41 15,2 C 14,7 C 58 % 1002,8 hPa 0,0 l/m 3,2 km/h (1 Bft) NO 39 1 min 0,0 UV-I 92 W/m 7,0 C 12,0 km/h (2 Bft)
03.03.2024 16:40 15,2 C 14,6 C 58 % 1002,6 hPa 0,0 l/m 3,8 km/h (1 Bft) O 89 1 min 0,0 UV-I 100 W/m 7,0 C 12,0 km/h (2 Bft)
03.03.2024 16:39 15,3 C 14,6 C 57 % 1002,7 hPa 0,0 l/m 5,1 km/h (1 Bft) O-NO 72 1 min 0,0 UV-I 103 W/m 6,8 C 12,0 km/h (2 Bft)
03.03.2024 16:38 15,2 C 14,9 C 57 % 1002,8 hPa 0,0 l/m 6,1 km/h (2 Bft) N-NO 33 1 min 0,0 UV-I 105 W/m 6,7 C 11,0 km/h (2 Bft)
03.03.2024 16:37 15,3 C 14,9 C 57 % 1002,6 hPa 0,0 l/m 4,3 km/h (1 Bft) N-NO 21 1 min 0,0 UV-I 105 W/m 6,8 C 8,0 km/h (2 Bft)
03.03.2024 16:36 15,3 C 14,9 C 57 % 1002,6 hPa 0,0 l/m 3,1 km/h (1 Bft) NO 34 1 min 0,0 UV-I 105 W/m 6,8 C 9,0 km/h (2 Bft)
03.03.2024 16:35 15,3 C 15,1 C 57 % 1002,7 hPa 0,0 l/m 1,6 km/h (1 Bft) N 9 1 min 0,0 UV-I 105 W/m 6,8 C 11,0 km/h (2 Bft)
03.03.2024 16:34 15,3 C 15,1 C 57 % 1002,7 hPa 0,0 l/m 5,6 km/h (1 Bft) NO 40 1 min 0,0 UV-I 105 W/m 6,8 C 11,0 km/h (2 Bft)
03.03.2024 16:33 15,3 C 15,2 C 57 % 1002,7 hPa 0,0 l/m 7,1 km/h (2 Bft) N-NO 14 1 min 0,0 UV-I 107 W/m 6,8 C 12,0 km/h (2 Bft)
03.03.2024 16:32 15,4 C 15,1 C 57 % 1002,6 hPa 0,0 l/m 6,2 km/h (2 Bft) N-NO 32 1 min 0,0 UV-I 107 W/m 6,9 C 12,0 km/h (2 Bft)
03.03.2024 16:31 15,4 C 15,1 C 57 % 1002,8 hPa 0,0 l/m 5,2 km/h (1 Bft) N 7 1 min 0,0 UV-I 103 W/m 6,9 C 12,0 km/h (2 Bft)
03.03.2024 16:30 15,4 C 15,1 C 57 % 1002,7 hPa 0,0 l/m 2,7 km/h (1 Bft) O-NO 57 1 min 0,0 UV-I 103 W/m 6,9 C 10,0 km/h (2 Bft)
03.03.2024 16:29 15,4 C 15,1 C 57 % 1002,7 hPa 0,0 l/m 3,8 km/h (1 Bft) O-SO 108 1 min 0,0 UV-I 107 W/m 6,9 C 10,0 km/h (2 Bft)
03.03.2024 16:28 15,4 C 15,2 C 57 % 1002,7 hPa 0,0 l/m 1,6 km/h (1 Bft) O-SO 104 1 min 0,0 UV-I 110 W/m 6,9 C 10,0 km/h (2 Bft)
03.03.2024 16:27 15,4 C 15,3 C 57 % 1002,6 hPa 0,0 l/m 4,5 km/h (1 Bft) N-NO 25 1 min 0,0 UV-I 113 W/m 6,9 C 11,0 km/h (2 Bft)
03.03.2024 16:26 15,4 C 15,2 C 56 % 1002,8 hPa 0,0 l/m 7,6 km/h (2 Bft) NO 34 1 min 0,0 UV-I 116 W/m 6,7 C 11,0 km/h (2 Bft)
03.03.2024 16:25 15,5 C 15,2 C 57 % 1002,8 hPa 0,0 l/m 6,5 km/h (2 Bft) N-NO 22 1 min 0,0 UV-I 119 W/m 7,0 C 13,0 km/h (3 Bft)
03.03.2024 16:24 15,5 C 15,1 C 56 % 1002,7 hPa 0,0 l/m 6,2 km/h (2 Bft) N-NO 17 1 min 0,0 UV-I 106 W/m 6,8 C 15,0 km/h (3 Bft)
03.03.2024 16:23 15,5 C 15,1 C 56 % 1002,6 hPa 0,0 l/m 6,8 km/h (2 Bft) N-NO 33 1 min 0,0 UV-I 105 W/m 6,8 C 15,0 km/h (3 Bft)
03.03.2024 16:22 15,6 C 15,4 C 56 % 1002,8 hPa 0,0 l/m 3,4 km/h (1 Bft) NO 48 1 min 0,0 UV-I 105 W/m 6,9 C 17,0 km/h (3 Bft)
03.03.2024 16:21 15,6 C 15,4 C 56 % 1002,9 hPa 0,0 l/m 7,0 km/h (2 Bft) NO 38 1 min 0,0 UV-I 113 W/m 6,9 C 17,0 km/h (3 Bft)
03.03.2024 16:20 15,6 C 15,5 C 56 % 1002,9 hPa 0,0 l/m 7,0 km/h (2 Bft) NO 48 1 min 0,0 UV-I 111 W/m 6,9 C 17,0 km/h (3 Bft)
03.03.2024 16:19 15,6 C 15,6 C 56 % 1002,9 hPa 0,0 l/m 4,5 km/h (1 Bft) NO 40 1 min 0,0 UV-I 112 W/m 6,9 C 17,0 km/h (3 Bft)
03.03.2024 16:18 15,7 C 15,5 C 56 % 1002,8 hPa 0,0 l/m 6,1 km/h (2 Bft) N-NO 16 1 min 0,0 UV-I 110 W/m 6,9 C 17,0 km/h (3 Bft)
03.03.2024 16:17 15,7 C 15,7 C 56 % 1002,7 hPa 0,0 l/m 3,3 km/h (1 Bft) N-NO 33 1 min 0,0 UV-I 110 W/m 6,9 C 11,0 km/h (2 Bft)
03.03.2024 16:16 15,7 C 15,6 C 56 % 1002,7 hPa 0,0 l/m 2,7 km/h (1 Bft) NO 52 1 min 0,0 UV-I 105 W/m 6,9 C 12,0 km/h (2 Bft)
03.03.2024 16:15 15,7 C 15,7 C 56 % 1002,9 hPa 0,0 l/m 3,4 km/h (1 Bft) NO 43 1 min 0,0 UV-I 105 W/m 6,9 C 12,0 km/h (2 Bft)
03.03.2024 16:14 15,7 C 15,9 C 56 % 1002,6 hPa 0,0 l/m 6,7 km/h (2 Bft) N-NO 26 1 min 0,0 UV-I 106 W/m 6,9 C 12,0 km/h (2 Bft)
03.03.2024 16:13 15,8 C 16,0 C 56 % 1002,9 hPa 0,0 l/m 5,6 km/h (1 Bft) N-NO 17 1 min 0,0 UV-I 110 W/m 7,0 C 19,0 km/h (3 Bft)
03.03.2024 16:12 15,8 C 16,3 C 56 % 1002,9 hPa 0,0 l/m 5,8 km/h (2 Bft) NO 42 1 min 0,0 UV-I 125 W/m 7,0 C 19,0 km/h (3 Bft)
03.03.2024 16:11 15,8 C 16,3 C 56 % 1002,9 hPa 0,0 l/m 6,4 km/h (2 Bft) NO 42 1 min 0,0 UV-I 128 W/m 7,0 C 19,0 km/h (3 Bft)
03.03.2024 16:10 15,8 C 16,5 C 56 % 1002,9 hPa 0,0 l/m 6,0 km/h (2 Bft) O-NO 61 1 min 0,0 UV-I 134 W/m 7,0 C 10,0 km/h (2 Bft)
03.03.2024 16:09 15,8 C 16,4 C 56 % 1002,7 hPa 0,0 l/m 1,3 km/h (1 Bft) O 92 1 min 0,0 UV-I 132 W/m 7,0 C 9,0 km/h (2 Bft)
03.03.2024 16:08 15,8 C 16,2 C 56 % 1002,9 hPa 0,0 l/m 4,7 km/h (1 Bft) NO 38 1 min 0,0 UV-I 125 W/m 7,0 C 15,0 km/h (3 Bft)
03.03.2024 16:07 15,8 C 15,9 C 55 % 1002,7 hPa 0,0 l/m 5,8 km/h (2 Bft) N-NO 31 1 min 0,0 UV-I 128 W/m 6,8 C 15,0 km/h (3 Bft)
03.03.2024 16:06 15,8 C 15,9 C 55 % 1002,8 hPa 0,0 l/m 6,7 km/h (2 Bft) N-NO 17 1 min 0,0 UV-I 127 W/m 6,8 C 15,0 km/h (3 Bft)
03.03.2024 16:05 15,8 C 16,0 C 55 % 1002,9 hPa 0,0 l/m 5,4 km/h (1 Bft) N-NO 29 1 min 0,0 UV-I 129 W/m 6,8 C 12,0 km/h (2 Bft)
03.03.2024 16:04 15,8 C 16,0 C 55 % 1002,9 hPa 0,0 l/m 5,6 km/h (1 Bft) N 7 1 min 0,0 UV-I 129 W/m 6,8 C 12,0 km/h (2 Bft)
03.03.2024 16:03 15,8 C 16,2 C 55 % 1002,9 hPa 0,0 l/m 3,3 km/h (1 Bft) NO 40 1 min 0,0 UV-I 134 W/m 6,8 C 9,0 km/h (2 Bft)
03.03.2024 16:02 15,8 C 16,1 C 55 % 1002,8 hPa 0,0 l/m 3,8 km/h (1 Bft) N-NO 13 1 min 0,0 UV-I 135 W/m 6,8 C 9,0 km/h (2 Bft)
03.03.2024 16:01 15,9 C 16,2 C 55 % 1002,7 hPa 0,0 l/m 3,9 km/h (1 Bft) O-NO 73 1 min 0,0 UV-I 134 W/m 6,9 C 12,0 km/h (2 Bft)
03.03.2024 16:00 15,9 C 16,4 C 55 % 1002,6 hPa 0,0 l/m 6,7 km/h (2 Bft) NO 42 1 min 0,0 UV-I 141 W/m 6,9 C 12,0 km/h (2 Bft)
03.03.2024 15:59 15,9 C 16,4 C 55 % 1002,8 hPa 0,0 l/m 4,0 km/h (1 Bft) NO 53 1 min 0,0 UV-I 145 W/m 6,9 C 9,0 km/h (2 Bft)
03.03.2024 15:58 16,0 C 16,1 C 54 % 1002,7 hPa 0,0 l/m 4,3 km/h (1 Bft) NO 38 1 min 0,0 UV-I 132 W/m 6,7 C 13,0 km/h (3 Bft)
03.03.2024 15:57 16,0 C 15,8 C 54 % 1002,5 hPa 0,0 l/m 4,5 km/h (1 Bft) N-NO 33 1 min 0,0 UV-I 125 W/m 6,7 C 13,0 km/h (3 Bft)
03.03.2024 15:56 16,0 C 15,9 C 54 % 1002,9 hPa 0,0 l/m 7,6 km/h (2 Bft) N-NO 25 1 min 0,0 UV-I 119 W/m 6,7 C 14,0 km/h (3 Bft)
03.03.2024 15:55 16,0 C 15,9 C 54 % 1002,7 hPa 0,0 l/m 6,0 km/h (2 Bft) NO 47 0 min 0,0 UV-I 116 W/m 6,7 C 14,0 km/h (3 Bft)
03.03.2024 15:54 16,1 C 15,9 C 54 % 1002,8 hPa 0,0 l/m 7,7 km/h (2 Bft) NO 52 1 min 0,0 UV-I 125 W/m 6,8 C 14,0 km/h (3 Bft)
03.03.2024 15:53 16,1 C 16,0 C 55 % 1002,9 hPa 0,0 l/m 5,2 km/h (1 Bft) NO 46 0 min 0,0 UV-I 115 W/m 7,1 C 14,0 km/h (3 Bft)
03.03.2024 15:52 16,1 C 16,5 C 55 % 1002,6 hPa 0,0 l/m 8,4 km/h (2 Bft) NO 52 1 min 0,0 UV-I 122 W/m 7,1 C 14,0 km/h (3 Bft)
03.03.2024 15:51 16,1 C 16,9 C 54 % 1002,6 hPa 0,0 l/m 4,2 km/h (1 Bft) O-NO 67 1 min 0,0 UV-I 123 W/m 6,8 C 7,0 km/h (2 Bft)
03.03.2024 15:50 16,1 C 17,1 C 54 % 1002,6 hPa 0,0 l/m 2,0 km/h (1 Bft) N-NO 29 1 min 0,0 UV-I 139 W/m 6,8 C 14,0 km/h (3 Bft)
03.03.2024 15:49 16,1 C 17,5 C 54 % 1002,8 hPa 0,0 l/m 4,1 km/h (1 Bft) NO 53 1 min 0,0 UV-I 140 W/m 6,8 C 14,0 km/h (3 Bft)
03.03.2024 15:48 16,2 C 17,5 C 55 % 1002,8 hPa 0,0 l/m 4,5 km/h (1 Bft) NO 46 1 min 0,0 UV-I 157 W/m 7,2 C 14,0 km/h (3 Bft)
03.03.2024 15:47 16,1 C 17,7 C 55 % 1002,5 hPa 0,0 l/m 5,6 km/h (1 Bft) NO 47 1 min 0,0 UV-I 165 W/m 7,1 C 12,0 km/h (2 Bft)
03.03.2024 15:46 16,2 C 17,8 C 55 % 1002,6 hPa 0,0 l/m 4,1 km/h (1 Bft) N-NO 15 1 min 0,0 UV-I 167 W/m 7,2 C 11,0 km/h (2 Bft)
03.03.2024 15:45 16,2 C 17,4 C 55 % 1002,6 hPa 0,0 l/m 4,5 km/h (1 Bft) NO 55 1 min 0,0 UV-I 182 W/m 7,2 C 12,0 km/h (2 Bft)
03.03.2024 15:44 16,2 C 17,3 C 55 % 1002,6 hPa 0,0 l/m 5,2 km/h (1 Bft) NO 54 1 min 0,0 UV-I 184 W/m 7,2 C 12,0 km/h (2 Bft)
03.03.2024 15:43 16,2 C 17,4 C 55 % 1002,6 hPa 0,0 l/m 6,5 km/h (2 Bft) N 359 1 min 0,0 UV-I 183 W/m 7,2 C 12,0 km/h (2 Bft)
03.03.2024 15:42 16,2 C 17,9 C 55 % 1002,7 hPa 0,0 l/m 7,4 km/h (2 Bft) N-NO 17 1 min 0,0 UV-I 188 W/m 7,2 C 10,0 km/h (2 Bft)
03.03.2024 15:41 16,2 C 18,0 C 55 % 1002,7 hPa 0,0 l/m 1,0 km/h (0 Bft) O-SO 107 1 min 0,0 UV-I 174 W/m 7,2 C 10,0 km/h (2 Bft)
03.03.2024 15:40 16,2 C 18,0 C 55 % 1002,7 hPa 0,0 l/m 4,7 km/h (1 Bft) N-NO 25 1 min 0,0 UV-I 185 W/m 7,2 C 10,0 km/h (2 Bft)
03.03.2024 15:39 16,2 C 18,8 C 55 % 1002,7 hPa 0,0 l/m 6,0 km/h (2 Bft) N-NO 32 1 min 0,0 UV-I 195 W/m 7,2 C 10,0 km/h (2 Bft)
03.03.2024 15:38 16,2 C 18,6 C 55 % 1002,4 hPa 0,0 l/m 8,0 km/h (2 Bft) N-NO 17 1 min 1,0 UV-I 214 W/m 7,2 C 9,0 km/h (2 Bft)
03.03.2024 15:37 16,2 C 18,3 C 55 % 1002,7 hPa 0,0 l/m 4,9 km/h (1 Bft) O-NO 64 1 min 1,0 UV-I 216 W/m 7,2 C 17,0 km/h (3 Bft)
03.03.2024 15:36 16,2 C 18,0 C 55 % 1002,8 hPa 0,0 l/m 4,3 km/h (1 Bft) N-NO 16 1 min 1,0 UV-I 201 W/m 7,2 C 17,0 km/h (3 Bft)
03.03.2024 15:35 16,2 C 18,4 C 55 % 1002,5 hPa 0,0 l/m 7,0 km/h (2 Bft) N-NO 12 1 min 1,0 UV-I 211 W/m 7,2 C 17,0 km/h (3 Bft)
03.03.2024 15:34 16,2 C 18,4 C 55 % 1002,6 hPa 0,0 l/m 9,4 km/h (2 Bft) NO 36 1 min 1,0 UV-I 212 W/m 7,2 C 13,0 km/h (3 Bft)
03.03.2024 15:33 16,2 C 18,3 C 55 % 1002,6 hPa 0,0 l/m 3,6 km/h (1 Bft) N-NO 33 1 min 1,0 UV-I 203 W/m 7,2 C 8,0 km/h (2 Bft)
03.03.2024 15:32 16,2 C 18,3 C 55 % 1002,6 hPa 0,0 l/m 5,2 km/h (1 Bft) N-NO 31 1 min 0,0 UV-I 198 W/m 7,2 C 12,0 km/h (2 Bft)
03.03.2024 15:31 16,2 C 18,3 C 55 % 1002,5 hPa 0,0 l/m 5,1 km/h (1 Bft) O-NO 76 1 min 1,0 UV-I 207 W/m 7,2 C 12,0 km/h (2 Bft)
03.03.2024 15:30 16,2 C 17,8 C 55 % 1002,7 hPa 0,0 l/m 6,0 km/h (2 Bft) NO 54 1 min 1,0 UV-I 237 W/m 7,2 C 12,0 km/h (2 Bft)
03.03.2024 15:29 16,2 C 17,7 C 55 % 1002,4 hPa 0,0 l/m 6,3 km/h (2 Bft) N-NO 25 1 min 1,0 UV-I 244 W/m 7,2 C 17,0 km/h (3 Bft)
03.03.2024 15:28 16,2 C 17,9 C 55 % 1002,4 hPa 0,0 l/m 8,4 km/h (2 Bft) N-NO 29 1 min 1,0 UV-I 236 W/m 7,2 C 17,0 km/h (3 Bft)
03.03.2024 15:27 16,2 C 18,2 C 56 % 1002,6 hPa 0,0 l/m 6,9 km/h (2 Bft) NO 38 1 min 1,0 UV-I 240 W/m 7,4 C 11,0 km/h (2 Bft)
03.03.2024 15:26 16,2 C 18,1 C 55 % 1002,4 hPa 0,0 l/m 3,8 km/h (1 Bft) O-NO 78 1 min 1,0 UV-I 234 W/m 7,2 C 14,0 km/h (3 Bft)
03.03.2024 15:25 16,2 C 18,1 C 56 % 1002,4 hPa 0,0 l/m 6,7 km/h (2 Bft) N-NO 24 1 min 1,0 UV-I 221 W/m 7,4 C 14,0 km/h (3 Bft)
03.03.2024 15:24 16,2 C 18,1 C 56 % 1002,4 hPa 0,0 l/m 8,4 km/h (2 Bft) N-NO 17 1 min 1,0 UV-I 220 W/m 7,4 C 14,0 km/h (3 Bft)
03.03.2024 15:23 16,2 C 18,4 C 56 % 1002,5 hPa 0,0 l/m 2,5 km/h (1 Bft) NO 43 1 min 0,0 UV-I 190 W/m 7,4 C 9,0 km/h (2 Bft)
03.03.2024 15:22 16,2 C 18,7 C 56 % 1002,5 hPa 0,0 l/m 3,9 km/h (1 Bft) NO 46 1 min 1,0 UV-I 238 W/m 7,4 C 12,0 km/h (2 Bft)
03.03.2024 15:21 16,2 C 18,7 C 56 % 1002,7 hPa 0,0 l/m 6,4 km/h (2 Bft) N 4 1 min 1,0 UV-I 232 W/m 7,4 C 12,0 km/h (2 Bft)
03.03.2024 15:20 16,2 C 18,8 C 56 % 1002,4 hPa 0,0 l/m 6,1 km/h (2 Bft) N 8 1 min 1,0 UV-I 211 W/m 7,4 C 13,0 km/h (3 Bft)
03.03.2024 15:19 16,2 C 18,7 C 56 % 1002,6 hPa 0,0 l/m 1,3 km/h (1 Bft) O 80 1 min 1,0 UV-I 211 W/m 7,4 C 18,0 km/h (3 Bft)
03.03.2024 15:18 16,2 C 18,2 C 56 % 1002,6 hPa 0,0 l/m 6,5 km/h (2 Bft) O-NO 57 1 min 1,0 UV-I 212 W/m 7,4 C 18,0 km/h (3 Bft)
03.03.2024 15:17 16,2 C 19,1 C 55 % 1002,6 hPa 0,0 l/m 8,3 km/h (2 Bft) N-NO 20 1 min 1,0 UV-I 207 W/m 7,2 C 16,0 km/h (3 Bft)
03.03.2024 15:16 16,2 C 19,1 C 56 % 1002,6 hPa 0,0 l/m 5,8 km/h (2 Bft) N-NO 24 1 min 1,0 UV-I 205 W/m 7,4 C 16,0 km/h (3 Bft)
03.03.2024 15:15 16,1 C 19,3 C 56 % 1002,6 hPa 0,0 l/m 3,1 km/h (1 Bft) N-NO 25 1 min 1,0 UV-I 218 W/m 7,3 C 6,0 km/h (2 Bft)
03.03.2024 15:14 16,1 C 19,6 C 56 % 1002,5 hPa 0,0 l/m 0,0 km/h (0 Bft) N-NO 26 1 min 1,0 UV-I 255 W/m 7,3 C 7,0 km/h (2 Bft)
03.03.2024 15:13 16,1 C 19,5 C 56 % 1002,7 hPa 0,0 l/m 3,6 km/h (1 Bft) NO 54 1 min 1,0 UV-I 276 W/m 7,3 C 10,0 km/h (2 Bft)
03.03.2024 15:12 16,1 C 19,3 C 56 % 1002,5 hPa 0,0 l/m 2,3 km/h (1 Bft) O 80 1 min 1,0 UV-I 280 W/m 7,3 C 13,0 km/h (3 Bft)
03.03.2024 15:11 16,1 C 19,7 C 56 % 1002,6 hPa 0,0 l/m 4,5 km/h (1 Bft) O 98 1 min 1,0 UV-I 267 W/m 7,3 C 13,0 km/h (3 Bft)
03.03.2024 15:10 16,2 C 19,1 C 56 % 1002,6 hPa 0,0 l/m 3,2 km/h (1 Bft) NO 46 1 min 1,0 UV-I 258 W/m 7,4 C 12,0 km/h (2 Bft)
03.03.2024 15:09 16,1 C 18,9 C 56 % 1002,6 hPa 0,0 l/m 5,6 km/h (1 Bft) NO 36 1 min 1,0 UV-I 253 W/m 7,3 C 16,0 km/h (3 Bft)
03.03.2024 15:08 16,1 C 18,9 C 56 % 1002,6 hPa 0,0 l/m 4,5 km/h (1 Bft) NO 40 1 min 1,0 UV-I 256 W/m 7,3 C 16,0 km/h (3 Bft)
03.03.2024 15:07 16,1 C 18,8 C 55 % 1002,7 hPa 0,0 l/m 7,4 km/h (2 Bft) O-NO 59 1 min 1,0 UV-I 250 W/m 7,1 C 16,0 km/h (3 Bft)
03.03.2024 15:06 16,1 C 18,9 C 56 % 1002,6 hPa 0,0 l/m 3,5 km/h (1 Bft) O-NO 71 1 min 1,0 UV-I 247 W/m 7,3 C 13,0 km/h (3 Bft)
03.03.2024 15:05 16,1 C 18,9 C 56 % 1002,5 hPa 0,0 l/m 5,6 km/h (1 Bft) N-NO 22 1 min 1,0 UV-I 261 W/m 7,3 C 12,0 km/h (2 Bft)
03.03.2024 15:04 16,1 C 19,1 C 57 % 1002,5 hPa 0,0 l/m 5,1 km/h (1 Bft) N 4 1 min 1,0 UV-I 278 W/m 7,6 C 11,0 km/h (2 Bft)
03.03.2024 15:03 16,1 C 19,8 C 57 % 1002,6 hPa 0,0 l/m 0,7 km/h (0 Bft) O-NO 60 1 min 1,0 UV-I 271 W/m 7,6 C 12,0 km/h (2 Bft)
03.03.2024 15:02 16,1 C 19,2 C 56 % 1002,4 hPa 0,0 l/m 2,0 km/h (1 Bft) NO 43 1 min 1,0 UV-I 245 W/m 7,3 C 12,0 km/h (2 Bft)
03.03.2024 15:01 16,1 C 19,3 C 56 % 1002,6 hPa 0,0 l/m 5,6 km/h (1 Bft) N 5 1 min 1,0 UV-I 231 W/m 7,3 C 12,0 km/h (2 Bft)
03.03.2024 15:00 16,1 C 19,2 C 56 % 1002,6 hPa 0,0 l/m 2,3 km/h (1 Bft) O-NO 58 1 min 1,0 UV-I 233 W/m 7,3 C 12,0 km/h (2 Bft)
03.03.2024 14:59 16,1 C 19,1 C 56 % 1002,5 hPa 0,0 l/m 2,3 km/h (1 Bft) N 11 1 min 1,0 UV-I 254 W/m 7,3 C 9,0 km/h (2 Bft)
03.03.2024 14:58 16,1 C 18,6 C 56 % 1002,4 hPa 0,0 l/m 0,0 km/h (0 Bft) N 4 1 min 1,0 UV-I 276 W/m 7,3 C 10,0 km/h (2 Bft)
03.03.2024 14:57 16,1 C 19,2 C 56 % 1002,7 hPa 0,0 l/m 4,0 km/h (1 Bft) N 356 1 min 1,0 UV-I 300 W/m 7,3 C 16,0 km/h (3 Bft)
03.03.2024 14:56 16,1 C 20,0 C 57 % 1002,5 hPa 0,0 l/m 5,4 km/h (1 Bft) N-NO 32 1 min 1,0 UV-I 305 W/m 7,6 C 16,0 km/h (3 Bft)
03.03.2024 14:55 16,0 C 19,9 C 57 % 1002,5 hPa 0,0 l/m 4,3 km/h (1 Bft) N 11 1 min 1,0 UV-I 311 W/m 7,5 C 9,0 km/h (2 Bft)
03.03.2024 14:54 16,1 C 20,2 C 57 % 1002,5 hPa 0,0 l/m 2,7 km/h (1 Bft) NO 40 1 min 1,0 UV-I 313 W/m 7,6 C 8,0 km/h (2 Bft)
03.03.2024 14:53 16,0 C 20,6 C 57 % 1002,7 hPa 0,0 l/m 4,5 km/h (1 Bft) NO 53 1 min 1,0 UV-I 320 W/m 7,5 C 8,0 km/h (2 Bft)
03.03.2024 14:52 16,0 C 20,4 C 57 % 1002,4 hPa 0,0 l/m 3,8 km/h (1 Bft) O 79 1 min 1,0 UV-I 316 W/m 7,5 C 8,0 km/h (2 Bft)
03.03.2024 14:51 16,0 C 20,4 C 57 % 1002,7 hPa 0,0 l/m 4,7 km/h (1 Bft) O 95 1 min 1,0 UV-I 311 W/m 7,5 C 8,0 km/h (2 Bft)
03.03.2024 14:50 15,9 C 20,3 C 57 % 1002,7 hPa 0,0 l/m 3,1 km/h (1 Bft) O 91 1 min 1,0 UV-I 298 W/m 7,4 C 8,0 km/h (2 Bft)
03.03.2024 14:49 15,9 C 20,1 C 57 % 1002,5 hPa 0,0 l/m 2,7 km/h (1 Bft) NO 43 1 min 1,0 UV-I 305 W/m 7,4 C 12,0 km/h (2 Bft)
03.03.2024 14:48 15,9 C 19,5 C 57 % 1002,6 hPa 0,0 l/m 2,9 km/h (1 Bft) N 352 1 min 1,0 UV-I 314 W/m 7,4 C 12,0 km/h (2 Bft)
03.03.2024 14:47 15,9 C 19,7 C 58 % 1002,5 hPa 0,0 l/m 6,3 km/h (2 Bft) O 101 1 min 1,0 UV-I 313 W/m 7,6 C 12,0 km/h (2 Bft)
03.03.2024 14:46 15,9 C 20,2 C 58 % 1002,5 hPa 0,0 l/m 0,0 km/h (0 Bft) O 85 1 min 1,0 UV-I 313 W/m 7,6 C 8,0 km/h (2 Bft)
03.03.2024 14:45 15,9 C 19,3 C 57 % 1002,5 hPa 0,0 l/m 1,4 km/h (1 Bft) NO 48 1 min 1,0 UV-I 299 W/m 7,4 C 8,0 km/h (2 Bft)
03.03.2024 14:44 15,9 C 19,2 C 56 % 1002,5 hPa 0,0 l/m 6,7 km/h (2 Bft) NO 44 1 min 1,0 UV-I 280 W/m 7,1 C 8,0 km/h (2 Bft)
03.03.2024 14:43 15,9 C 18,4 C 56 % 1002,5 hPa 0,0 l/m 7,1 km/h (2 Bft) NO 42 1 min 1,0 UV-I 280 W/m 7,1 C 8,0 km/h (2 Bft)
03.03.2024 14:42 16,0 C 18,5 C 56 % 1002,5 hPa 0,0 l/m 4,7 km/h (1 Bft) O-NO 63 1 min 1,0 UV-I 287 W/m 7,2 C 10,0 km/h (2 Bft)
03.03.2024 14:41 16,0 C 18,0 C 56 % 1002,5 hPa 0,0 l/m 4,8 km/h (1 Bft) N 2 1 min 1,0 UV-I 300 W/m 7,2 C 12,0 km/h (2 Bft)
03.03.2024 14:40 16,0 C 18,3 C 56 % 1002,7 hPa 0,0 l/m 7,0 km/h (2 Bft) N 7 1 min 1,0 UV-I 324 W/m 7,2 C 16,0 km/h (3 Bft)
03.03.2024 14:39 16,0 C 17,9 C 57 % 1002,4 hPa 0,0 l/m 5,5 km/h (1 Bft) NO 41 1 min 1,0 UV-I 331 W/m 7,5 C 18,0 km/h (3 Bft)
03.03.2024 14:38 16,0 C 18,1 C 56 % 1002,6 hPa 0,0 l/m 9,3 km/h (2 Bft) N-NO 20 1 min 1,0 UV-I 321 W/m 7,2 C 18,0 km/h (3 Bft)
03.03.2024 14:37 16,0 C 18,8 C 56 % 1002,5 hPa 0,0 l/m 7,6 km/h (2 Bft) N-NO 32 1 min 1,0 UV-I 314 W/m 7,2 C 12,0 km/h (2 Bft)
03.03.2024 14:36 16,0 C 19,4 C 56 % 1002,5 hPa 0,0 l/m 6,4 km/h (2 Bft) N-NO 17 1 min 1,0 UV-I 310 W/m 7,2 C 9,0 km/h (2 Bft)
03.03.2024 14:35 16,0 C 19,4 C 56 % 1002,4 hPa 0,0 l/m 3,2 km/h (1 Bft) N-NO 13 1 min 1,0 UV-I 321 W/m 7,2 C 9,0 km/h (2 Bft)
03.03.2024 14:34 16,0 C 20,0 C 56 % 1002,6 hPa 0,0 l/m 1,6 km/h (1 Bft) NO 53 1 min 1,0 UV-I 329 W/m 7,2 C 7,0 km/h (2 Bft)
03.03.2024 14:33 15,9 C 20,5 C 57 % 1002,6 hPa 0,0 l/m 5,2 km/h (1 Bft) O-NO 65 1 min 1,0 UV-I 319 W/m 7,4 C 12,0 km/h (2 Bft)
03.03.2024 14:32 15,9 C 19,8 C 57 % 1002,5 hPa 0,0 l/m 3,8 km/h (1 Bft) O-NO 70 1 min 1,0 UV-I 326 W/m 7,4 C 12,0 km/h (2 Bft)
03.03.2024 14:31 15,9 C 20,0 C 57 % 1002,5 hPa 0,0 l/m 5,1 km/h (1 Bft) O 82 1 min 1,0 UV-I 337 W/m 7,4 C 12,0 km/h (2 Bft)
03.03.2024 14:30 15,9 C 20,2 C 56 % 1002,5 hPa 0,0 l/m 5,1 km/h (1 Bft) O-NO 71 1 min 1,0 UV-I 351 W/m 7,1 C 10,0 km/h (2 Bft)
03.03.2024 14:29 15,9 C 19,5 C 56 % 1002,4 hPa 0,0 l/m 3,9 km/h (1 Bft) NO 44 1 min 1,0 UV-I 358 W/m 7,1 C 10,0 km/h (2 Bft)
03.03.2024 14:28 15,9 C 19,5 C 56 % 1002,4 hPa 0,0 l/m 4,3 km/h (1 Bft) NO 36 1 min 1,0 UV-I 360 W/m 7,1 C 10,0 km/h (2 Bft)
03.03.2024 14:27 15,9 C 19,5 C 56 % 1002,6 hPa 0,0 l/m 2,9 km/h (1 Bft) O-NO 65 1 min 1,0 UV-I 369 W/m 7,1 C 10,0 km/h (2 Bft)
03.03.2024 14:26 15,9 C 19,8 C 56 % 1002,7 hPa 0,0 l/m 7,2 km/h (2 Bft) O 82 1 min 1,0 UV-I 380 W/m 7,1 C 10,0 km/h (2 Bft)
03.03.2024 14:25 15,9 C 19,1 C 56 % 1002,6 hPa 0,0 l/m 5,2 km/h (1 Bft) O-NO 62 1 min 1,0 UV-I 382 W/m 7,1 C 11,0 km/h (2 Bft)
03.03.2024 14:24 15,9 C 18,9 C 56 % 1002,8 hPa 0,0 l/m 6,4 km/h (2 Bft) N 359 1 min 1,0 UV-I 377 W/m 7,1 C 13,0 km/h (3 Bft)
03.03.2024 14:23 15,9 C 18,8 C 56 % 1002,7 hPa 0,0 l/m 6,0 km/h (2 Bft) N 352 1 min 1,0 UV-I 368 W/m 7,1 C 13,0 km/h (3 Bft)
03.03.2024 14:22 15,9 C 19,0 C 56 % 1002,7 hPa 0,0 l/m 7,4 km/h (2 Bft) N 7 1 min 1,0 UV-I 359 W/m 7,1 C 14,0 km/h (3 Bft)
03.03.2024 14:21 15,9 C 19,2 C 56 % 1002,6 hPa 0,0 l/m 6,1 km/h (2 Bft) N-NO 25 1 min 1,0 UV-I 359 W/m 7,1 C 14,0 km/h (3 Bft)
03.03.2024 14:20 15,9 C 19,1 C 56 % 1002,6 hPa 0,0 l/m 5,1 km/h (1 Bft) N-NO 33 1 min 1,0 UV-I 364 W/m 7,1 C 14,0 km/h (3 Bft)
03.03.2024 14:19 15,8 C 19,6 C 56 % 1002,6 hPa 0,0 l/m 6,5 km/h (2 Bft) N-NO 15 1 min 1,0 UV-I 371 W/m 7,0 C 13,0 km/h (3 Bft)
03.03.2024 14:18 15,8 C 19,8 C 56 % 1002,6 hPa 0,0 l/m 5,6 km/h (1 Bft) N-NO 31 1 min 1,0 UV-I 387 W/m 7,0 C 13,0 km/h (3 Bft)
03.03.2024 14:17 15,8 C 20,5 C 57 % 1002,8 hPa 0,0 l/m 3,9 km/h (1 Bft) N 10 1 min 1,0 UV-I 391 W/m 7,3 C 13,0 km/h (3 Bft)
03.03.2024 14:16 15,7 C 20,1 C 57 % 1002,7 hPa 0,0 l/m 4,9 km/h (1 Bft) N-NW 347 1 min 1,0 UV-I 355 W/m 7,2 C 8,0 km/h (2 Bft)
03.03.2024 14:15 15,7 C 19,8 C 56 % 1002,7 hPa 0,0 l/m 2,3 km/h (1 Bft) N 6 1 min 1,0 UV-I 332 W/m 6,9 C 11,0 km/h (2 Bft)
03.03.2024 14:14 15,7 C 20,0 C 57 % 1002,8 hPa 0,0 l/m 6,4 km/h (2 Bft) N 354 1 min 1,0 UV-I 329 W/m 7,2 C 11,0 km/h (2 Bft)
03.03.2024 14:13 15,6 C 20,2 C 58 % 1002,7 hPa 0,0 l/m 4,2 km/h (1 Bft) N 4 1 min 1,0 UV-I 336 W/m 7,4 C 8,0 km/h (2 Bft)
03.03.2024 14:12 15,5 C 20,2 C 58 % 1002,7 hPa 0,0 l/m 1,4 km/h (1 Bft) NO 46 1 min 1,0 UV-I 337 W/m 7,3 C 5,0 km/h (1 Bft)
03.03.2024 14:11 15,5 C 20,4 C 56 % 1002,8 hPa 0,0 l/m 0,0 km/h (0 Bft) O-SO 115 1 min 1,0 UV-I 353 W/m 6,8 C 6,0 km/h (2 Bft)
03.03.2024 14:10 15,5 C 20,0 C 57 % 1002,6 hPa 0,0 l/m 2,9 km/h (1 Bft) O 97 1 min 1,0 UV-I 369 W/m 7,0 C 6,0 km/h (2 Bft)
03.03.2024 14:09 15,4 C 20,1 C 57 % 1002,9 hPa 0,0 l/m 1,4 km/h (1 Bft) O 95 1 min 1,0 UV-I 371 W/m 6,9 C 10,0 km/h (2 Bft)
03.03.2024 14:08 15,4 C 19,3 C 57 % 1002,9 hPa 0,0 l/m 1,0 km/h (0 Bft) O 92 1 min 1,0 UV-I 349 W/m 6,9 C 10,0 km/h (2 Bft)
03.03.2024 14:07 15,3 C 19,3 C 58 % 1002,7 hPa 0,0 l/m 5,1 km/h (1 Bft) O-NO 62 1 min 1,0 UV-I 321 W/m 7,1 C 10,0 km/h (2 Bft)
03.03.2024 14:06 15,3 C 19,6 C 57 % 1002,7 hPa 0,0 l/m 4,7 km/h (1 Bft) O-NO 72 1 min 1,0 UV-I 325 W/m 6,8 C 9,0 km/h (2 Bft)
03.03.2024 14:05 15,3 C 20,0 C 57 % 1002,7 hPa 0,0 l/m 1,0 km/h (0 Bft) O-SO 111 1 min 1,0 UV-I 333 W/m 6,8 C 6,0 km/h (2 Bft)
03.03.2024 14:04 15,3 C 20,0 C 57 % 1002,7 hPa 0,0 l/m 2,2 km/h (1 Bft) SO 142 1 min 1,0 UV-I 349 W/m 6,8 C 6,0 km/h (2 Bft)
03.03.2024 14:03 15,3 C 20,3 C 58 % 1002,6 hPa 0,0 l/m 0,0 km/h (0 Bft) O-NO 59 1 min 1,0 UV-I 370 W/m 7,1 C 3,0 km/h (1 Bft)
03.03.2024 14:02 15,2 C 20,5 C 58 % 1002,6 hPa 0,0 l/m 0,0 km/h (0 Bft) O 85 1 min 1,0 UV-I 374 W/m 7,0 C 4,0 km/h (1 Bft)
03.03.2024 14:01 15,2 C 20,3 C 57 % 1002,7 hPa 0,0 l/m 0,0 km/h (0 Bft) N 7 1 min 1,0 UV-I 363 W/m 6,7 C 4,0 km/h (1 Bft)
03.03.2024 14:00 15,2 C 19,8 C 58 % 1002,8 hPa 0,0 l/m 0,0 km/h (0 Bft) W 277 1 min 1,0 UV-I 368 W/m 7,0 C 5,0 km/h (1 Bft)
03.03.2024 13:59 15,2 C 19,9 C 58 % 1002,7 hPa 0,0 l/m 2,7 km/h (1 Bft) O-NO 66 1 min 1,0 UV-I 373 W/m 7,0 C 6,0 km/h (2 Bft)
03.03.2024 13:58 15,2 C 19,1 C 57 % 1002,7 hPa 0,0 l/m 1,3 km/h (1 Bft) SO 131 1 min 1,0 UV-I 367 W/m 6,7 C 6,0 km/h (2 Bft)
03.03.2024 13:57 15,3 C 19,3 C 57 % 1002,8 hPa 0,0 l/m 3,6 km/h (1 Bft) SO 134 1 min 1,0 UV-I 363 W/m 6,8 C 6,0 km/h (2 Bft)
03.03.2024 13:56 15,3 C 19,0 C 57 % 1002,8 hPa 0,0 l/m 1,4 km/h (1 Bft) O-SO 118 1 min 1,0 UV-I 362 W/m 6,8 C 9,0 km/h (2 Bft)
03.03.2024 13:55 15,3 C 18,8 C 57 % 1002,8 hPa 0,0 l/m 2,0 km/h (1 Bft) S-SO 148 1 min 1,0 UV-I 367 W/m 6,8 C 9,0 km/h (2 Bft)
03.03.2024 13:54 15,3 C 19,4 C 58 % 1003,0 hPa 0,0 l/m 6,0 km/h (2 Bft) SO 138 1 min 1,0 UV-I 375 W/m 7,1 C 9,0 km/h (2 Bft)
03.03.2024 13:53 15,3 C 19,8 C 58 % 1002,9 hPa 0,0 l/m 5,8 km/h (2 Bft) S-SO 160 1 min 1,0 UV-I 370 W/m 7,1 C 9,0 km/h (2 Bft)
03.03.2024 13:52 15,2 C 19,4 C 59 % 1003,0 hPa 0,0 l/m 3,6 km/h (1 Bft) S-SO 161 1 min 1,0 UV-I 373 W/m 7,2 C 7,0 km/h (2 Bft)
03.03.2024 13:51 15,2 C 20,0 C 60 % 1002,8 hPa 0,0 l/m 5,1 km/h (1 Bft) SO 143 1 min 1,0 UV-I 348 W/m 7,5 C 9,0 km/h (2 Bft)
03.03.2024 13:50 15,1 C 19,5 C 59 % 1003,0 hPa 0,0 l/m 3,5 km/h (1 Bft) O-SO 112 1 min 1,0 UV-I 337 W/m 7,1 C 9,0 km/h (2 Bft)
03.03.2024 13:49 15,1 C 20,1 C 60 % 1003,0 hPa 0,0 l/m 2,3 km/h (1 Bft) SO 136 1 min 1,0 UV-I 351 W/m 7,4 C 6,0 km/h (2 Bft)
03.03.2024 13:48 15,0 C 19,6 C 59 % 1002,6 hPa 0,0 l/m 3,5 km/h (1 Bft) O 87 1 min 1,0 UV-I 374 W/m 7,1 C 7,0 km/h (2 Bft)
03.03.2024 13:47 15,0 C 19,6 C 59 % 1003,0 hPa 0,0 l/m 2,6 km/h (1 Bft) O-NO 58 1 min 1,0 UV-I 387 W/m 7,1 C 7,0 km/h (2 Bft)
03.03.2024 13:46 15,0 C 18,8 C 59 % 1003,0 hPa 0,0 l/m 2,3 km/h (1 Bft) O-NO 77 1 min 1,0 UV-I 375 W/m 7,1 C 7,0 km/h (2 Bft)
03.03.2024 13:45 15,0 C 19,1 C 59 % 1003,0 hPa 0,0 l/m 3,2 km/h (1 Bft) O 83 1 min 1,0 UV-I 376 W/m 7,1 C 7,0 km/h (2 Bft)
03.03.2024 13:44 14,9 C 18,1 C 59 % 1002,9 hPa 0,0 l/m 2,1 km/h (1 Bft) N-NO 32 1 min 1,0 UV-I 401 W/m 7,0 C 7,0 km/h (2 Bft)
03.03.2024 13:43 14,9 C 18,0 C 59 % 1002,9 hPa 0,0 l/m 2,3 km/h (1 Bft) NO 35 1 min 1,0 UV-I 407 W/m 7,0 C 7,0 km/h (2 Bft)
03.03.2024 13:42 14,9 C 18,7 C 60 % 1002,8 hPa 0,0 l/m 4,9 km/h (1 Bft) N-NO 31 1 min 1,0 UV-I 395 W/m 7,2 C 7,0 km/h (2 Bft)
03.03.2024 13:41 14,9 C 18,6 C 59 % 1002,9 hPa 0,0 l/m 3,8 km/h (1 Bft) N 4 1 min 1,0 UV-I 375 W/m 7,0 C 7,0 km/h (2 Bft)
03.03.2024 13:40 14,8 C 18,6 C 60 % 1002,9 hPa 0,0 l/m 3,1 km/h (1 Bft) O-NO 65 1 min 1,0 UV-I 379 W/m 7,1 C 6,0 km/h (2 Bft)
03.03.2024 13:39 14,8 C 18,9 C 61 % 1002,8 hPa 0,0 l/m 1,4 km/h (1 Bft) O-NO 59 1 min 1,0 UV-I 390 W/m 7,4 C 6,0 km/h (2 Bft)
03.03.2024 13:38 14,9 C 18,4 C 59 % 1003,0 hPa 0,0 l/m 0,0 km/h (0 Bft) NO 43 1 min 1,0 UV-I 377 W/m 7,0 C 4,0 km/h (1 Bft)
03.03.2024 13:37 14,9 C 18,3 C 59 % 1002,7 hPa 0,0 l/m 0,0 km/h (0 Bft) O-NO 68 1 min 1,0 UV-I 371 W/m 7,0 C 7,0 km/h (2 Bft)
03.03.2024 13:36 14,8 C 18,5 C 59 % 1002,8 hPa 0,0 l/m 2,3 km/h (1 Bft) NO 39 1 min 1,0 UV-I 364 W/m 6,9 C 7,0 km/h (2 Bft)
03.03.2024 13:35 14,8 C 18,7 C 61 % 1002,7 hPa 0,0 l/m 1,3 km/h (1 Bft) NO 46 1 min 1,0 UV-I 355 W/m 7,4 C 7,0 km/h (2 Bft)
03.03.2024 13:34 14,8 C 18,4 C 60 % 1002,9 hPa 0,0 l/m 2,2 km/h (1 Bft) O-SO 117 1 min 1,0 UV-I 371 W/m 7,1 C 6,0 km/h (2 Bft)
03.03.2024 13:33 14,7 C 18,3 C 61 % 1003,0 hPa 0,0 l/m 3,2 km/h (1 Bft) O-NO 77 1 min 1,0 UV-I 365 W/m 7,3 C 10,0 km/h (2 Bft)
03.03.2024 13:32 14,7 C 18,0 C 61 % 1003,0 hPa 0,0 l/m 3,1 km/h (1 Bft) N-NO 22 1 min 1,0 UV-I 354 W/m 7,3 C 10,0 km/h (2 Bft)
03.03.2024 13:31 14,7 C 18,8 C 61 % 1003,1 hPa 0,0 l/m 4,1 km/h (1 Bft) NO 39 1 min 1,0 UV-I 376 W/m 7,3 C 10,0 km/h (2 Bft)
03.03.2024 13:30 14,6 C 18,6 C 61 % 1002,9 hPa 0,0 l/m 4,2 km/h (1 Bft) O-NO 69 1 min 1,0 UV-I 348 W/m 7,2 C 9,0 km/h (2 Bft)
03.03.2024 13:29 14,6 C 18,9 C 61 % 1002,9 hPa 0,0 l/m 4,7 km/h (1 Bft) N-NO 25 1 min 1,0 UV-I 324 W/m 7,2 C 9,0 km/h (2 Bft)
03.03.2024 13:28 14,6 C 18,8 C 61 % 1002,8 hPa 0,0 l/m 2,3 km/h (1 Bft) N-NO 15 1 min 1,0 UV-I 340 W/m 7,2 C 7,0 km/h (2 Bft)
03.03.2024 13:27 14,6 C 19,4 C 61 % 1003,0 hPa 0,0 l/m 1,6 km/h (1 Bft) N-NO 17 1 min 1,0 UV-I 358 W/m 7,2 C 7,0 km/h (2 Bft)
03.03.2024 13:26 14,6 C 18,7 C 61 % 1002,8 hPa 0,0 l/m 1,4 km/h (1 Bft) S-SO 159 1 min 1,0 UV-I 374 W/m 7,2 C 5,0 km/h (1 Bft)
03.03.2024 13:25 14,6 C 18,2 C 60 % 1002,8 hPa 0,0 l/m 2,3 km/h (1 Bft) S 173 1 min 1,0 UV-I 382 W/m 6,9 C 5,0 km/h (1 Bft)
03.03.2024 13:24 14,6 C 18,2 C 60 % 1002,8 hPa 0,0 l/m 2,6 km/h (1 Bft) S-SO 154 1 min 1,0 UV-I 381 W/m 6,9 C 7,0 km/h (2 Bft)
03.03.2024 13:23 14,6 C 18,0 C 60 % 1002,8 hPa 0,0 l/m 1,4 km/h (1 Bft) SO 145 1 min 1,0 UV-I 389 W/m 6,9 C 7,0 km/h (2 Bft)
03.03.2024 13:22 14,6 C 17,9 C 61 % 1002,9 hPa 0,0 l/m 4,3 km/h (1 Bft) O-SO 123 1 min 1,0 UV-I 387 W/m 7,2 C 7,0 km/h (2 Bft)
03.03.2024 13:21 14,6 C 17,9 C 61 % 1003,0 hPa 0,0 l/m 3,5 km/h (1 Bft) N 7 1 min 2,0 UV-I 412 W/m 7,2 C 7,0 km/h (2 Bft)
03.03.2024 13:20 14,5 C 17,9 C 61 % 1003,0 hPa 0,0 l/m 4,9 km/h (1 Bft) NO 54 1 min 2,0 UV-I 439 W/m 7,1 C 8,0 km/h (2 Bft)
03.03.2024 13:19 14,5 C 17,8 C 62 % 1002,9 hPa 0,0 l/m 4,1 km/h (1 Bft) N 3 1 min 2,0 UV-I 437 W/m 7,3 C 9,0 km/h (2 Bft)
03.03.2024 13:18 14,5 C 18,6 C 62 % 1003,0 hPa 0,0 l/m 4,2 km/h (1 Bft) O 85 1 min 1,0 UV-I 367 W/m 7,3 C 9,0 km/h (2 Bft)
03.03.2024 13:17 14,5 C 18,7 C 62 % 1002,9 hPa 0,0 l/m 3,2 km/h (1 Bft) O-SO 122 1 min 1,0 UV-I 398 W/m 7,3 C 9,0 km/h (2 Bft)
03.03.2024 13:16 14,5 C 18,6 C 62 % 1002,9 hPa 0,0 l/m 4,3 km/h (1 Bft) SO 129 1 min 1,0 UV-I 407 W/m 7,3 C 9,0 km/h (2 Bft)
03.03.2024 13:15 14,4 C 18,0 C 61 % 1002,9 hPa 0,0 l/m 3,9 km/h (1 Bft) O-NO 65 1 min 1,0 UV-I 401 W/m 7,0 C 8,0 km/h (2 Bft)
03.03.2024 13:14 14,4 C 18,2 C 61 % 1002,9 hPa 0,0 l/m 4,3 km/h (1 Bft) O-NO 58 1 min 2,0 UV-I 413 W/m 7,0 C 8,0 km/h (2 Bft)
03.03.2024 13:13 14,3 C 18,8 C 62 % 1003,0 hPa 0,0 l/m 3,6 km/h (1 Bft) O-NO 69 1 min 2,0 UV-I 429 W/m 7,1 C 5,0 km/h (1 Bft)
03.03.2024 13:12 14,3 C 18,3 C 61 % 1003,2 hPa 0,0 l/m 4,0 km/h (1 Bft) NO 50 1 min 2,0 UV-I 436 W/m 6,9 C 6,0 km/h (2 Bft)
03.03.2024 13:11 14,3 C 17,3 C 61 % 1002,9 hPa 0,0 l/m 3,2 km/h (1 Bft) W-NW 300 1 min 2,0 UV-I 431 W/m 6,9 C 6,0 km/h (2 Bft)
03.03.2024 13:10 14,3 C 17,4 C 61 % 1003,2 hPa 0,0 l/m 3,9 km/h (1 Bft) O 90 1 min 2,0 UV-I 439 W/m 6,9 C 7,0 km/h (2 Bft)
03.03.2024 13:09 14,3 C 18,1 C 61 % 1003,0 hPa 0,0 l/m 4,7 km/h (1 Bft) N-NO 16 1 min 2,0 UV-I 437 W/m 6,9 C 7,0 km/h (2 Bft)
03.03.2024 13:08 14,3 C 18,1 C 62 % 1003,0 hPa 0,0 l/m 4,3 km/h (1 Bft) N-NO 22 1 min 2,0 UV-I 434 W/m 7,1 C 7,0 km/h (2 Bft)
03.03.2024 13:07 14,4 C 18,6 C 61 % 1003,2 hPa 0,0 l/m 2,7 km/h (1 Bft) N-NO 19 1 min 1,0 UV-I 403 W/m 7,0 C 5,0 km/h (1 Bft)
03.03.2024 13:06 14,3 C 18,0 C 62 % 1002,9 hPa 0,0 l/m 1,4 km/h (1 Bft) O-NO 64 1 min 1,0 UV-I 386 W/m 7,1 C 5,0 km/h (1 Bft)
03.03.2024 13:05 14,3 C 18,0 C 61 % 1002,8 hPa 0,0 l/m 2,5 km/h (1 Bft) O 83 1 min 1,0 UV-I 381 W/m 6,9 C 5,0 km/h (1 Bft)
03.03.2024 13:04 14,4 C 17,9 C 61 % 1002,9 hPa 0,0 l/m 2,7 km/h (1 Bft) O 89 1 min 1,0 UV-I 390 W/m 7,0 C 5,0 km/h (1 Bft)
03.03.2024 13:03 14,4 C 18,4 C 61 % 1003,0 hPa 0,0 l/m 2,0 km/h (1 Bft) O-NO 61 1 min 1,0 UV-I 397 W/m 7,0 C 7,0 km/h (2 Bft)
03.03.2024 13:02 14,4 C 18,1 C 61 % 1003,0 hPa 0,0 l/m 0,0 km/h (0 Bft) O-NO 68 1 min 1,0 UV-I 401 W/m 7,0 C 8,0 km/h (2 Bft)
03.03.2024 13:01 14,4 C 17,8 C 62 % 1003,2 hPa 0,0 l/m 4,5 km/h (1 Bft) O-NO 72 1 min 1,0 UV-I 382 W/m 7,2 C 8,0 km/h (2 Bft)
03.03.2024 13:00 14,4 C 17,8 C 62 % 1003,2 hPa 0,0 l/m 4,3 km/h (1 Bft) NO 49 1 min 1,0 UV-I 382 W/m 7,2 C 8,0 km/h (2 Bft)
03.03.2024 12:59 14,4 C 17,7 C 62 % 1003,1 hPa 0,0 l/m 2,7 km/h (1 Bft) N-NO 22 1 min 1,0 UV-I 377 W/m 7,2 C 8,0 km/h (2 Bft)
03.03.2024 12:58 14,4 C 18,5 C 62 % 1003,0 hPa 0,0 l/m 3,6 km/h (1 Bft) O-NO 62 1 min 2,0 UV-I 415 W/m 7,2 C 8,0 km/h (2 Bft)
03.03.2024 12:57 14,4 C 18,7 C 62 % 1003,2 hPa 0,0 l/m 1,4 km/h (1 Bft) SO 138 1 min 2,0 UV-I 423 W/m 7,2 C 5,0 km/h (1 Bft)
03.03.2024 12:56 14,4 C 18,0 C 62 % 1003,2 hPa 0,0 l/m 2,5 km/h (1 Bft) NO 46 1 min 2,0 UV-I 461 W/m 7,2 C 5,0 km/h (1 Bft)
03.03.2024 12:55 14,4 C 18,6 C 64 % 1002,9 hPa 0,0 l/m 2,1 km/h (1 Bft) O-NO 74 1 min 2,0 UV-I 459 W/m 7,7 C 5,0 km/h (1 Bft)
03.03.2024 12:54 14,5 C 18,3 C 64 % 1003,2 hPa 0,0 l/m 2,7 km/h (1 Bft) SO 131 1 min 2,0 UV-I 453 W/m 7,8 C 4,0 km/h (1 Bft)
03.03.2024 12:53 14,5 C 17,8 C 64 % 1003,0 hPa 0,0 l/m 1,0 km/h (0 Bft) O 101 1 min 2,0 UV-I 458 W/m 7,8 C 4,0 km/h (1 Bft)
03.03.2024 12:52 14,5 C 18,0 C 64 % 1003,0 hPa 0,0 l/m 2,1 km/h (1 Bft) N-NO 16 1 min 2,0 UV-I 463 W/m 7,8 C 5,0 km/h (1 Bft)
03.03.2024 12:51 14,5 C 17,8 C 64 % 1003,1 hPa 0,0 l/m 0,0 km/h (0 Bft) S-SW 192 1 min 2,0 UV-I 459 W/m 7,8 C 5,0 km/h (1 Bft)
03.03.2024 12:50 14,5 C 17,6 C 65 % 1003,2 hPa 0,0 l/m 4,2 km/h (1 Bft) SW 222 1 min 2,0 UV-I 452 W/m 8,0 C 5,0 km/h (1 Bft)
03.03.2024 12:49 14,5 C 17,5 C 65 % 1003,1 hPa 0,0 l/m 1,6 km/h (1 Bft) O-NO 66 1 min 2,0 UV-I 456 W/m 8,0 C 5,0 km/h (1 Bft)
03.03.2024 12:48 14,5 C 18,6 C 65 % 1003,2 hPa 0,0 l/m 3,3 km/h (1 Bft) N-NO 15 1 min 2,0 UV-I 433 W/m 8,0 C 5,0 km/h (1 Bft)
03.03.2024 12:47 14,4 C 18,0 C 65 % 1003,2 hPa 0,0 l/m 1,6 km/h (1 Bft) NO 40 1 min 2,0 UV-I 506 W/m 7,9 C 5,0 km/h (1 Bft)
03.03.2024 12:46 14,4 C 17,6 C 65 % 1003,3 hPa 0,0 l/m 2,7 km/h (1 Bft) N-NO 16 1 min 2,0 UV-I 478 W/m 7,9 C 6,0 km/h (2 Bft)
03.03.2024 12:45 14,4 C 17,9 C 65 % 1003,0 hPa 0,0 l/m 1,6 km/h (1 Bft) O-NO 78 1 min 2,0 UV-I 463 W/m 7,9 C 7,0 km/h (2 Bft)
03.03.2024 12:44 14,4 C 17,9 C 65 % 1003,3 hPa 0,0 l/m 4,7 km/h (1 Bft) N-NO 13 1 min 2,0 UV-I 429 W/m 7,9 C 7,0 km/h (2 Bft)
03.03.2024 12:43 14,4 C 17,9 C 65 % 1003,2 hPa 0,0 l/m 4,0 km/h (1 Bft) N 3 1 min 2,0 UV-I 425 W/m 7,9 C 9,0 km/h (2 Bft)
03.03.2024 12:42 14,4 C 17,0 C 65 % 1003,2 hPa 0,0 l/m 2,2 km/h (1 Bft) NO 53 1 min 2,0 UV-I 424 W/m 7,9 C 10,0 km/h (2 Bft)
03.03.2024 12:41 14,3 C 17,1 C 66 % 1003,3 hPa 0,0 l/m 7,4 km/h (2 Bft) N-NO 22 1 min 2,0 UV-I 456 W/m 8,0 C 10,0 km/h (2 Bft)
03.03.2024 12:40 14,3 C 17,8 C 66 % 1003,3 hPa 0,0 l/m 5,1 km/h (1 Bft) N-NO 21 1 min 2,0 UV-I 457 W/m 8,0 C 10,0 km/h (2 Bft)
03.03.2024 12:39 14,3 C 17,8 C 66 % 1003,5 hPa 0,0 l/m 3,8 km/h (1 Bft) O-NO 70 1 min 2,0 UV-I 424 W/m 8,0 C 8,0 km/h (2 Bft)
03.03.2024 12:38 14,2 C 18,1 C 66 % 1003,3 hPa 0,0 l/m 3,6 km/h (1 Bft) N-NO 18 1 min 1,0 UV-I 393 W/m 7,9 C 5,0 km/h (1 Bft)
03.03.2024 12:37 14,2 C 18,2 C 66 % 1003,2 hPa 0,0 l/m 3,1 km/h (1 Bft) N 4 1 min 1,0 UV-I 370 W/m 7,9 C 5,0 km/h (1 Bft)
03.03.2024 12:36 14,1 C 18,6 C 66 % 1003,2 hPa 0,0 l/m 3,1 km/h (1 Bft) N 5 1 min 1,0 UV-I 360 W/m 7,8 C 5,0 km/h (1 Bft)
03.03.2024 12:35 14,1 C 18,4 C 66 % 1003,3 hPa 0,0 l/m 1,4 km/h (1 Bft) O 80 1 min 1,0 UV-I 353 W/m 7,8 C 5,0 km/h (1 Bft)
03.03.2024 12:34 14,0 C 18,3 C 67 % 1003,1 hPa 0,0 l/m 4,0 km/h (1 Bft) O-NO 62 1 min 1,0 UV-I 358 W/m 8,0 C 5,0 km/h (1 Bft)
03.03.2024 12:33 14,0 C 18,2 C 67 % 1003,4 hPa 0,0 l/m 4,5 km/h (1 Bft) NO 45 1 min 1,0 UV-I 385 W/m 8,0 C 5,0 km/h (1 Bft)
03.03.2024 12:32 14,0 C 18,2 C 67 % 1003,3 hPa 0,0 l/m 2,0 km/h (1 Bft) N 9 1 min 2,0 UV-I 409 W/m 8,0 C 9,0 km/h (2 Bft)
03.03.2024 12:31 13,9 C 17,7 C 66 % 1003,5 hPa 0,0 l/m 3,6 km/h (1 Bft) N-NO 16 1 min 2,0 UV-I 430 W/m 7,7 C 9,0 km/h (2 Bft)
03.03.2024 12:30 13,9 C 18,0 C 67 % 1003,3 hPa 0,0 l/m 3,8 km/h (1 Bft) O-NO 67 1 min 2,0 UV-I 422 W/m 7,9 C 9,0 km/h (2 Bft)
03.03.2024 12:29 13,8 C 17,1 C 67 % 1003,3 hPa 0,0 l/m 1,4 km/h (1 Bft) W-NW 295 1 min 2,0 UV-I 415 W/m 7,8 C 5,0 km/h (1 Bft)
03.03.2024 12:28 13,8 C 17,1 C 67 % 1003,3 hPa 0,0 l/m 0,0 km/h (0 Bft) N 8 1 min 2,0 UV-I 419 W/m 7,8 C 5,0 km/h (1 Bft)
03.03.2024 12:27 13,8 C 17,7 C 67 % 1003,3 hPa 0,0 l/m 1,0 km/h (0 Bft) O-NO 63 1 min 2,0 UV-I 435 W/m 7,8 C 5,0 km/h (1 Bft)
03.03.2024 12:26 13,8 C 17,8 C 67 % 1003,5 hPa 0,0 l/m 2,9 km/h (1 Bft) O 83 1 min 2,0 UV-I 444 W/m 7,8 C 7,0 km/h (2 Bft)
03.03.2024 12:25 13,8 C 17,0 C 67 % 1003,3 hPa 0,0 l/m 2,9 km/h (1 Bft) O 91 1 min 2,0 UV-I 428 W/m 7,8 C 9,0 km/h (2 Bft)
03.03.2024 12:24 13,8 C 16,6 C 67 % 1003,6 hPa 0,0 l/m 4,3 km/h (1 Bft) N-NO 15 1 min 2,0 UV-I 434 W/m 7,8 C 9,0 km/h (2 Bft)
03.03.2024 12:23 13,7 C 17,0 C 67 % 1003,3 hPa 0,0 l/m 4,8 km/h (1 Bft) N-NO 31 1 min 2,0 UV-I 441 W/m 7,7 C 9,0 km/h (2 Bft)
03.03.2024 12:22 13,7 C 18,0 C 68 % 1003,5 hPa 0,0 l/m 6,5 km/h (2 Bft) N-NO 20 1 min 2,0 UV-I 469 W/m 7,9 C 8,0 km/h (2 Bft)
03.03.2024 12:21 13,7 C 17,8 C 68 % 1003,5 hPa 0,0 l/m 1,0 km/h (0 Bft) N-NW 345 1 min 2,0 UV-I 496 W/m 7,9 C 5,0 km/h (1 Bft)
03.03.2024 12:20 13,6 C 17,8 C 67 % 1003,5 hPa 0,0 l/m 3,2 km/h (1 Bft) O-NO 74 1 min 2,0 UV-I 504 W/m 7,6 C 5,0 km/h (1 Bft)
03.03.2024 12:19 13,6 C 17,7 C 67 % 1003,4 hPa 0,0 l/m 3,3 km/h (1 Bft) SO 144 1 min 2,0 UV-I 490 W/m 7,6 C 4,0 km/h (1 Bft)
03.03.2024 12:18 13,6 C 16,9 C 68 % 1003,5 hPa 0,0 l/m 1,3 km/h (1 Bft) O-SO 104 1 min 2,0 UV-I 477 W/m 7,8 C 6,0 km/h (2 Bft)
03.03.2024 12:17 13,6 C 16,6 C 68 % 1003,4 hPa 0,0 l/m 1,3 km/h (1 Bft) O-NO 68 1 min 2,0 UV-I 453 W/m 7,8 C 10,0 km/h (2 Bft)
03.03.2024 12:16 13,6 C 16,1 C 68 % 1003,5 hPa 0,0 l/m 3,1 km/h (1 Bft) O-NO 71 1 min 2,0 UV-I 450 W/m 7,8 C 10,0 km/h (2 Bft)
03.03.2024 12:15 13,5 C 16,5 C 68 % 1003,4 hPa 0,0 l/m 6,1 km/h (2 Bft) N-NO 31 1 min 2,0 UV-I 458 W/m 7,7 C 10,0 km/h (2 Bft)
03.03.2024 12:14 13,5 C 16,4 C 68 % 1003,7 hPa 0,0 l/m 4,1 km/h (1 Bft) N 9 1 min 2,0 UV-I 456 W/m 7,7 C 12,0 km/h (2 Bft)
03.03.2024 12:13 13,4 C 16,9 C 69 % 1003,3 hPa 0,0 l/m 5,6 km/h (1 Bft) N 10 1 min 2,0 UV-I 423 W/m 7,8 C 12,0 km/h (2 Bft)
03.03.2024 12:12 13,4 C 16,8 C 69 % 1003,3 hPa 0,0 l/m 6,1 km/h (2 Bft) N 10 1 min 2,0 UV-I 418 W/m 7,8 C 12,0 km/h (2 Bft)
03.03.2024 12:11 13,4 C 17,4 C 69 % 1003,5 hPa 0,0 l/m 4,5 km/h (1 Bft) O-NO 58 1 min 1,0 UV-I 398 W/m 7,8 C 9,0 km/h (2 Bft)
03.03.2024 12:10 13,4 C 17,6 C 69 % 1003,5 hPa 0,0 l/m 4,5 km/h (1 Bft) N-NO 22 1 min 1,0 UV-I 379 W/m 7,8 C 9,0 km/h (2 Bft)
03.03.2024 12:09 13,4 C 17,6 C 68 % 1003,4 hPa 0,0 l/m 2,7 km/h (1 Bft) N-NO 25 1 min 1,0 UV-I 407 W/m 7,6 C 5,0 km/h (1 Bft)
03.03.2024 12:08 13,4 C 16,7 C 68 % 1003,3 hPa 0,0 l/m 3,5 km/h (1 Bft) O-SO 102 1 min 2,0 UV-I 425 W/m 7,6 C 4,0 km/h (1 Bft)
03.03.2024 12:07 13,4 C 16,0 C 68 % 1003,4 hPa 0,0 l/m 0,0 km/h (0 Bft) O 97 1 min 2,0 UV-I 448 W/m 7,6 C 3,0 km/h (1 Bft)
03.03.2024 12:06 13,4 C 17,3 C 69 % 1003,4 hPa 0,0 l/m 0,0 km/h (0 Bft) W-SW 254 1 min 2,0 UV-I 439 W/m 7,8 C 7,0 km/h (2 Bft)
03.03.2024 12:05 13,4 C 16,7 C 69 % 1003,6 hPa 0,0 l/m 0,0 km/h (0 Bft) NO 48 1 min 2,0 UV-I 414 W/m 7,8 C 12,0 km/h (2 Bft)
03.03.2024 12:04 13,3 C 16,7 C 70 % 1003,6 hPa 0,0 l/m 1,6 km/h (1 Bft) NO 48 1 min 1,0 UV-I 407 W/m 7,9 C 12,0 km/h (2 Bft)
03.03.2024 12:03 13,3 C 16,1 C 70 % 1003,5 hPa 0,0 l/m 4,3 km/h (1 Bft) NO 43 1 min 1,0 UV-I 398 W/m 7,9 C 12,0 km/h (2 Bft)
03.03.2024 12:02 13,3 C 16,9 C 70 % 1003,7 hPa 0,0 l/m 5,2 km/h (1 Bft) NO 38 1 min 1,0 UV-I 402 W/m 7,9 C 8,0 km/h (2 Bft)
03.03.2024 12:01 13,2 C 17,2 C 70 % 1003,5 hPa 0,0 l/m 5,8 km/h (2 Bft) O 98 1 min 1,0 UV-I 403 W/m 7,9 C 8,0 km/h (2 Bft)
03.03.2024 12:00 13,2 C 17,1 C 70 % 1003,6 hPa 0,0 l/m 4,3 km/h (1 Bft) O 97 1 min 1,0 UV-I 401 W/m 7,9 C 8,0 km/h (2 Bft)
03.03.2024 11:59 13,2 C 16,6 C 70 % 1003,3 hPa 0,0 l/m 2,2 km/h (1 Bft) O-NO 77 1 min 1,0 UV-I 396 W/m 7,9 C 8,0 km/h (2 Bft)
03.03.2024 11:58 13,1 C 16,3 C 70 % 1003,7 hPa 0,0 l/m 2,7 km/h (1 Bft) O 89 1 min 1,0 UV-I 401 W/m 7,8 C 8,0 km/h (2 Bft)
03.03.2024 11:57 13,1 C 16,1 C 71 % 1003,6 hPa 0,0 l/m 3,3 km/h (1 Bft) O 83 1 min 1,0 UV-I 392 W/m 8,0 C 8,0 km/h (2 Bft)
03.03.2024 11:56 13,1 C 16,2 C 71 % 1003,6 hPa 0,0 l/m 2,6 km/h (1 Bft) O 85 1 min 1,0 UV-I 390 W/m 8,0 C 5,0 km/h (1 Bft)
03.03.2024 11:55 13,1 C 15,3 C 71 % 1003,4 hPa 0,0 l/m 1,6 km/h (1 Bft) SO 137 1 min 1,0 UV-I 396 W/m 8,0 C 8,0 km/h (2 Bft)
03.03.2024 11:54 13,0 C 15,0 C 71 % 1003,6 hPa 0,0 l/m 3,1 km/h (1 Bft) SO 146 1 min 2,0 UV-I 417 W/m 7,9 C 8,0 km/h (2 Bft)
03.03.2024 11:53 13,0 C 15,5 C 71 % 1003,5 hPa 0,0 l/m 5,1 km/h (1 Bft) S-SO 155 1 min 2,0 UV-I 455 W/m 7,9 C 8,0 km/h (2 Bft)
03.03.2024 11:52 12,9 C 15,7 C 71 % 1003,5 hPa 0,0 l/m 3,8 km/h (1 Bft) O-SO 118 1 min 2,0 UV-I 489 W/m 7,8 C 5,0 km/h (1 Bft)
03.03.2024 11:51 12,9 C 15,1 C 71 % 1003,6 hPa 0,0 l/m 2,3 km/h (1 Bft) O 86 1 min 2,0 UV-I 484 W/m 7,8 C 5,0 km/h (1 Bft)
03.03.2024 11:50 12,8 C 14,6 C 71 % 1003,6 hPa 0,0 l/m 3,1 km/h (1 Bft) O 101 1 min 2,0 UV-I 456 W/m 7,7 C 5,0 km/h (1 Bft)
03.03.2024 11:49 12,8 C 14,4 C 72 % 1003,7 hPa 0,0 l/m 2,7 km/h (1 Bft) O 91 1 min 2,0 UV-I 419 W/m 7,9 C 6,0 km/h (2 Bft)
03.03.2024 11:48 12,7 C 14,7 C 72 % 1003,7 hPa 0,0 l/m 1,6 km/h (1 Bft) O-NO 77 1 min 2,0 UV-I 409 W/m 7,8 C 6,0 km/h (2 Bft)
03.03.2024 11:47 12,7 C 15,9 C 73 % 1003,7 hPa 0,0 l/m 5,2 km/h (1 Bft) O 87 1 min 1,0 UV-I 398 W/m 8,0 C 7,0 km/h (2 Bft)
03.03.2024 11:46 12,5 C 16,9 C 73 % 1003,8 hPa 0,0 l/m 3,8 km/h (1 Bft) O-NO 75 1 min 2,0 UV-I 422 W/m 7,8 C 7,0 km/h (2 Bft)
03.03.2024 11:45 12,5 C 18,4 C 74 % 1003,8 hPa 0,0 l/m 2,2 km/h (1 Bft) O-NO 65 1 min 2,0 UV-I 452 W/m 8,0 C 7,0 km/h (2 Bft)
03.03.2024 11:44 12,4 C 17,5 C 73 % 1003,7 hPa 0,0 l/m 2,7 km/h (1 Bft) O 94 1 min 2,0 UV-I 462 W/m 7,7 C 7,0 km/h (2 Bft)
03.03.2024 11:43 12,3 C 17,7 C 74 % 1003,8 hPa 0,0 l/m 1,3 km/h (1 Bft) O 91 1 min 2,0 UV-I 446 W/m 7,8 C 6,0 km/h (2 Bft)
03.03.2024 11:42 12,2 C 16,6 C 74 % 1003,8 hPa 0,0 l/m 1,3 km/h (1 Bft) O 94 1 min 2,0 UV-I 445 W/m 7,7 C 6,0 km/h (2 Bft)
03.03.2024 11:41 12,1 C 17,2 C 74 % 1003,9 hPa 0,0 l/m 3,8 km/h (1 Bft) O 80 1 min 2,0 UV-I 459 W/m 7,6 C 10,0 km/h (2 Bft)
03.03.2024 11:40 12,1 C 17,2 C 74 % 1003,9 hPa 0,0 l/m 1,6 km/h (1 Bft) O-NO 67 1 min 2,0 UV-I 467 W/m 7,6 C 10,0 km/h (2 Bft)
03.03.2024 11:39 12,0 C 16,9 C 74 % 1003,9 hPa 0,0 l/m 3,5 km/h (1 Bft) O 93 1 min 2,0 UV-I 475 W/m 7,5 C 10,0 km/h (2 Bft)
03.03.2024 11:38 11,9 C 16,3 C 75 % 1003,8 hPa 0,0 l/m 3,3 km/h (1 Bft) NO 47 1 min 2,0 UV-I 456 W/m 7,6 C 7,0 km/h (2 Bft)
03.03.2024 11:37 11,8 C 16,3 C 75 % 1003,7 hPa 0,0 l/m 3,6 km/h (1 Bft) O 81 1 min 2,0 UV-I 445 W/m 7,5 C 7,0 km/h (2 Bft)
03.03.2024 11:36 11,8 C 17,0 C 75 % 1003,8 hPa 0,0 l/m 4,2 km/h (1 Bft) O-NO 63 1 min 2,0 UV-I 450 W/m 7,5 C 7,0 km/h (2 Bft)
03.03.2024 11:35 11,6 C 17,1 C 75 % 1003,8 hPa 0,0 l/m 1,4 km/h (1 Bft) O-SO 109 1 min 2,0 UV-I 452 W/m 7,3 C 5,0 km/h (1 Bft)
03.03.2024 11:34 11,6 C 16,1 C 75 % 1003,7 hPa 0,0 l/m 1,4 km/h (1 Bft) O-SO 119 1 min 2,0 UV-I 448 W/m 7,3 C 8,0 km/h (2 Bft)
03.03.2024 11:33 11,5 C 15,2 C 75 % 1003,8 hPa 0,0 l/m 3,8 km/h (1 Bft) O 86 1 min 2,0 UV-I 437 W/m 7,2 C 8,0 km/h (2 Bft)
03.03.2024 11:32 11,5 C 14,7 C 75 % 1003,8 hPa 0,0 l/m 5,5 km/h (1 Bft) O 81 1 min 2,0 UV-I 429 W/m 7,2 C 8,0 km/h (2 Bft)
03.03.2024 11:31 11,4 C 14,0 C 75 % 1003,8 hPa 0,0 l/m 3,9 km/h (1 Bft) NO 56 1 min 1,0 UV-I 408 W/m 7,1 C 8,0 km/h (2 Bft)
03.03.2024 11:30 11,4 C 14,0 C 75 % 1003,8 hPa 0,0 l/m 3,1 km/h (1 Bft) O-NO 72 1 min 1,0 UV-I 395 W/m 7,1 C 9,0 km/h (2 Bft)
03.03.2024 11:29 11,3 C 14,2 C 75 % 1004,0 hPa 0,0 l/m 5,6 km/h (1 Bft) O-NO 70 1 min 1,0 UV-I 367 W/m 7,0 C 10,0 km/h (2 Bft)
03.03.2024 11:28 11,3 C 14,4 C 75 % 1003,8 hPa 0,0 l/m 2,9 km/h (1 Bft) O-NO 78 1 min 1,0 UV-I 315 W/m 7,0 C 10,0 km/h (2 Bft)
03.03.2024 11:27 11,2 C 14,6 C 76 % 1003,7 hPa 0,0 l/m 6,7 km/h (2 Bft) O-NO 62 1 min 1,0 UV-I 308 W/m 7,1 C 10,0 km/h (2 Bft)
03.03.2024 11:26 11,2 C 15,2 C 76 % 1003,9 hPa 0,0 l/m 2,7 km/h (1 Bft) O-NO 78 1 min 1,0 UV-I 351 W/m 7,1 C 8,0 km/h (2 Bft)
03.03.2024 11:25 11,1 C 14,9 C 76 % 1003,8 hPa 0,0 l/m 3,6 km/h (1 Bft) NO 56 1 min 1,0 UV-I 371 W/m 7,0 C 8,0 km/h (2 Bft)
03.03.2024 11:24 11,1 C 14,9 C 76 % 1003,8 hPa 0,0 l/m 5,1 km/h (1 Bft) O-NO 73 1 min 1,0 UV-I 389 W/m 7,0 C 8,0 km/h (2 Bft)
03.03.2024 11:23 11,1 C 15,3 C 76 % 1003,8 hPa 0,0 l/m 2,2 km/h (1 Bft) O-NO 64 1 min 1,0 UV-I 397 W/m 7,0 C 11,0 km/h (2 Bft)
03.03.2024 11:22 11,0 C 15,0 C 77 % 1003,8 hPa 0,0 l/m 5,2 km/h (1 Bft) O 83 1 min 1,0 UV-I 358 W/m 7,1 C 11,0 km/h (2 Bft)
03.03.2024 11:21 10,9 C 14,9 C 77 % 1003,8 hPa 0,0 l/m 3,3 km/h (1 Bft) NO 39 1 min 1,0 UV-I 333 W/m 7,0 C 9,0 km/h (2 Bft)
03.03.2024 11:20 10,9 C 14,1 C 77 % 1003,7 hPa 0,0 l/m 4,7 km/h (1 Bft) NO 46 1 min 1,0 UV-I 327 W/m 7,0 C 9,0 km/h (2 Bft)
03.03.2024 11:19 10,8 C 14,4 C 77 % 1003,8 hPa 0,0 l/m 3,8 km/h (1 Bft) O 92 1 min 1,0 UV-I 320 W/m 6,9 C 9,0 km/h (2 Bft)
03.03.2024 11:18 10,8 C 14,0 C 77 % 1003,9 hPa 0,0 l/m 5,8 km/h (2 Bft) O-SO 112 1 min 1,0 UV-I 338 W/m 6,9 C 9,0 km/h (2 Bft)
03.03.2024 11:17 10,7 C 13,9 C 77 % 1003,9 hPa 0,0 l/m 4,2 km/h (1 Bft) O-NO 66 1 min 1,0 UV-I 316 W/m 6,8 C 9,0 km/h (2 Bft)
03.03.2024 11:16 10,7 C 13,9 C 77 % 1003,9 hPa 0,0 l/m 3,8 km/h (1 Bft) N 358 1 min 1,0 UV-I 321 W/m 6,8 C 9,0 km/h (2 Bft)
03.03.2024 11:15 10,6 C 13,6 C 77 % 1003,8 hPa 0,0 l/m 6,4 km/h (2 Bft) O-NO 74 1 min 1,0 UV-I 324 W/m 6,7 C 9,0 km/h (2 Bft)
03.03.2024 11:14 10,6 C 13,7 C 77 % 1003,9 hPa 0,0 l/m 4,7 km/h (1 Bft) NO 39 1 min 1,0 UV-I 316 W/m 6,7 C 8,0 km/h (2 Bft)
03.03.2024 11:13 10,5 C 13,6 C 77 % 1003,7 hPa 0,0 l/m 4,3 km/h (1 Bft) O-SO 118 1 min 1,0 UV-I 313 W/m 6,6 C 9,0 km/h (2 Bft)
03.03.2024 11:12 10,5 C 13,3 C 78 % 1003,8 hPa 0,0 l/m 4,7 km/h (1 Bft) O-NO 74 1 min 1,0 UV-I 288 W/m 6,8 C 10,0 km/h (2 Bft)
03.03.2024 11:11 10,5 C 13,4 C 78 % 1003,6 hPa 0,0 l/m 4,7 km/h (1 Bft) O 94 1 min 1,0 UV-I 266 W/m 6,8 C 10,0 km/h (2 Bft)
03.03.2024 11:10 10,4 C 12,9 C 78 % 1003,8 hPa 0,0 l/m 4,7 km/h (1 Bft) O 97 1 min 1,0 UV-I 256 W/m 6,7 C 10,0 km/h (2 Bft)
03.03.2024 11:09 10,4 C 12,5 C 78 % 1003,8 hPa 0,0 l/m 2,2 km/h (1 Bft) O-NO 73 1 min 1,0 UV-I 247 W/m 6,7 C 7,0 km/h (2 Bft)
03.03.2024 11:08 10,4 C 12,6 C 78 % 1003,8 hPa 0,0 l/m 0,0 km/h (0 Bft) O 86 1 min 1,0 UV-I 244 W/m 6,7 C 7,0 km/h (2 Bft)
03.03.2024 11:07 10,4 C 12,8 C 78 % 1003,8 hPa 0,0 l/m 3,8 km/h (1 Bft) O-NO 61 1 min 1,0 UV-I 238 W/m 6,7 C 7,0 km/h (2 Bft)
03.03.2024 11:06 10,3 C 12,7 C 78 % 1003,7 hPa 0,0 l/m 3,6 km/h (1 Bft) O 85 1 min 1,0 UV-I 239 W/m 6,6 C 6,0 km/h (2 Bft)
03.03.2024 11:05 10,3 C 12,1 C 78 % 1003,9 hPa 0,0 l/m 2,2 km/h (1 Bft) O-SO 118 1 min 1,0 UV-I 242 W/m 6,6 C 9,0 km/h (2 Bft)
03.03.2024 11:04 10,3 C 12,2 C 78 % 1003,5 hPa 0,0 l/m 5,8 km/h (2 Bft) O-NO 78 1 min 1,0 UV-I 238 W/m 6,6 C 9,0 km/h (2 Bft)
03.03.2024 11:03 10,3 C 12,0 C 78 % 1003,9 hPa 0,0 l/m 4,7 km/h (1 Bft) O 79 1 min 1,0 UV-I 225 W/m 6,6 C 9,0 km/h (2 Bft)
03.03.2024 11:02 10,2 C 12,2 C 78 % 1003,9 hPa 0,0 l/m 5,2 km/h (1 Bft) O-NO 70 1 min 1,0 UV-I 218 W/m 6,5 C 8,0 km/h (2 Bft)
03.03.2024 11:01 10,2 C 12,0 C 78 % 1003,6 hPa 0,0 l/m 3,5 km/h (1 Bft) O 79 1 min 1,0 UV-I 225 W/m 6,5 C 8,0 km/h (2 Bft)
03.03.2024 11:00 10,2 C 12,0 C 78 % 1003,6 hPa 0,0 l/m 4,0 km/h (1 Bft) O 91 2 min 1,0 UV-I 221 W/m 6,5 C 8,0 km/h (2 Bft)
_ Min-Zeit 05:30 05:22 15:49 14:28 - 11:08 - - - - - 05:30 20:39
Minimum _ 1,1 C -0,7 C 54 % 1002,4 hPa - 0,0 km/h (0 Bft) - - - - - 0,1 C 2,0 km/h (1 Bft)
_ Max-Zeit 15:10 14:53 07:41 10:13 11:00 15:34 - - 11:00 11:32 12:47 12:39 16:11
Maximum _ 16,2 C 20,6 C 96 % 1011,8 hPa 0,0 l/m 9,4 km/h
NO (2 Bft)
- - 2 min 2,0 UV-I 506 W/m 8,0 C 19,0 km/h
NO (3 Bft)
Durchschnitt _ 8,1 C 7,9 C 80 % 1005,9 hPa #0,0 l/m 2,4 km/h (1 Bft) O - #0 min. 0,0 UV-I 26 W/m 4,5 C 6,2 km/h (2 Bft)